SondeTracker

Meteorological Radiosondes Database

Operations

Sounding was ended - last measurement: 2022-12-07 01:12:43z

MAP
About Radiosonde

Number: U2231244

Launch Site: Salem [OR] (US)

Type: RS41

AUX: NO

Frequency: 401.401 MHz

Max Speed: 109 km/h at 32843 m

Average Speed: 41.98 km/h

Max Altitude: 33334 m

Average Ascent Speed: 5.19 m/s

Average Descent Speed: 42.23 m/s

Status: UNKNOWN

Status Changes
Launch Site Type AUX Frequency Status Finder Landing Point Description Changes made by
APRS Statistics

Received Frames: 1557

First Frame [UTC]: 2022-12-06 23:14:04z

Last Frame [UTC]: 2022-12-07 01:12:43z

Receivers: K6GDP-11, KE7WWC, KG7GDB-12, KJ7NUX-14, W7BDB-12, W7BDB-13, WA9ONY-10, WA9ONY-14

Flight Time: 01:58:39 h

Distance From First Measurement: 69.44 km

Nearest City: Sweet Home [OR] (US) [24.06 km]

Nearest Hunter: kg7bz [23.22 km]

Ground Altitude: 872 m

Distance from QTH: 0.00 km

APRS Data
Receiver Number Date/Time [UTC] φ λ Course [°] Speed [km/h] Altitude [m] Description
K6GDP-11U22312442022-12-07 01:12:4344.4547-122.40985201912Clb=-15.0m/s t=-2.2C h=49.1% p=803.9hPa 401.400 MHz Type=RS41-SGP ser=U2231244 Radiosonde
K6GDP-11U22312442022-12-07 01:12:1244.4547-122.4197172074Clb=-15.1m/s t=-2.3C h=49.7% p=787.5hPa 401.400 MHz Type=RS41-SGP ser=U2231244 Radiosonde
WA9ONY-14U22312442022-12-07 01:11:5944.4549-122.41124172275Clb=-15.1m/s p=768.3hPa t=-2.8C h=42.3% 401.40MHz Type=RS41-SGP batt=2.6V Join https://groups.io/g/Balloons
WA9ONY-14U22312442022-12-07 01:11:5444.455-122.411119152350Clb=-15.1m/s p=760.8hPa t=-3.1C h=38.7% 401.40MHz Type=RS41-SGP Join https://groups.io/g/Balloons
WA9ONY-14U22312442022-12-07 01:11:4944.4551-122.411101152424Clb=-15.6m/s p=753.7hPa t=-3.6C h=40.0% 401.40MHz Type=RS41-SGP Join https://groups.io/g/Balloons
WA9ONY-14U22312442022-12-07 01:11:4444.4551-122.411103172501Clb=-15.7m/s p=746.4hPa t=-4.1C h=41.0% 401.40MHz Type=RS41-SGP TxOff=8h15m batt=2.6V Join https://groups.io/g/Balloons
WA9ONY-14U22312442022-12-07 01:11:3944.4552-122.411120192578Clb=-15.4m/s p=739.1hPa t=-4.6C h=44.8% 401.40MHz Type=RS41-SGP Join https://groups.io/g/Balloons
WA9ONY-14U22312442022-12-07 01:11:3444.4553-122.412129202656Clb=-15.4m/s p=732.0hPa t=-5.2C h=46.5% 401.40MHz Type=RS41-SGP Join https://groups.io/g/Balloons
K6GDP-11U22312442022-12-07 01:11:1144.4565-122.413145243064Clb=-15.6m/s t=-8.0C h=40.9% p=694.7hPa 401.400 MHz Type=RS41-SGP ser=U2231244 Radiosonde
K6GDP-11U22312442022-12-07 01:10:4144.4583-122.414149223530Clb=-16.7m/s t=-11.3C h=34.4% p=654.0hPa 401.400 MHz Type=RS41-SGP ser=U2231244 Radiosonde
WA9ONY-14U22312442022-12-07 01:10:1844.4594-122.415154223909Clb=-16.0m/s p=622.5hPa t=-12.6C h=40.0% 401.40MHz Type=RS41-SGP batt=2.5V Join https://groups.io/g/Balloons
K6GDP-11U22312442022-12-07 01:10:1044.4599-122.415163194040Clb=-17.3m/s t=-13.8C h=45.8% p=611.9hPa 401.400 MHz Type=RS41-SGP ser=U2231244 Radiosonde
WA9ONY-14U22312442022-12-07 01:10:0744.46-122.415160194090Clb=-17.3m/s p=607.8hPa t=-13.8C h=41.5% 401.40MHz Type=RS41-SGP Join https://groups.io/g/Balloons
WA9ONY-14U22312442022-12-07 01:09:5544.4604-122.416149194258Clb=-16.6m/s p=594.7hPa t=-14.6C h=27.3% 401.40MHz Type=RS41-SGP Join https://groups.io/g/Balloons
WA9ONY-14U22312442022-12-07 01:09:4544.4608-122.416149194424Clb=-17.5m/s p=581.7hPa t=-15.7C h=27.1% 401.40MHz Type=RS41-SGP batt=2.5V Join https://groups.io/g/Balloons
K6GDP-11U22312442022-12-07 01:09:3744.4611-122.416151194559Clb=-16.9m/s t=-16.7C h=30.1% p=571.5hPa 401.400 MHz Type=RS41-SGP ser=U2231244 Radiosonde
WA9ONY-14U22312442022-12-07 01:09:3544.4612-122.416149174593Clb=-17.5m/s p=568.8hPa t=-16.9C h=31.1% 401.40MHz Type=RS41-SGP Join https://groups.io/g/Balloons
WA9ONY-14U22312442022-12-07 01:09:2444.4616-122.416157204764Clb=-16.8m/s p=556.0hPa t=-18.3C h=30.1% 401.40MHz Type=RS41-SGP Join https://groups.io/g/Balloons
WA9ONY-14U22312442022-12-07 01:09:1344.462-122.417157204936Clb=-17.2m/s p=543.5hPa t=-19.6C h=27.6% 401.40MHz Type=RS41-SGP TxOff=8h17m batt=2.5V Join https://groups.io/g/Balloons
K6GDP-11U22312442022-12-07 01:09:0444.4624-122.417155155088Clb=-18.2m/s t=-20.9C h=29.4% p=532.5hPa 401.400 MHz Type=RS41-SGP ser=U2231244 Radiosonde
WA9ONY-14U22312442022-12-07 01:09:0344.4625-122.417155285106Clb=-17.4m/s p=531.1hPa t=-21.0C h=30.5% 401.40MHz Type=RS41-SGP Join https://groups.io/g/Balloons
W7BDB-12U22312442022-12-07 01:09:0144.4626-122.417160195176Clb=-17.6m/s t=-21.7C h=30.9% p=526.4hPa 401.399 MHz Type=RS41-SGP ser=U2231244 Radiosonde
W7BDB-13U22312442022-12-07 01:08:5844.4627-122.417151195194Clb=-17.2m/s p=525.1hPa t=-21.8C h=31.6% 401.40MHz Type=RS41-SGP Details on http://radiosondy.info
W7BDB-13U22312442022-12-07 01:08:4144.4634-122.417174225466Clb=-17.4m/s p=505.9hPa t=-23.5C h=15.9% 401.40MHz Type=RS41-SGP TxOff=8h18m batt=2.5V Details on http://radiosondy.info
K6GDP-11U22312442022-12-07 01:08:3244.4639-122.418173245620Clb=-17.4m/s t=-24.7C h=14.4% p=495.4hPa 401.400 MHz Type=RS41-SGP ser=U2231244 Radiosonde
W7BDB-13U22312442022-12-07 01:08:2544.4643-122.418169245741Clb=-18.2m/s p=487.1hPa t=-25.6C h=16.3% 401.40MHz Type=RS41-SGP Details on http://radiosondy.info
KJ7NUX-14U22312442022-12-07 01:08:1844.4647-122.418177245848Clb=-18.2m/s p=480.1hPa t=-26.5C h=15.7% 401.40MHz Type=RS41-SGP Details on http://radiosondy.info
W7BDB-13U22312442022-12-07 01:08:0844.4653-122.418173246021Clb=-17.4m/s p=468.6hPa t=-27.8C h=17.5% 401.40MHz Type=RS41-SGP Details on http://radiosondy.info
KJ7NUX-14U22312442022-12-07 01:08:0244.4656-122.418172266127Clb=-17.4m/s p=461.6hPa t=-27.9C h=12.8% 401.40MHz Type=RS41-SGP Details on http://radiosondy.info
K6GDP-11U22312442022-12-07 01:08:0144.4658-122.418175246162Clb=-17.7m/s t=-28.1C h=11.3% p=459.5hPa 401.400 MHz Type=RS41-SGP ser=U2231244 Radiosonde
W7BDB-13U22312442022-12-07 01:07:5144.4662-122.418196306300Clb=-18.0m/s p=450.7hPa t=-28.6C h=9.7% 401.40MHz Type=RS41-SGP batt=2.6V Details on http://radiosondy.info
KJ7NUX-14U22312442022-12-07 01:07:4544.4666-122.418209336406Clb=-17.8m/s p=444.0hPa t=-29.0C h=7.9% 401.40MHz Type=RS41-SGP batt=2.6V Details on http://radiosondy.info
W7BDB-13U22312442022-12-07 01:07:3444.4672-122.417209356584Clb=-18.0m/s p=433.1hPa t=-30.1C h=6.1% 401.40MHz Type=RS41-SGP Details on http://radiosondy.info
KJ7NUX-14U22312442022-12-07 01:07:2844.4677-122.417203316692Clb=-18.8m/s p=426.7hPa t=-30.8C h=6.3% 401.40MHz Type=RS41-SGP Details on http://radiosondy.info
K6GDP-11U22312442022-12-07 01:07:2744.4678-122.417205306711Clb=-19.0m/s t=-31.0C h=5.7% p=425.7hPa 401.400 MHz Type=RS41-SGP ser=U2231244 Radiosonde
W7BDB-12U22312442022-12-07 01:07:2344.4682-122.416196336821Clb=-18.9m/s t=-31.9C h=6.4% p=419.0hPa 401.399 MHz Type=RS41-SGP ser=U2231244 Radiosonde
W7BDB-13U22312442022-12-07 01:07:1744.4684-122.416195316856Clb=-18.3m/s p=416.9hPa t=-32.2C h=7.5% 401.40MHz Type=RS41-SGP Details on http://radiosondy.info
WA9ONY-14U22312442022-12-07 01:07:1344.4686-122.416197306911Clb=-19.5m/s p=413.6hPa t=-32.6C h=8.0% 401.40MHz Type=RS41-SGP Join https://groups.io/g/Balloons
KJ7NUX-14U22312442022-12-07 01:07:0844.4689-122.416201266984Clb=-19.3m/s p=409.3hPa t=-33.1C h=9.4% 401.40MHz Type=RS41-SGP Details on http://radiosondy.info
WA9ONY-14U22312442022-12-07 01:07:0144.4693-122.416199287095Clb=-19.4m/s p=403.1hPa t=-33.9C h=11.0% 401.40MHz Type=RS41-SGP batt=2.5V Join https://groups.io/g/Balloons
W7BDB-13U22312442022-12-07 01:06:5944.4695-122.416198307133Clb=-18.9m/s p=401.0hPa t=-34.2C h=11.9% 401.40MHz Type=RS41-SGP batt=2.5V Details on http://radiosondy.info
K6GDP-11U22312442022-12-07 01:06:5144.47-122.416186287281Clb=-18.9m/s t=-35.4C h=11.6% p=392.5hPa 401.400 MHz Type=RS41-SGP ser=U2231244 Radiosonde
KJ7NUX-14U22312442022-12-07 01:06:4944.4702-122.416187307318Clb=-19.0m/s p=390.3hPa t=-35.7C h=13.3% 401.40MHz Type=RS41-SGP batt=2.6V Details on http://radiosondy.info
W7BDB-13U22312442022-12-07 01:06:4244.4706-122.416184307431Clb=-19.4m/s p=384.2hPa t=-36.7C h=15.2% 401.40MHz Type=RS41-SGP Details on http://radiosondy.info
WA9ONY-14U22312442022-12-07 01:06:3944.4708-122.416181317468Clb=-18.8m/s p=382.1hPa t=-37.1C h=15.7% 401.40MHz Type=RS41-SGP Join https://groups.io/g/Balloons
KJ7NUX-14U22312442022-12-07 01:06:2944.4716-122.416184337656Clb=-19.8m/s p=371.7hPa t=-38.6C h=16.9% 401.40MHz Type=RS41-SGP Details on http://radiosondy.info
W7BDB-13U22312442022-12-07 01:06:2444.4719-122.416184357733Clb=-19.9m/s p=367.6hPa t=-39.3C h=16.2% 401.40MHz Type=RS41-SGP Details on http://radiosondy.info
WA9ONY-14U22312442022-12-07 01:06:1844.4724-122.415178357849Clb=-19.4m/s p=361.5hPa t=-40.3C h=18.2% 401.40MHz Type=RS41-SGP Join https://groups.io/g/Balloons
K6GDP-11U22312442022-12-07 01:06:1744.4725-122.415180377867Clb=-19.6m/s t=-40.5C h=16.7% p=360.6hPa 401.400 MHz Type=RS41-SGP ser=U2231244 Radiosonde
KJ7NUX-14U22312442022-12-07 01:06:1144.473-122.415184357966Clb=-20.1m/s p=355.3hPa t=-41.2C h=24.8% 401.40MHz Type=RS41-SGP Details on http://radiosondy.info
W7BDB-13U22312442022-12-07 01:06:0744.4733-122.415182358024Clb=-19.7m/s p=352.3hPa t=-41.7C h=31.5% 401.40MHz Type=RS41-SGP TxOff=8h20m batt=2.5V Details on http://radiosondy.info
WA9ONY-14U22312442022-12-07 01:06:0644.4733-122.415179358044Clb=-20.2m/s p=351.3hPa t=-41.8C h=31.7% 401.40MHz Type=RS41-SGP Join https://groups.io/g/Balloons
WA9ONY-14U22312442022-12-07 01:05:5644.4742-122.415180308244Clb=-20.4m/s p=341.2hPa t=-43.5C h=31.3% 401.40MHz Type=RS41-SGP TxOff=8h20m batt=2.6V Join https://groups.io/g/Balloons
KJ7NUX-14U22312442022-12-07 01:05:5444.4744-122.415178308284Clb=-20.5m/s p=339.1hPa t=-43.8C h=31.0% 401.40MHz Type=RS41-SGP TxOff=8h20m batt=2.6V Details on http://radiosondy.info
W7BDB-13U22312442022-12-07 01:05:5144.4746-122.415182308324Clb=-20.7m/s p=336.9hPa t=-44.2C h=31.1% 401.40MHz Type=RS41-SGP Details on http://radiosondy.info
WA9ONY-14U22312442022-12-07 01:05:4544.475-122.416177318451Clb=-21.9m/s p=330.9hPa t=-45.3C h=32.1% 401.40MHz Type=RS41-SGP Join https://groups.io/g/Balloons
K6GDP-11U22312442022-12-07 01:05:4244.4751-122.415181288494Clb=-21.6m/s t=-45.7C h=29.7% p=328.7hPa 401.400 MHz Type=RS41-SGP ser=U2231244 Radiosonde
KJ7NUX-14U22312442022-12-07 01:05:3544.4756-122.415187318624Clb=-22.9m/s p=322.4hPa t=-46.5C h=33.8% 401.40MHz Type=RS41-SGP Details on http://radiosondy.info
W7BDB-13U22312442022-12-07 01:05:3344.4757-122.415190318647Clb=-22.3m/s p=321.3hPa t=-46.7C h=34.3% 401.40MHz Type=RS41-SGP Details on http://radiosondy.info
KJ7NUX-14U22312442022-12-07 01:05:1844.4768-122.415218378981Clb=-22.3m/s p=305.3hPa t=-48.5C h=39.4% 401.40MHz Type=RS41-SGP Details on http://radiosondy.info
WA9ONY-14U22312442022-12-07 01:05:1344.4771-122.415223419071Clb=-22.3m/s p=301.4hPa t=-49.0C h=41.5% 401.40MHz Type=RS41-SGP Join https://groups.io/g/Balloons
K6GDP-11U22312442022-12-07 01:05:0844.4774-122.414235399183Clb=-22.9m/s t=-50.0C h=40.8% p=296.4hPa 401.400 MHz Type=RS41-SGP ser=U2231244 Radiosonde
WA9ONY-14U22312442022-12-07 01:05:0144.4777-122.414243489300Clb=-24.2m/s p=291.1hPa t=-50.9C h=46.4% 401.40MHz Type=RS41-SGP batt=2.5V Join https://groups.io/g/Balloons
W7BDB-13U22312442022-12-07 01:05:0044.4777-122.413244489324Clb=-24.4m/s p=290.0hPa t=-51.1C h=46.6% 401.40MHz Type=RS41-SGP Details on http://radiosondy.info
WA9ONY-14U22312442022-12-07 01:04:5144.4782-122.412246439540Clb=-24.1m/s p=280.4hPa t=-52.7C h=46.2% 401.40MHz Type=RS41-SGP Join https://groups.io/g/Balloons
WA9ONY-14U22312442022-12-07 01:04:4144.4785-122.411254399789Clb=-25.9m/s p=270.1hPa t=-54.4C h=40.4% 401.40MHz Type=RS41-SGP Join https://groups.io/g/Balloons
K6GDP-11U22312442022-12-07 01:04:3444.4786-122.41257379966Clb=-26.1m/s t=-56.0C h=35.1% p=262.8hPa 401.400 MHz Type=RS41-SGP ser=U2231244 Radiosonde
WA9ONY-14U22312442022-12-07 01:04:2944.4787-122.4092623710043Clb=-25.8m/s p=259.5hPa t=-56.5C h=38.6% 401.40MHz Type=RS41-SGP batt=2.6V Join https://groups.io/g/Balloons
KJ7NUX-14U22312442022-12-07 01:04:1944.4787-122.4082643510254Clb=-27.2m/s p=251.0hPa t=-57.8C h=35.4% 401.40MHz Type=RS41-SGP batt=2.6V Details on http://radiosondy.info
WA9ONY-14U22312442022-12-07 01:04:1744.4787-122.4082633710309Clb=-26.4m/s p=249.0hPa t=-58.3C h=35.2% 401.40MHz Type=RS41-SGP Join https://groups.io/g/Balloons
W7BDB-13U22312442022-12-07 01:04:0744.4789-122.4072473110570Clb=-25.4m/s p=238.7hPa t=-60.2C h=31.8% 401.40MHz Type=RS41-SGP Details on http://radiosondy.info
KJ7NUX-14U22312442022-12-07 01:04:0444.4791-122.4072353110646Clb=-25.7m/s p=235.7hPa t=-59.9C h=28.6% 401.40MHz Type=RS41-SGP Details on http://radiosondy.info
K6GDP-11U22312442022-12-07 01:03:5944.4793-122.4062123010777Clb=-27.5m/s t=-60.8C h=20.1% p=230.9hPa 401.400 MHz Type=RS41-SGP ser=U2231244 Radiosonde
WA9ONY-14U22312442022-12-07 01:03:5644.4795-122.4062103510832Clb=-27.4m/s p=228.8hPa t=-60.8C h=24.2% 401.40MHz Type=RS41-SGP TxOff=8h22m batt=2.5V Join https://groups.io/g/Balloons
W7BDB-13U22312442022-12-07 01:03:5044.4799-122.4062033710994Clb=-27.1m/s p=223.2hPa t=-59.9C h=19.9% 401.40MHz Type=RS41-SGP batt=2.5V Details on http://radiosondy.info
KJ7NUX-14U22312442022-12-07 01:03:4744.4802-122.4062043511077Clb=-27.3m/s p=220.0hPa t=-60.2C h=18.7% 401.40MHz Type=RS41-SGP Details on http://radiosondy.info
WA9ONY-14U22312442022-12-07 01:03:4644.4803-122.4062023711104Clb=-28.0m/s p=219.2hPa t=-60.3C h=18.4% 401.40MHz Type=RS41-SGP Join https://groups.io/g/Balloons
WA9ONY-14U22312442022-12-07 01:03:3644.4812-122.4051962411376Clb=-27.7m/s p=209.8hPa t=-59.9C h=15.5% 401.40MHz Type=RS41-SGP Join https://groups.io/g/Balloons
W7BDB-13U22312442022-12-07 01:03:3444.4813-122.4051982811432Clb=-27.6m/s p=208.1hPa t=-59.8C h=14.4% 401.40MHz Type=RS41-SGP Details on http://radiosondy.info
KJ7NUX-14U22312442022-12-07 01:03:3144.4815-122.4051952211514Clb=-27.8m/s p=205.4hPa t=-60.2C h=14.0% 401.40MHz Type=RS41-SGP batt=2.5V Details on http://radiosondy.info
K6GDP-11U22312442022-12-07 01:03:2844.4817-122.4051991711624Clb=-28.6m/s t=-60.9C h=9.0% p=201.8hPa 401.400 MHz Type=RS41-SGP ser=U2231244 Radiosonde
WA9ONY-14U22312442022-12-07 01:03:2644.4817-122.4051892411653Clb=-28.5m/s p=200.8hPa t=-61.0C h=12.8% 401.40MHz Type=RS41-SGP batt=2.5V Join https://groups.io/g/Balloons
WA9ONY-14U22312442022-12-07 01:03:1644.4823-122.4051792611935Clb=-28.2m/s p=192.0hPa t=-60.2C h=9.5% 401.40MHz Type=RS41-SGP Join https://groups.io/g/Balloons
KJ7NUX-14U22312442022-12-07 01:03:1544.4824-122.4051742611963Clb=-28.9m/s p=191.1hPa t=-60.4C h=9.4% 401.40MHz Type=RS41-SGP Details on http://radiosondy.info
WA9ONY-14U22312442022-12-07 01:03:0544.483-122.4051793012246Clb=-28.0m/s p=182.8hPa t=-61.1C h=8.9% 401.40MHz Type=RS41-SGP Join https://groups.io/g/Balloons
KJ7NUX-14U22312442022-12-07 01:02:5744.4835-122.4051414812470Clb=-28.2m/s p=176.3hPa t=-60.6C h=7.4% 401.40MHz Type=RS41-SGP Details on http://radiosondy.info
WA9ONY-14U22312442022-12-07 01:02:5544.4837-122.4051454812527Clb=-28.8m/s p=174.6hPa t=-60.7C h=7.2% 401.40MHz Type=RS41-SGP batt=2.5V Join https://groups.io/g/Balloons
W7BDB-12U22312442022-12-07 01:02:5344.4841-122.4061454412641Clb=-28.3m/s t=-59.1C h=2.7% p=171.5hPa 401.399 MHz Type=RS41-SGP ser=U2231244 Radiosonde
WA9ONY-14U22312442022-12-07 01:02:4544.4847-122.4061525412810Clb=-28.3m/s p=167.1hPa t=-57.5C h=5.2% 401.40MHz Type=RS41-SGP Join https://groups.io/g/Balloons
KJ7NUX-14U22312442022-12-07 01:02:4144.4852-122.4071485012927Clb=-30.5m/s p=163.9hPa t=-56.8C h=4.9% 401.40MHz Type=RS41-SGP TxOff=8h23m batt=2.5V Details on http://radiosondy.info
W7BDB-13U22312442022-12-07 01:02:4044.4853-122.4071535012958Clb=-31.0m/s p=163.4hPa t=-56.7C h=4.9% 401.40MHz Type=RS41-SGP TxOff=8h23m batt=2.5V Details on http://radiosondy.info
WA9ONY-14U22312442022-12-07 01:02:3544.4859-122.4071485013113Clb=-30.5m/s p=159.3hPa t=-56.8C h=4.8% 401.40MHz Type=RS41-SGP Join https://groups.io/g/Balloons
K6GDP-11U22312442022-12-07 01:02:2644.4868-122.4081334613425Clb=-30.5m/s t=-56.2C h=1.8% p=151.6hPa 401.400 MHz Type=RS41-SGP ser=U2231244 Radiosonde
KJ7NUX-14U22312442022-12-07 01:02:2544.4868-122.4081344113425Clb=-30.5m/s p=151.5hPa t=-56.1C h=4.5% 401.40MHz Type=RS41-SGP Details on http://radiosondy.info
W7BDB-13U22312442022-12-07 01:02:2444.4869-122.4091363713455Clb=-29.9m/s p=151.0hPa t=-56.2C h=4.6% 401.40MHz Type=RS41-SGP Details on http://radiosondy.info
WA9ONY-14U22312442022-12-07 01:02:1544.4874-122.411223913730Clb=-31.5m/s p=144.7hPa t=-56.6C h=4.6% 401.40MHz Type=RS41-SGP Join https://groups.io/g/Balloons
KJ7NUX-14U22312442022-12-07 01:02:0944.4877-122.411114813918Clb=-32.0m/s p=140.4hPa t=-56.7C h=4.7% 401.40MHz Type=RS41-SGP Details on http://radiosondy.info
WA9ONY-14U22312442022-12-07 01:02:0544.4878-122.4111144814046Clb=-31.6m/s p=137.6hPa t=-57.2C h=4.8% 401.40MHz Type=RS41-SGP Join https://groups.io/g/Balloons
WA9ONY-14U22312442022-12-07 01:01:5544.4885-122.4121235714363Clb=-32.8m/s p=130.9hPa t=-55.9C h=4.4% 401.40MHz Type=RS41-SGP batt=2.6V Join https://groups.io/g/Balloons
KJ7NUX-14U22312442022-12-07 01:01:5344.4887-122.4131235614428Clb=-33.3m/s p=129.6hPa t=-56.0C h=4.4% 401.40MHz Type=RS41-SGP batt=2.6V Details on http://radiosondy.info
W7BDB-12U22312442022-12-07 01:01:5144.489-122.4131235614558Clb=-32.9m/s t=-56.2C h=1.6% p=127.0hPa 401.399 MHz Type=RS41-SGP ser=U2231244 Radiosonde
KE7WWCU22312442022-12-07 01:01:4744.4893-122.4141215214690Clb=-34.2m/s t=-55.8C h=1.6% p=124.5hPa 401.375 MHz Type=RS41-SGP ser=U2231244 Radiosonde
WA9ONY-14U22312442022-12-07 01:01:4544.4893-122.4141225714691Clb=-34.2m/s p=124.5hPa t=-55.7C h=4.3% 401.40MHz Type=RS41-SGP Join https://groups.io/g/Balloons
W7BDB-13U22312442022-12-07 01:01:3844.4899-122.4151316114921Clb=-32.6m/s p=119.9hPa t=-55.5C h=4.0% 401.40MHz Type=RS41-SGP Details on http://radiosondy.info
WA9ONY-14U22312442022-12-07 01:01:3544.4902-122.4161326315020Clb=-33.7m/s p=118.1hPa t=-55.7C h=4.0% 401.40MHz Type=RS41-SGP Join https://groups.io/g/Balloons
WA9ONY-14U22312442022-12-07 01:01:2644.4912-122.4171315415362Clb=-33.7m/s p=112.1hPa t=-56.2C h=4.0% 401.40MHz Type=RS41-SGP batt=2.6V Join https://groups.io/g/Balloons
W7BDB-13U22312442022-12-07 01:01:2244.4915-122.4181335415463Clb=-34.9m/s p=110.2hPa t=-56.8C h=4.3% 401.40MHz Type=RS41-SGP Details on http://radiosondy.info
KJ7NUX-14U22312442022-12-07 01:01:2144.4916-122.4181315215497Clb=-34.6m/s p=109.7hPa t=-57.0C h=4.2% 401.40MHz Type=RS41-SGP Details on http://radiosondy.info
WA9ONY-14U22312442022-12-07 01:01:1544.492-122.4191175415706Clb=-36.9m/s p=106.1hPa t=-57.6C h=4.4% 401.40MHz Type=RS41-SGP Join https://groups.io/g/Balloons
KJ7NUX-14U22312442022-12-07 01:01:0644.4927-122.421216516067Clb=-36.4m/s p=100.2hPa t=-58.6C h=4.8% 401.40MHz Type=RS41-SGP batt=2.5V Details on http://radiosondy.info
WA9ONY-14U22312442022-12-07 01:01:0544.4927-122.421216516067Clb=-36.4m/s p=100.2hPa t=-58.6C h=4.8% 401.40MHz Type=RS41-SGP Join https://groups.io/g/Balloons
WA9ONY-14U22312442022-12-07 01:00:5544.4937-122.4221355616444Clb=-39.0m/s p=94.5hPa t=-59.2C h=4.9% 401.40MHz Type=RS41-SGP TxOff=8h25m batt=2.6V Join https://groups.io/g/Balloons
K6GDP-11U22312442022-12-07 01:00:5444.494-122.4231385916560Clb=-37.9m/s t=-59.1C h=1.6% p=92.6hPa 401.400 MHz Type=RS41-SGP ser=U2231244 Radiosonde
W7BDB-13U22312442022-12-07 01:00:5344.4972-122.4261423717852Clb=-41.2m/s p=75.7hPa t=-58.6C h=4.4% 401.40MHz Type=RS41-SGP TxOff=8h26m batt=2.5V Details on http://radiosondy.info
KE7WWCU22312442022-12-07 01:00:5244.4977-122.4261443518144Clb=-43.3m/s t=-59.1C h=1.2% p=72.5hPa 401.375 MHz Type=RS41-SGP ser=U2231244 Radiosonde
K6GDP-11U22312442022-12-07 01:00:5144.4992-122.4291414619154Clb=-47.3m/s t=-59.5C h=1.2% p=61.7hPa 401.400 MHz Type=RS41-SGP ser=U2231244 Radiosonde
KG7GDB-12U22312442022-12-07 01:00:5044.501-122.4311425720091Clb=-46.3m/s t=-59.6C h=1.2% p=53.2hPa 401.401 MHz Type=RS41-SGP ser=U2231244 Radiosonde
KE7WWCU22312442022-12-07 01:00:4944.5029-122.4331314321006Clb=-51.6m/s t=-57.4C h=0.9% p=46.2hPa 401.375 MHz Type=RS41-SGP ser=U2231244 Radiosonde
W7BDB-13U22312442022-12-07 01:00:4844.5047-122.4361185422381Clb=-52.2m/s p=37.2hPa t=-57.9C h=4.2% 401.40MHz Type=RS41-SGP batt=2.5V Details on http://radiosondy.info
W7BDB-13U22312442022-12-07 01:00:4744.5058-122.4381335023200Clb=-58.7m/s p=32.8hPa t=-58.8C h=4.4% 401.40MHz Type=RS41-SGP Details on http://radiosondy.info
K6GDP-11U22312442022-12-07 01:00:4644.5077-122.441133724506Clb=-63.8m/s t=-59.0C h=1.0% p=26.8hPa 401.400 MHz Type=RS41-SGP ser=U2231244 Radiosonde
WA9ONY-14U22312442022-12-07 01:00:4344.5078-122.4411173524687Clb=-57.7m/s p=25.9hPa t=-59.0C h=4.8% 401.40MHz Type=RS41-SGP Join https://groups.io/g/Balloons
W7BDB-13U22312442022-12-07 01:00:4144.5081-122.4411204125033Clb=-57.2m/s p=24.4hPa t=-57.5C h=4.1% 401.40MHz Type=RS41-SGP TxOff=8h28m batt=2.5V Details on http://radiosondy.info
WA9ONY-14U22312442022-12-07 01:00:4044.5082-122.4421184325267Clb=-60.8m/s p=23.6hPa t=-57.8C h=4.2% 401.40MHz Type=RS41-SGP TxOff=8h28m batt=2.6V Join https://groups.io/g/Balloons
KJ7NUX-14U22312442022-12-07 01:00:3944.5083-122.4421124425386Clb=-58.3m/s p=23.2hPa t=-58.0C h=4.4% 401.40MHz Type=RS41-SGP TxOff=8h28m batt=2.5V Details on http://radiosondy.info
WA9ONY-14U22312442022-12-07 01:00:3744.5084-122.443934625863Clb=-59.6m/s p=21.5hPa t=-56.9C h=3.9% 401.40MHz Type=RS41-SGP Join https://groups.io/g/Balloons
KE7WWCU22312442022-12-07 01:00:3644.5084-122.444914326283Clb=-61.0m/s t=-59.1C h=1.0% p=20.2hPa 401.375 MHz Type=RS41-SGP ser=U2231244 Radiosonde
WA9ONY-14U22312442022-12-07 01:00:3544.5084-122.445944126466Clb=-60.9m/s p=19.6hPa t=-58.4C h=4.6% 401.40MHz Type=RS41-SGP Join https://groups.io/g/Balloons
W7BDB-13U22312442022-12-07 01:00:3344.5085-122.446905226905Clb=-65.7m/s p=18.2hPa t=-55.7C h=3.6% 401.40MHz Type=RS41-SGP Details on http://radiosondy.info
WA9ONY-14U22312442022-12-07 01:00:3244.5085-122.446995427103Clb=-65.6m/s p=17.8hPa t=-55.8C h=3.6% 401.40MHz Type=RS41-SGP batt=2.6V Join https://groups.io/g/Balloons
KJ7NUX-14U22312442022-12-07 01:00:3044.5089-122.4481195227722Clb=-70.4m/s p=16.2hPa t=-57.7C h=4.3% 401.40MHz Type=RS41-SGP Details on http://radiosondy.info
W7BDB-13U22312442022-12-07 01:00:2944.5091-122.4481265228010Clb=-72.5m/s p=15.5hPa t=-57.6C h=4.3% 401.40MHz Type=RS41-SGP batt=2.6V Details on http://radiosondy.info
WA9ONY-14U22312442022-12-07 01:00:2744.5097-122.4491375228512Clb=-70.1m/s p=14.3hPa t=-57.7C h=4.2% 401.40MHz Type=RS41-SGP Join https://groups.io/g/Balloons
KJ7NUX-14U22312442022-12-07 01:00:2544.5102-122.451355428860Clb=-69.5m/s p=13.6hPa t=-57.5C h=4.2% 401.40MHz Type=RS41-SGP batt=2.6V Details on http://radiosondy.info
W7BDB-13U22312442022-12-07 01:00:2244.5105-122.451345629066Clb=-68.5m/s p=13.1hPa t=-57.5C h=4.3% 401.40MHz Type=RS41-SGP Details on http://radiosondy.info
KJ7NUX-14U22312442022-12-07 01:00:2144.5112-122.4531028530009Clb=-74.9m/s p=11.3hPa t=-57.7C h=4.5% 401.40MHz Type=RS41-SGP Details on http://radiosondy.info
KG7GDB-12U22312442022-12-07 01:00:2044.5123-122.4591049431660Clb=-76.4m/s t=-57.4C h=0.9% p=8.8hPa 401.401 MHz Type=RS41-SGP ser=U2231244 Radiosonde
W7BDB-13U22312442022-12-07 01:00:1944.5149-122.4661198733334Clb=-19.0m/s p=6.5hPa t=-57.8C h=4.3% 401.40MHz Type=RS41-SGP Details on http://radiosondy.info
KJ7NUX-14U22312442022-12-07 01:00:1844.5167-122.4711228733266Clb=6.9m/s p=6.6hPa t=-58.1C h=4.4% 401.40MHz Type=RS41-SGP Details on http://radiosondy.info
W7BDB-13U22312442022-12-07 01:00:1344.5185-122.4741238533173Clb=5.6m/s p=6.7hPa t=-57.7C h=4.4% 401.40MHz Type=RS41-SGP Details on http://radiosondy.info
KJ7NUX-14U22312442022-12-07 01:00:1144.5187-122.4741258333160Clb=7.4m/s p=6.7hPa t=-57.6C h=4.3% 401.40MHz Type=RS41-SGP TxPastBurst=8h30m batt=2.6V Details on http://radiosondy.info
KG7GDB-12U22312442022-12-07 01:00:1044.519-122.4751216333139Clb=7.8m/s t=-57.4C h=0.8% p=6.8hPa 401.401 MHz Type=RS41-SGP ser=U2231244 Radiosonde
WA9ONY-14U22312442022-12-07 01:00:0644.5195-122.4761299133110Clb=7.9m/s p=6.8hPa t=-57.1C h=4.2% 401.40MHz Type=RS41-SGP Join https://groups.io/g/Balloons
K6GDP-11U22312442022-12-07 01:00:0244.5201-122.47712410033086Clb=6.4m/s t=-57.0C h=0.8% p=6.8hPa 401.400 MHz Type=RS41-SGP ser=U2231244 Radiosonde
W7BDB-13U22312442022-12-07 00:59:5944.5204-122.4781188733074Clb=5.7m/s p=6.8hPa t=-57.0C h=4.1% 401.40MHz Type=RS41-SGP Details on http://radiosondy.info
KJ7NUX-14U22312442022-12-07 00:59:5844.5205-122.4781188733061Clb=7.3m/s p=6.8hPa t=-56.9C h=4.2% 401.40MHz Type=RS41-SGP Details on http://radiosondy.info
WA9ONY-14U22312442022-12-07 00:59:5544.5207-122.4791259133048Clb=5.6m/s p=6.8hPa t=-56.9C h=4.1% 401.40MHz Type=RS41-SGP Join https://groups.io/g/Balloons
KE7WWCU22312442022-12-07 00:59:5244.5212-122.481209333025Clb=6.9m/s t=-57.0C h=0.9% p=6.9hPa 401.375 MHz Type=RS41-SGP ser=U2231244 Radiosonde
WA9ONY-14U22312442022-12-07 00:59:4144.5219-122.4811239132989Clb=5.2m/s p=6.9hPa t=-57.2C h=4.0% 401.40MHz Type=RS41-SGP TxPastBurst=8h30m batt=2.6V Join https://groups.io/g/Balloons
W7BDB-13U22312442022-12-07 00:59:3944.5222-122.48211710032976Clb=6.8m/s p=6.9hPa t=-57.2C h=4.0% 401.40MHz Type=RS41-SGP batt=2.6V Details on http://radiosondy.info
KJ7NUX-14U22312442022-12-07 00:59:3744.5223-122.48211610232965Clb=4.4m/s p=6.9hPa t=-57.3C h=4.1% 401.40MHz Type=RS41-SGP Details on http://radiosondy.info
KG7GDB-12U22312442022-12-07 00:59:3644.5224-122.4831198732960Clb=5.2m/s t=-57.4C h=0.9% p=7.0hPa 401.401 MHz Type=RS41-SGP ser=U2231244 Radiosonde
WA9ONY-14U22312442022-12-07 00:59:3044.5232-122.48412910932931Clb=6.1m/s p=7.0hPa t=-57.6C h=4.4% 401.40MHz Type=RS41-SGP Join https://groups.io/g/Balloons
K6GDP-11U22312442022-12-07 00:59:2344.5241-122.48612310632894Clb=4.7m/s t=-57.5C h=0.9% p=7.0hPa 401.400 MHz Type=RS41-SGP ser=U2231244 Radiosonde
KJ7NUX-14U22312442022-12-07 00:59:1644.5246-122.48712010632871Clb=5.1m/s p=7.0hPa t=-57.3C h=4.2% 401.40MHz Type=RS41-SGP batt=2.6V Details on http://radiosondy.info
KE7WWCU22312442022-12-07 00:59:1244.5253-122.48912310932843Clb=5.0m/s t=-57.3C h=0.9% p=7.1hPa 401.375 MHz Type=RS41-SGP ser=U2231244 Radiosonde
WA9ONY-14U22312442022-12-07 00:59:0244.526-122.49111310032815Clb=6.2m/s p=7.1hPa t=-57.4C h=4.0% 401.40MHz Type=RS41-SGP batt=2.6V Join https://groups.io/g/Balloons
W7BDB-13U22312442022-12-07 00:58:5844.5263-122.4911199632796Clb=5.0m/s p=7.1hPa t=-57.3C h=4.0% 401.40MHz Type=RS41-SGP Details on http://radiosondy.info
KG7GDB-12U22312442022-12-07 00:58:5444.5266-122.4921149432778Clb=5.4m/s t=-57.3C h=0.8% p=7.2hPa 401.401 MHz Type=RS41-SGP ser=U2231244 Radiosonde
WA9ONY-14U22312442022-12-07 00:58:4844.5271-122.4941209632756Clb=5.9m/s p=7.1hPa t=-57.6C h=3.9% 401.40MHz Type=RS41-SGP Join https://groups.io/g/Balloons
K6GDP-11U22312442022-12-07 00:58:4044.5277-122.4961058932716Clb=5.9m/s t=-58.1C h=0.9% p=7.2hPa 401.400 MHz Type=RS41-SGP ser=U2231244 Radiosonde
W7BDB-13U22312442022-12-07 00:58:3644.5278-122.4961159132704Clb=5.6m/s p=7.2hPa t=-58.2C h=4.1% 401.40MHz Type=RS41-SGP batt=2.7V Details on http://radiosondy.info
WA9ONY-14U22312442022-12-07 00:58:3444.5279-122.4971169132699Clb=4.6m/s p=7.2hPa t=-58.2C h=4.2% 401.40MHz Type=RS41-SGP Join https://groups.io/g/Balloons
KJ7NUX-14U22312442022-12-07 00:58:3244.5281-122.4971129132687Clb=7.0m/s p=7.2hPa t=-58.4C h=4.3% 401.40MHz Type=RS41-SGP Details on http://radiosondy.info
KE7WWCU22312442022-12-07 00:58:2844.5284-122.4991058932656Clb=5.2m/s t=-58.7C h=0.9% p=7.3hPa 401.375 MHz Type=RS41-SGP ser=U2231244 Radiosonde
WA9ONY-14U22312442022-12-07 00:58:2044.5286-122.5989132638Clb=6.8m/s p=7.3hPa t=-58.7C h=4.3% 401.40MHz Type=RS41-SGP batt=2.6V Join https://groups.io/g/Balloons
W7BDB-13U22312442022-12-07 00:58:1544.5287-122.50110710232618Clb=7.4m/s p=7.3hPa t=-58.7C h=4.4% 401.40MHz Type=RS41-SGP Details on http://radiosondy.info
KG7GDB-12U22312442022-12-07 00:58:1144.529-122.5021148732600Clb=4.3m/s t=-58.8C h=0.9% p=7.4hPa 401.401 MHz Type=RS41-SGP ser=U2231244 Radiosonde
KJ7NUX-14U22312442022-12-07 00:58:1044.5291-122.50211210432595Clb=5.4m/s p=7.3hPa t=-58.8C h=4.5% 401.40MHz Type=RS41-SGP batt=2.6V Details on http://radiosondy.info
WA9ONY-14U22312442022-12-07 00:58:0744.5292-122.50310210932582Clb=6.5m/s p=7.4hPa t=-58.8C h=4.4% 401.40MHz Type=RS41-SGP Join https://groups.io/g/Balloons
K6GDP-11U22312442022-12-07 00:57:5744.5295-122.506969632534Clb=7.4m/s t=-58.9C h=1.0% p=7.5hPa 401.400 MHz Type=RS41-SGP ser=U2231244 Radiosonde
W7BDB-13U22312442022-12-07 00:57:5644.5295-122.5069710232527Clb=6.0m/s p=7.4hPa t=-58.8C h=4.5% 401.40MHz Type=RS41-SGP Details on http://radiosondy.info
WA9ONY-14U22312442022-12-07 00:57:5444.5296-122.50610010432521Clb=5.2m/s p=7.4hPa t=-58.8C h=4.5% 401.40MHz Type=RS41-SGP Join https://groups.io/g/Balloons
KJ7NUX-14U22312442022-12-07 00:57:5044.5298-122.5081079432497Clb=4.7m/s p=7.4hPa t=-58.7C h=4.3% 401.40MHz Type=RS41-SGP Details on http://radiosondy.info
KE7WWCU22312442022-12-07 00:57:4744.53-122.5099210732471Clb=5.6m/s t=-58.9C h=1.0% p=7.5hPa 401.373 MHz Type=RS41-SGP ser=U2231244 Radiosonde
WA9ONY-14U22312442022-12-07 00:57:4144.53-122.51958932461Clb=6.4m/s p=7.5hPa t=-58.9C h=4.4% 401.40MHz Type=RS41-SGP TxPastBurst=8h30m batt=2.6V Join https://groups.io/g/Balloons
W7BDB-13U22312442022-12-07 00:57:3644.5302-122.5111069632434Clb=5.8m/s p=7.5hPa t=-58.8C h=4.4% 401.40MHz Type=RS41-SGP TxPastBurst=8h30m batt=2.6V Details on http://radiosondy.info
KG7GDB-12U22312442022-12-07 00:57:3044.5304-122.512978732411Clb=4.1m/s t=-59.0C h=0.8% p=7.6hPa 401.401 MHz Type=RS41-SGP ser=U2231244 Radiosonde
WA9ONY-14U22312442022-12-07 00:57:2744.5305-122.51310210232399Clb=7.7m/s p=7.5hPa t=-58.9C h=4.3% 401.40MHz Type=RS41-SGP Join https://groups.io/g/Balloons
KJ7NUX-14U22312442022-12-07 00:57:2444.5306-122.51410110032380Clb=5.3m/s p=7.6hPa t=-59.0C h=4.3% 401.40MHz Type=RS41-SGP Details on http://radiosondy.info
K6GDP-11U22312442022-12-07 00:57:1644.5308-122.516979432339Clb=6.8m/s t=-59.3C h=0.9% p=7.7hPa 401.400 MHz Type=RS41-SGP ser=U2231244 Radiosonde
W7BDB-13U22312442022-12-07 00:57:1544.5308-122.5169810232339Clb=6.8m/s p=7.6hPa t=-59.2C h=4.4% 401.40MHz Type=RS41-SGP Details on http://radiosondy.info
WA9ONY-14U22312442022-12-07 00:57:1444.5308-122.51610010232333Clb=5.4m/s p=7.6hPa t=-59.3C h=4.3% 401.40MHz Type=RS41-SGP Join https://groups.io/g/Balloons
KJ7NUX-14U22312442022-12-07 00:57:0344.5312-122.51910510932281Clb=5.3m/s p=7.7hPa t=-60.0C h=4.6% 401.40MHz Type=RS41-SGP TxPastBurst=8h30m batt=2.7V Details on http://radiosondy.info
WA9ONY-14U22312442022-12-07 00:57:0044.5313-122.5210010632269Clb=7.8m/s p=7.7hPa t=-60.0C h=4.7% 401.40MHz Type=RS41-SGP batt=2.6V Join https://groups.io/g/Balloons
W7BDB-13U22312442022-12-07 00:56:5444.5314-122.5229610932234Clb=6.8m/s p=7.8hPa t=-60.1C h=4.9% 401.40MHz Type=RS41-SGP Details on http://radiosondy.info
KG7GDB-12U22312442022-12-07 00:56:4944.5315-122.5239410732206Clb=6.3m/s t=-60.1C h=1.2% p=7.9hPa 401.401 MHz Type=RS41-SGP ser=U2231244 Radiosonde
WA9ONY-14U22312442022-12-07 00:56:4744.5315-122.5249710932201Clb=5.4m/s p=7.8hPa t=-60.0C h=4.8% 401.40MHz Type=RS41-SGP Join https://groups.io/g/Balloons
W7BDB-13U22312442022-12-07 00:56:4244.5113-122.4531018730158Clb=-74.8m/s p=11.1hPa t=-57.7C h=4.5% 401.40MHz Type=RS41-SGP Details on http://radiosondy.info
W7BDB-13U22312442022-12-07 00:55:4044.5166-122.471208733273Clb=6.4m/s p=6.6hPa t=-58.1C h=4.4% 401.40MHz Type=RS41-SGP TxPastBurst=8h30m batt=2.6V Details on http://radiosondy.info
WA9ONY-14U22312442022-12-07 00:55:3944.5326-122.54928131858Clb=6.5m/s p=8.2hPa t=-59.5C h=4.6% 401.40MHz Type=RS41-SGP TxPastBurst=8h30m batt=2.6V Join https://groups.io/g/Balloons
KJ7NUX-14U22312442022-12-07 00:55:2944.5329-122.5431057231803Clb=6.5m/s p=8.3hPa t=-59.5C h=4.3% 401.40MHz Type=RS41-SGP Details on http://radiosondy.info
WA9ONY-14U22312442022-12-07 00:55:2644.5329-122.5431067431790Clb=6.3m/s p=8.3hPa t=-59.5C h=4.5% 401.40MHz Type=RS41-SGP Join https://groups.io/g/Balloons
KG7GDB-12U22312442022-12-07 00:55:2544.533-122.5441096531776Clb=6.7m/s t=-59.6C h=1.0% p=8.4hPa 401.401 MHz Type=RS41-SGP ser=U2231244 Radiosonde
WA9ONY-14U22312442022-12-07 00:55:1244.5333-122.5461047031725Clb=8.2m/s p=8.4hPa t=-59.6C h=4.5% 401.40MHz Type=RS41-SGP Join https://groups.io/g/Balloons
K6GDP-11U22312442022-12-07 00:55:1144.5335-122.5461166131710Clb=6.2m/s t=-59.8C h=1.0% p=8.4hPa 401.400 MHz Type=RS41-SGP ser=U2231244 Radiosonde
KJ7NUX-14U22312442022-12-07 00:55:0844.5336-122.5471187631696Clb=7.8m/s p=8.4hPa t=-60.0C h=5.0% 401.40MHz Type=RS41-SGP Details on http://radiosondy.info
W7BDB-12U22312442022-12-07 00:55:0644.5339-122.5471127431668Clb=8.2m/s t=-60.1C h=1.1% p=8.5hPa 401.399 MHz Type=RS41-SGP ser=U2231244 Radiosonde
WA9ONY-14U22312442022-12-07 00:54:5844.534-122.5481107831654Clb=5.9m/s p=8.5hPa t=-60.1C h=5.0% 401.40MHz Type=RS41-SGP batt=2.6V Join https://groups.io/g/Balloons
W7BDB-13U22312442022-12-07 00:54:4844.5347-122.551278131590Clb=5.7m/s p=8.6hPa t=-59.7C h=5.0% 401.40MHz Type=RS41-SGP Details on http://radiosondy.info
WA9ONY-14U22312442022-12-07 00:54:4744.5348-122.551247831584Clb=7.1m/s p=8.6hPa t=-59.7C h=4.9% 401.40MHz Type=RS41-SGP Join https://groups.io/g/Balloons
KG7GDB-12U22312442022-12-07 00:54:4444.5351-122.5511048731564Clb=6.1m/s t=-59.6C h=1.0% p=8.7hPa 401.401 MHz Type=RS41-SGP ser=U2231244 Radiosonde
WA9ONY-14U22312442022-12-07 00:54:3344.5353-122.5531058931514Clb=7.4m/s p=8.7hPa t=-59.1C h=4.9% 401.40MHz Type=RS41-SGP Join https://groups.io/g/Balloons
K6GDP-11U22312442022-12-07 00:54:3044.5355-122.5541199131493Clb=9.0m/s t=-59.0C h=1.0% p=8.8hPa 401.400 MHz Type=RS41-SGP ser=U2231244 Radiosonde
W7BDB-13U22312442022-12-07 00:54:2744.5358-122.5541248731477Clb=6.2m/s p=8.7hPa t=-58.8C h=4.6% 401.40MHz Type=RS41-SGP TxPastBurst=8h30m batt=2.6V Details on http://radiosondy.info
KJ7NUX-14U22312442022-12-07 00:54:2544.5359-122.5551218731471Clb=5.7m/s p=8.7hPa t=-58.8C h=4.7% 401.40MHz Type=RS41-SGP Details on http://radiosondy.info
WA9ONY-14U22312442022-12-07 00:54:1944.5362-122.5561008531442Clb=6.9m/s p=8.8hPa t=-58.7C h=4.7% 401.40MHz Type=RS41-SGP batt=2.6V Join https://groups.io/g/Balloons
KE7WWCU22312442022-12-07 00:54:1844.5362-122.556987431426Clb=7.1m/s t=-58.6C h=1.0% p=8.8hPa 401.375 MHz Type=RS41-SGP ser=U2231244 Radiosonde
WA9ONY-14U22312442022-12-07 00:54:0644.5368-122.5591209331370Clb=8.0m/s p=8.9hPa t=-58.1C h=4.7% 401.40MHz Type=RS41-SGP Join https://groups.io/g/Balloons
W7BDB-13U22312442022-12-07 00:54:0544.537-122.5591199331363Clb=6.6m/s p=8.9hPa t=-58.1C h=4.6% 401.40MHz Type=RS41-SGP Details on http://radiosondy.info
KJ7NUX-14U22312442022-12-07 00:54:0344.5371-122.5591159331358Clb=5.3m/s p=8.9hPa t=-58.0C h=4.5% 401.40MHz Type=RS41-SGP Details on http://radiosondy.info
KG7GDB-12U22312442022-12-07 00:54:0144.5372-122.561079331344Clb=8.3m/s t=-57.9C h=0.9% p=8.9hPa 401.401 MHz Type=RS41-SGP ser=U2231244 Radiosonde
WA9ONY-14U22312442022-12-07 00:53:5044.5375-122.5621049331300Clb=6.7m/s p=9.0hPa t=-57.5C h=4.3% 401.40MHz Type=RS41-SGP Join https://groups.io/g/Balloons
K6GDP-11U22312442022-12-07 00:53:4544.5378-122.5631059431268Clb=6.8m/s t=-57.2C h=0.9% p=9.1hPa 401.400 MHz Type=RS41-SGP ser=U2231244 Radiosonde
W7BDB-13U22312442022-12-07 00:50:2844.5379-122.5641049131245Clb=7.7m/s p=9.0hPa t=-57.0C h=4.3% 401.40MHz Type=RS41-SGP Details on http://radiosondy.info
W7BDB-13U22312442022-12-07 00:49:2644.5393-122.584978930805Clb=6.7m/s p=9.7hPa t=-56.5C h=4.0% 401.40MHz Type=RS41-SGP batt=2.6V Details on http://radiosondy.info
WA9ONY-14U22312442022-12-07 00:49:2544.543-122.6081224630019Clb=5.6m/s p=10.9hPa t=-58.9C h=4.4% 401.40MHz Type=RS41-SGP Join https://groups.io/g/Balloons
KJ7NUX-14U22312442022-12-07 00:49:2044.5432-122.6091235029993Clb=5.5m/s p=11.0hPa t=-59.1C h=4.5% 401.40MHz Type=RS41-SGP Details on http://radiosondy.info
WA9ONY-14U22312442022-12-07 00:49:0844.5435-122.611085029951Clb=5.4m/s p=11.1hPa t=-59.1C h=4.5% 401.40MHz Type=RS41-SGP TxPastBurst=8h30m batt=2.6V Join https://groups.io/g/Balloons
W7BDB-13U22312442022-12-07 00:49:0244.5438-122.6111254329919Clb=5.8m/s p=11.1hPa t=-59.0C h=4.6% 401.40MHz Type=RS41-SGP Details on http://radiosondy.info
KE7WWCU22312442022-12-07 00:48:5844.544-122.6111235229899Clb=6.2m/s t=-59.1C h=1.1% p=11.2hPa 401.375 MHz Type=RS41-SGP ser=U2231244 Radiosonde
KJ7NUX-14U22312442022-12-07 00:48:5544.5442-122.6111324329885Clb=8.1m/s p=11.2hPa t=-59.2C h=4.8% 401.40MHz Type=RS41-SGP batt=2.7V Details on http://radiosondy.info
WA9ONY-14U22312442022-12-07 00:48:4044.5448-122.6121294829818Clb=7.6m/s p=11.3hPa t=-59.0C h=4.9% 401.40MHz Type=RS41-SGP Join https://groups.io/g/Balloons
KG7GDB-12U22312442022-12-07 00:48:3944.5448-122.6131274129811Clb=7.2m/s t=-59.0C h=0.9% p=11.4hPa 401.401 MHz Type=RS41-SGP ser=U2231244 Radiosonde
KJ7NUX-14U22312442022-12-07 00:48:3144.5453-122.6131434829777Clb=5.4m/s p=11.4hPa t=-58.8C h=4.5% 401.40MHz Type=RS41-SGP Details on http://radiosondy.info
WA9ONY-14U22312442022-12-07 00:48:2344.5456-122.6141364829750Clb=6.9m/s p=11.4hPa t=-58.6C h=4.6% 401.40MHz Type=RS41-SGP batt=2.6V Join https://groups.io/g/Balloons
K6GDP-11U22312442022-12-07 00:48:2244.5458-122.6141423929736Clb=6.3m/s t=-58.6C h=0.9% p=11.5hPa 401.400 MHz Type=RS41-SGP ser=U2231244 Radiosonde
W7BDB-13U22312442022-12-07 00:48:1644.5461-122.6141385429710Clb=4.9m/s p=11.5hPa t=-58.4C h=4.5% 401.40MHz Type=RS41-SGP Details on http://radiosondy.info
KE7WWCU22312442022-12-07 00:48:1244.5466-122.6151515729684Clb=5.8m/s t=-58.2C h=1.0% p=11.6hPa 401.375 MHz Type=RS41-SGP ser=U2231244 Radiosonde
WA9ONY-14U22312442022-12-07 00:48:1044.5466-122.6151525029684Clb=5.7m/s p=11.5hPa t=-58.2C h=4.5% 401.40MHz Type=RS41-SGP Join https://groups.io/g/Balloons
KJ7NUX-14U22312442022-12-07 00:48:0844.5468-122.6151465229670Clb=6.6m/s p=11.6hPa t=-58.1C h=4.4% 401.40MHz Type=RS41-SGP Details on http://radiosondy.info
WA9ONY-14U22312442022-12-07 00:47:5544.5476-122.6161345429618Clb=6.4m/s p=11.7hPa t=-57.9C h=4.2% 401.40MHz Type=RS41-SGP Join https://groups.io/g/Balloons
W7BDB-13U22312442022-12-07 00:47:5444.5477-122.6161355729613Clb=4.9m/s p=11.7hPa t=-57.9C h=4.3% 401.40MHz Type=RS41-SGP Details on http://radiosondy.info
KG7GDB-12U22312442022-12-07 00:47:5344.5478-122.6161385929606Clb=6.3m/s t=-58.0C h=0.9% p=11.7hPa 401.401 MHz Type=RS41-SGP ser=U2231244 Radiosonde
KJ7NUX-14U22312442022-12-07 00:47:4444.5485-122.6171446129567Clb=6.4m/s p=11.8hPa t=-57.8C h=4.2% 401.40MHz Type=RS41-SGP batt=2.7V Details on http://radiosondy.info
WA9ONY-14U22312442022-12-07 00:47:3944.5487-122.6171466529553Clb=6.8m/s p=11.8hPa t=-57.9C h=4.3% 401.40MHz Type=RS41-SGP batt=2.6V Join https://groups.io/g/Balloons
K6GDP-11U22312442022-12-07 00:47:3644.549-122.6171396529535Clb=7.7m/s t=-57.9C h=0.9% p=11.8hPa 401.400 MHz Type=RS41-SGP ser=U2231244 Radiosonde
W7BDB-13U22312442022-12-07 00:47:2944.5495-122.6181446529511Clb=7.2m/s p=11.8hPa t=-57.7C h=4.2% 401.40MHz Type=RS41-SGP TxPastBurst=8h30m batt=2.6V Details on http://radiosondy.info
WA9ONY-14U22312442022-12-07 00:47:2544.55-122.6181456129493Clb=5.4m/s p=11.9hPa t=-57.7C h=4.1% 401.40MHz Type=RS41-SGP Join https://groups.io/g/Balloons
KJ7NUX-14U22312442022-12-07 00:47:1844.5504-122.6191346729468Clb=5.1m/s p=11.9hPa t=-57.8C h=4.3% 401.40MHz Type=RS41-SGP Details on http://radiosondy.info
WA9ONY-14U22312442022-12-07 00:47:0844.5512-122.6191506929428Clb=5.2m/s p=12.0hPa t=-57.9C h=4.3% 401.40MHz Type=RS41-SGP Join https://groups.io/g/Balloons
W7BDB-13U22312442022-12-07 00:47:0544.5515-122.621516729416Clb=7.7m/s p=12.0hPa t=-57.9C h=4.2% 401.40MHz Type=RS41-SGP Details on http://radiosondy.info
KG7GDB-12U22312442022-12-07 00:47:0444.5516-122.621507429409Clb=5.6m/s t=-57.9C h=1.0% p=12.1hPa 401.401 MHz Type=RS41-SGP ser=U2231244 Radiosonde
KJ7NUX-14U22312442022-12-07 00:46:5144.5525-122.6211386729370Clb=6.7m/s p=12.1hPa t=-58.1C h=4.4% 401.40MHz Type=RS41-SGP Details on http://radiosondy.info
WA9ONY-14U22312442022-12-07 00:46:4944.5525-122.6211386729370Clb=6.7m/s p=12.1hPa t=-58.1C h=4.4% 401.40MHz Type=RS41-SGP TxPastBurst=8h30m batt=2.6V Join https://groups.io/g/Balloons
K6GDP-11U22312442022-12-07 00:46:4544.5531-122.6211596329344Clb=7.4m/s t=-58.2C h=1.0% p=12.2hPa 401.400 MHz Type=RS41-SGP ser=U2231244 Radiosonde
W7BDB-13U22312442022-12-07 00:46:3944.5536-122.6221536329320Clb=6.8m/s p=12.2hPa t=-58.1C h=4.3% 401.40MHz Type=RS41-SGP Details on http://radiosondy.info
WA9ONY-14U22312442022-12-07 00:46:3644.554-122.6221436329309Clb=5.0m/s p=12.2hPa t=-58.1C h=4.3% 401.40MHz Type=RS41-SGP Join https://groups.io/g/Balloons
KE7WWCU22312442022-12-07 00:46:3444.5542-122.6221366729297Clb=7.0m/s t=-58.0C h=0.9% p=12.3hPa 401.375 MHz Type=RS41-SGP ser=U2231244 Radiosonde
KJ7NUX-14U22312442022-12-07 00:46:2844.5547-122.6231535929272Clb=5.9m/s p=12.3hPa t=-57.9C h=4.1% 401.40MHz Type=RS41-SGP TxPastBurst=8h30m batt=2.7V Details on http://radiosondy.info
WA9ONY-14U22312442022-12-07 00:46:2144.5552-122.6231556329249Clb=6.3m/s p=12.3hPa t=-57.7C h=4.0% 401.40MHz Type=RS41-SGP Join https://groups.io/g/Balloons
W7BDB-13U22312442022-12-07 00:46:1744.5556-122.6231435929231Clb=7.1m/s p=12.3hPa t=-57.7C h=4.0% 401.40MHz Type=RS41-SGP batt=2.6V Details on http://radiosondy.info
KG7GDB-12U22312442022-12-07 00:46:1544.5562-122.6241305629199Clb=5.3m/s t=-58.0C h=0.9% p=12.5hPa 401.401 MHz Type=RS41-SGP ser=U2231244 Radiosonde
WA9ONY-14U22312442022-12-07 00:46:0544.5564-122.6251405729187Clb=7.0m/s p=12.5hPa t=-58.1C h=4.2% 401.40MHz Type=RS41-SGP batt=2.6V Join https://groups.io/g/Balloons
KJ7NUX-14U22312442022-12-07 00:45:5944.5568-122.6251475729160Clb=6.1m/s p=12.5hPa t=-58.4C h=4.4% 401.40MHz Type=RS41-SGP Details on http://radiosondy.info
K6GDP-11U22312442022-12-07 00:45:5844.5569-122.6251415229155Clb=4.1m/s t=-58.5C h=0.9% p=12.6hPa 401.400 MHz Type=RS41-SGP ser=U2231244 Radiosonde
WA9ONY-14U22312442022-12-07 00:45:5044.5574-122.6261205029126Clb=6.3m/s p=12.6hPa t=-58.8C h=4.3% 401.40MHz Type=RS41-SGP Join https://groups.io/g/Balloons
KE7WWCU22312442022-12-07 00:45:4744.5575-122.6261155229112Clb=6.1m/s t=-58.9C h=0.9% p=12.7hPa 401.375 MHz Type=RS41-SGP ser=U2231244 Radiosonde
KJ7NUX-14U22312442022-12-07 00:45:3644.5582-122.6271355629062Clb=5.4m/s p=12.7hPa t=-58.9C h=4.3% 401.40MHz Type=RS41-SGP Details on http://radiosondy.info
WA9ONY-14U22312442022-12-07 00:45:3544.5582-122.6271355629062Clb=5.4m/s p=12.7hPa t=-58.9C h=4.3% 401.40MHz Type=RS41-SGP Join https://groups.io/g/Balloons
W7BDB-13U22312442022-12-07 00:45:3144.5585-122.6281285729042Clb=6.2m/s p=12.8hPa t=-58.8C h=4.4% 401.40MHz Type=RS41-SGP Details on http://radiosondy.info
KG7GDB-12U22312442022-12-07 00:45:2844.5586-122.6281255629029Clb=7.8m/s t=-58.8C h=0.8% p=12.8hPa 401.401 MHz Type=RS41-SGP ser=U2231244 Radiosonde
WA9ONY-14U22312442022-12-07 00:45:1944.5591-122.6291415928997Clb=6.0m/s p=12.8hPa t=-58.7C h=4.1% 401.40MHz Type=RS41-SGP batt=2.6V Join https://groups.io/g/Balloons
KJ7NUX-14U22312442022-12-07 00:45:1044.5598-122.6291386328956Clb=6.8m/s p=12.9hPa t=-59.1C h=4.3% 401.40MHz Type=RS41-SGP batt=2.6V Details on http://radiosondy.info
W7BDB-13U22312442022-12-07 00:45:0744.56-122.631326328945Clb=5.5m/s p=13.0hPa t=-59.1C h=4.4% 401.40MHz Type=RS41-SGP batt=2.7V Details on http://radiosondy.info
WA9ONY-14U22312442022-12-07 00:45:0444.5602-122.631296128931Clb=6.7m/s p=13.0hPa t=-59.2C h=4.4% 401.40MHz Type=RS41-SGP Join https://groups.io/g/Balloons
KE7WWCU22312442022-12-07 00:45:0044.5606-122.6311376328904Clb=6.4m/s t=-59.2C h=0.9% p=13.1hPa 401.375 MHz Type=RS41-SGP ser=U2231244 Radiosonde
WA9ONY-14U22312442022-12-07 00:44:5044.5613-122.6311446728864Clb=7.9m/s p=13.1hPa t=-59.5C h=4.6% 401.40MHz Type=RS41-SGP Join https://groups.io/g/Balloons
KJ7NUX-14U22312442022-12-07 00:44:4844.5616-122.6321366528850Clb=6.0m/s p=13.2hPa t=-59.6C h=4.5% 401.40MHz Type=RS41-SGP Details on http://radiosondy.info
W7BDB-13U22312442022-12-07 00:44:4544.5618-122.6321336328837Clb=7.7m/s p=13.2hPa t=-59.6C h=4.4% 401.40MHz Type=RS41-SGP Details on http://radiosondy.info
KG7GDB-12U22312442022-12-07 00:44:4144.5624-122.6331357028803Clb=6.3m/s t=-59.9C h=1.0% p=13.3hPa 401.401 MHz Type=RS41-SGP ser=U2231244 Radiosonde
WA9ONY-14U22312442022-12-07 00:44:3544.5625-122.6331366128797Clb=5.9m/s p=13.3hPa t=-59.9C h=4.6% 401.40MHz Type=RS41-SGP TxPastBurst=8h30m batt=2.6V Join https://groups.io/g/Balloons
K6GDP-11U22312442022-12-07 00:44:2644.5632-122.6341275928748Clb=5.6m/s t=-60.3C h=1.1% p=13.4hPa 401.400 MHz Type=RS41-SGP ser=U2231244 Radiosonde
KJ7NUX-14U22312442022-12-07 00:44:2444.5633-122.6341315728742Clb=5.6m/s p=13.3hPa t=-60.3C h=4.7% 401.40MHz Type=RS41-SGP Details on http://radiosondy.info
W7BDB-12U22312442022-12-07 00:44:2044.5638-122.6351415728707Clb=8.0m/s t=-60.2C h=1.0% p=13.5hPa 401.399 MHz Type=RS41-SGP ser=U2231244 Radiosonde
KE7WWCU22312442022-12-07 00:44:1444.564-122.6351365728693Clb=6.8m/s t=-60.1C h=1.0% p=13.5hPa 401.375 MHz Type=RS41-SGP ser=U2231244 Radiosonde
WA9ONY-14U22312442022-12-07 00:44:0744.5645-122.6361305928659Clb=8.1m/s p=13.6hPa t=-59.9C h=4.6% 401.40MHz Type=RS41-SGP Join https://groups.io/g/Balloons
KJ7NUX-14U22312442022-12-07 00:44:0244.5649-122.6371335628629Clb=7.1m/s p=13.6hPa t=-60.0C h=4.8% 401.40MHz Type=RS41-SGP batt=2.6V Details on http://radiosondy.info
W7BDB-13U22312442022-12-07 00:44:0044.565-122.6371325628623Clb=6.1m/s p=13.6hPa t=-60.0C h=4.9% 401.40MHz Type=RS41-SGP TxPastBurst=8h30m batt=2.6V Details on http://radiosondy.info
KG7GDB-12U22312442022-12-07 00:43:5844.5652-122.6371305928608Clb=8.2m/s t=-60.0C h=1.0% p=13.7hPa 401.401 MHz Type=RS41-SGP ser=U2231244 Radiosonde
WA9ONY-14U22312442022-12-07 00:43:5544.5655-122.6381315628587Clb=8.6m/s p=13.7hPa t=-59.9C h=4.7% 401.40MHz Type=RS41-SGP batt=2.7V Join https://groups.io/g/Balloons
K6GDP-11U22312442022-12-07 00:43:4844.5661-122.6391175228527Clb=6.1m/s t=-59.6C h=0.8% p=13.9hPa 401.400 MHz Type=RS41-SGP ser=U2231244 Radiosonde
KJ7NUX-14U22312442022-12-07 00:43:4544.5662-122.6391195428512Clb=8.4m/s p=13.8hPa t=-59.5C h=4.3% 401.40MHz Type=RS41-SGP Details on http://radiosondy.info
W7BDB-13U22312442022-12-07 00:43:4444.5663-122.6391205428504Clb=6.3m/s p=13.9hPa t=-59.5C h=4.5% 401.40MHz Type=RS41-SGP Details on http://radiosondy.info
KE7WWCU22312442022-12-07 00:43:4044.5667-122.641264828469Clb=7.3m/s t=-59.6C h=0.9% p=14.0hPa 401.375 MHz Type=RS41-SGP ser=U2231244 Radiosonde
WA9ONY-14U22312442022-12-07 00:43:3544.567-122.6411275628441Clb=7.6m/s p=14.0hPa t=-59.7C h=4.4% 401.40MHz Type=RS41-SGP Join https://groups.io/g/Balloons
KJ7NUX-14U22312442022-12-07 00:43:3044.5673-122.6421125628397Clb=5.8m/s p=14.1hPa t=-59.8C h=4.3% 401.40MHz Type=RS41-SGP Details on http://radiosondy.info
W7BDB-13U22312442022-12-07 00:43:2844.5674-122.6421135428390Clb=7.3m/s p=14.1hPa t=-59.9C h=4.4% 401.40MHz Type=RS41-SGP Details on http://radiosondy.info
KG7GDB-12U22312442022-12-07 00:43:2744.5675-122.6421175428374Clb=7.1m/s t=-59.9C h=0.9% p=14.2hPa 401.401 MHz Type=RS41-SGP ser=U2231244 Radiosonde
WA9ONY-14U22312442022-12-07 00:43:2544.5676-122.6421235228368Clb=7.1m/s p=14.2hPa t=-59.9C h=4.6% 401.40MHz Type=RS41-SGP batt=2.6V Join https://groups.io/g/Balloons
K6GDP-11U22312442022-12-07 00:43:1744.5681-122.6441045728299Clb=6.6m/s t=-60.3C h=1.1% p=14.4hPa 401.400 MHz Type=RS41-SGP ser=U2231244 Radiosonde
WA9ONY-14U22312442022-12-07 00:43:1544.5681-122.6441065428293Clb=5.7m/s p=14.3hPa t=-60.3C h=4.8% 401.40MHz Type=RS41-SGP Join https://groups.io/g/Balloons
KJ7NUX-14U22312442022-12-07 00:43:1344.5682-122.6441114828279Clb=7.5m/s p=14.4hPa t=-60.3C h=4.7% 401.40MHz Type=RS41-SGP TxPastBurst=8h30m batt=2.7V Details on http://radiosondy.info
WA9ONY-14U22312442022-12-07 00:43:0544.5687-122.6461224828222Clb=5.8m/s p=14.5hPa t=-60.2C h=4.7% 401.40MHz Type=RS41-SGP Join https://groups.io/g/Balloons
KJ7NUX-14U22312442022-12-07 00:42:5844.5691-122.6471165428165Clb=6.1m/s p=14.6hPa t=-59.9C h=4.6% 401.40MHz Type=RS41-SGP Details on http://radiosondy.info
W7BDB-13U22312442022-12-07 00:42:5644.5691-122.6471155428158Clb=8.4m/s p=14.6hPa t=-59.8C h=4.7% 401.40MHz Type=RS41-SGP Details on http://radiosondy.info
WA9ONY-14U22312442022-12-07 00:42:5544.5692-122.6471145228150Clb=6.7m/s p=14.7hPa t=-59.8C h=4.8% 401.40MHz Type=RS41-SGP TxPastBurst=8h30m batt=2.6V Join https://groups.io/g/Balloons
K6GDP-11U22312442022-12-07 00:42:4644.5695-122.6491045428080Clb=8.3m/s t=-59.9C h=1.0% p=14.9hPa 401.400 MHz Type=RS41-SGP ser=U2231244 Radiosonde
WA9ONY-14U22312442022-12-07 00:42:4544.5695-122.6491055928080Clb=8.3m/s p=14.8hPa t=-59.8C h=4.7% 401.40MHz Type=RS41-SGP Join https://groups.io/g/Balloons
KJ7NUX-14U22312442022-12-07 00:42:4344.5697-122.651146528051Clb=8.0m/s p=14.9hPa t=-59.7C h=4.6% 401.40MHz Type=RS41-SGP Details on http://radiosondy.info
W7BDB-13U22312442022-12-07 00:42:4244.5698-122.651156728044Clb=6.2m/s p=14.9hPa t=-59.6C h=4.5% 401.40MHz Type=RS41-SGP Details on http://radiosondy.info
KE7WWCU22312442022-12-07 00:42:4144.57-122.651085628023Clb=6.1m/s t=-59.5C h=0.9% p=15.0hPa 401.375 MHz Type=RS41-SGP ser=U2231244 Radiosonde
WA9ONY-14U22312442022-12-07 00:42:3944.5701-122.6511016928011Clb=7.5m/s p=15.0hPa t=-59.4C h=4.7% 401.40MHz Type=RS41-SGP Join https://groups.io/g/Balloons
KJ7NUX-14U22312442022-12-07 00:42:2844.5706-122.6531157027940Clb=7.5m/s p=15.2hPa t=-59.3C h=4.5% 401.40MHz Type=RS41-SGP batt=2.6V Details on http://radiosondy.info
W7BDB-13U22312442022-12-07 00:42:2744.5706-122.6531137027933Clb=7.4m/s p=15.2hPa t=-59.3C h=4.6% 401.40MHz Type=RS41-SGP batt=2.7V Details on http://radiosondy.info
WA9ONY-14U22312442022-12-07 00:42:1844.5711-122.6551156727873Clb=5.6m/s p=15.3hPa t=-59.1C h=4.6% 401.40MHz Type=RS41-SGP Join https://groups.io/g/Balloons
K6GDP-11U22312442022-12-07 00:42:1744.5712-122.6561137427868Clb=5.8m/s t=-59.1C h=1.0% p=15.4hPa 401.400 MHz Type=RS41-SGP ser=U2231244 Radiosonde
KJ7NUX-14U22312442022-12-07 00:42:1044.5714-122.657996727835Clb=8.3m/s p=15.4hPa t=-58.9C h=4.4% 401.40MHz Type=RS41-SGP Details on http://radiosondy.info
W7BDB-13U22312442022-12-07 00:42:0844.5714-122.657966727827Clb=6.2m/s p=15.4hPa t=-58.8C h=4.4% 401.40MHz Type=RS41-SGP Details on http://radiosondy.info
KE7WWCU22312442022-12-07 00:42:0744.5714-122.657935927815Clb=7.4m/s t=-58.9C h=0.9% p=15.5hPa 401.375 MHz Type=RS41-SGP ser=U2231244 Radiosonde
WA9ONY-14U22312442022-12-07 00:42:0544.5715-122.658967027808Clb=6.5m/s p=15.5hPa t=-58.8C h=4.2% 401.40MHz Type=RS41-SGP Join https://groups.io/g/Balloons
WA9ONY-14U22312442022-12-07 00:41:5744.5719-122.661086127745Clb=7.2m/s p=15.6hPa t=-59.4C h=4.6% 401.40MHz Type=RS41-SGP batt=2.7V Join https://groups.io/g/Balloons
K6GDP-11U22312442022-12-07 00:41:5644.5721-122.662946727669Clb=5.6m/s t=-59.2C h=1.0% p=15.9hPa 401.400 MHz Type=RS41-SGP ser=U2231244 Radiosonde
KG7GDB-12U22312442022-12-07 00:41:5544.5724-122.667855427537Clb=5.2m/s t=-58.9C h=0.9% p=16.2hPa 401.401 MHz Type=RS41-SGP ser=U2231244 Radiosonde
K6GDP-11U22312442022-12-07 00:41:5444.5724-122.669915427474Clb=5.0m/s t=-58.3C h=0.9% p=16.4hPa 401.400 MHz Type=RS41-SGP ser=U2231244 Radiosonde
W7BDB-12U22312442022-12-07 00:41:5344.5724-122.67995427438Clb=7.5m/s t=-58.0C h=0.9% p=16.4hPa 401.399 MHz Type=RS41-SGP ser=U2231244 Radiosonde
WA9ONY-14U22312442022-12-07 00:41:5244.5724-122.671035427432Clb=5.8m/s p=16.4hPa t=-57.9C h=4.2% 401.40MHz Type=RS41-SGP Join https://groups.io/g/Balloons
WA9ONY-14U22312442022-12-07 00:41:5044.5724-122.672885027369Clb=6.4m/s p=16.6hPa t=-58.1C h=4.1% 401.40MHz Type=RS41-SGP batt=2.6V Join https://groups.io/g/Balloons
KG7GDB-12U22312442022-12-07 00:41:4944.5724-122.6731035227344Clb=5.8m/s t=-58.2C h=0.9% p=16.7hPa 401.401 MHz Type=RS41-SGP ser=U2231244 Radiosonde
WA9ONY-14U22312442022-12-07 00:41:4844.5725-122.674823727308Clb=6.8m/s p=16.7hPa t=-58.2C h=4.4% 401.40MHz Type=RS41-SGP Join https://groups.io/g/Balloons
K6GDP-11U22312442022-12-07 00:41:4744.5724-122.674783927283Clb=5.6m/s t=-58.3C h=0.7% p=16.9hPa 401.400 MHz Type=RS41-SGP ser=U2231244 Radiosonde
W7BDB-13U22312442022-12-07 00:41:4544.5724-122.675944127246Clb=7.2m/s p=16.9hPa t=-58.4C h=4.2% 401.40MHz Type=RS41-SGP Details on http://radiosondy.info
KE7WWCU22312442022-12-07 00:41:4444.5724-122.675763027233Clb=4.9m/s t=-58.5C h=0.9% p=17.0hPa 401.375 MHz Type=RS41-SGP ser=U2231244 Radiosonde
WA9ONY-14U22312442022-12-07 00:41:4244.5723-122.676894127181Clb=8.0m/s p=17.1hPa t=-58.7C h=4.5% 401.40MHz Type=RS41-SGP batt=2.7V Join https://groups.io/g/Balloons
KG7GDB-12U22312442022-12-07 00:41:4144.5723-122.677813727149Clb=6.0m/s t=-58.5C h=0.8% p=17.2hPa 401.401 MHz Type=RS41-SGP ser=U2231244 Radiosonde
WA9ONY-14U22312442022-12-07 00:41:3944.5722-122.678704327117Clb=7.0m/s p=17.3hPa t=-58.2C h=4.3% 401.40MHz Type=RS41-SGP Join https://groups.io/g/Balloons
K6GDP-11U22312442022-12-07 00:41:3844.5721-122.678944627085Clb=6.2m/s t=-58.0C h=0.9% p=17.4hPa 401.400 MHz Type=RS41-SGP ser=U2231244 Radiosonde
WA9ONY-14U22312442022-12-07 00:41:3544.5721-122.679743127056Clb=5.6m/s p=17.4hPa t=-57.9C h=4.0% 401.40MHz Type=RS41-SGP Join https://groups.io/g/Balloons
KE7WWCU22312442022-12-07 00:41:3444.572-122.679702627036Clb=5.6m/s t=-58.2C h=0.7% p=17.6hPa 401.375 MHz Type=RS41-SGP ser=U2231244 Radiosonde
K6GDP-11U22312442022-12-07 00:41:3344.572-122.6821182626887Clb=7.3m/s t=-59.2C h=0.9% p=17.9hPa 401.400 MHz Type=RS41-SGP ser=U2231244 Radiosonde
KG7GDB-12U22312442022-12-07 00:41:3244.5725-122.683963126754Clb=7.4m/s t=-60.7C h=1.0% p=18.3hPa 401.401 MHz Type=RS41-SGP ser=U2231244 Radiosonde
KE7WWCU22312442022-12-07 00:41:3144.5727-122.686923926636Clb=6.2m/s t=-60.4C h=1.1% p=18.7hPa 401.375 MHz Type=RS41-SGP ser=U2231244 Radiosonde
KG7GDB-12U22312442022-12-07 00:41:3044.5726-122.687863526552Clb=6.3m/s t=-59.9C h=1.2% p=18.9hPa 401.401 MHz Type=RS41-SGP ser=U2231244 Radiosonde
W7BDB-13U22312442022-12-07 00:41:2944.5723-122.69775426441Clb=7.3m/s p=19.2hPa t=-60.0C h=4.7% 401.40MHz Type=RS41-SGP batt=2.6V Details on http://radiosondy.info
KG7GDB-12U22312442022-12-07 00:41:2844.572-122.692734826345Clb=5.5m/s t=-59.9C h=0.9% p=19.6hPa 401.401 MHz Type=RS41-SGP ser=U2231244 Radiosonde
KE7WWCU22312442022-12-07 00:41:2744.5718-122.696945226228Clb=6.5m/s t=-60.1C h=1.0% p=19.9hPa 401.375 MHz Type=RS41-SGP ser=U2231244 Radiosonde
KJ7NUX-14U22312442022-12-07 00:41:2644.572-122.699935626087Clb=7.6m/s p=20.3hPa t=-59.3C h=4.7% 401.40MHz Type=RS41-SGP batt=2.7V Details on http://radiosondy.info
KJ7NUX-14U22312442022-12-07 00:41:2544.572-122.702894825984Clb=7.8m/s p=20.6hPa t=-58.5C h=4.6% 401.40MHz Type=RS41-SGP Details on http://radiosondy.info
KJ7NUX-14U22312442022-12-07 00:41:2444.572-122.7051024125876Clb=8.2m/s p=21.0hPa t=-57.6C h=4.1% 401.40MHz Type=RS41-SGP Details on http://radiosondy.info
KG7GDB-12U22312442022-12-07 00:41:2344.5723-122.7081114625741Clb=5.5m/s t=-57.4C h=1.0% p=21.5hPa 401.401 MHz Type=RS41-SGP ser=U2231244 Radiosonde
W7BDB-13U22312442022-12-07 00:41:2244.573-122.711213725635Clb=5.2m/s p=21.8hPa t=-57.1C h=3.8% 401.40MHz Type=RS41-SGP Details on http://radiosondy.info
KJ7NUX-14U22312442022-12-07 00:41:2144.5735-122.7111423725570Clb=6.4m/s p=22.0hPa t=-57.9C h=3.9% 401.40MHz Type=RS41-SGP Details on http://radiosondy.info
WA9ONY-14U22312442022-12-07 00:41:2044.5736-122.7111403725563Clb=7.2m/s p=22.0hPa t=-57.9C h=4.0% 401.40MHz Type=RS41-SGP Join https://groups.io/g/Balloons
KG7GDB-12U22312442022-12-07 00:41:1844.5739-122.7111424125537Clb=5.7m/s t=-58.5C h=0.8% p=22.2hPa 401.401 MHz Type=RS41-SGP ser=U2231244 Radiosonde
W7BDB-13U22312442022-12-07 00:41:1744.5739-122.7111434125537Clb=5.6m/s p=22.1hPa t=-58.5C h=4.0% 401.40MHz Type=RS41-SGP batt=2.7V Details on http://radiosondy.info
WA9ONY-14U22312442022-12-07 00:41:1144.5743-122.7121434425498Clb=6.2m/s p=22.3hPa t=-59.2C h=4.3% 401.40MHz Type=RS41-SGP Join https://groups.io/g/Balloons
K6GDP-11U22312442022-12-07 00:41:0844.5746-122.7121324125474Clb=5.3m/s t=-59.5C h=1.0% p=22.4hPa 401.400 MHz Type=RS41-SGP ser=U2231244 Radiosonde
KJ7NUX-14U22312442022-12-07 00:41:0644.5746-122.7121344625468Clb=6.9m/s p=22.3hPa t=-59.5C h=4.4% 401.40MHz Type=RS41-SGP TxPastBurst=8h30m batt=2.7V Details on http://radiosondy.info
W7BDB-13U22312442022-12-07 00:40:5944.575-122.7131284425440Clb=6.2m/s p=22.5hPa t=-59.6C h=4.5% 401.40MHz Type=RS41-SGP Details on http://radiosondy.info
WA9ONY-14U22312442022-12-07 00:40:5744.575-122.7131284425434Clb=5.1m/s p=22.5hPa t=-59.6C h=4.5% 401.40MHz Type=RS41-SGP batt=2.7V Join https://groups.io/g/Balloons
KE7WWCU22312442022-12-07 00:40:5644.5751-122.7131295025428Clb=7.0m/s t=-59.7C h=1.0% p=22.6hPa 401.375 MHz Type=RS41-SGP ser=U2231244 Radiosonde
WA9ONY-14U22312442022-12-07 00:40:4344.5757-122.7141284125374Clb=5.5m/s p=22.7hPa t=-59.6C h=4.4% 401.40MHz Type=RS41-SGP Join https://groups.io/g/Balloons
KJ7NUX-14U22312442022-12-07 00:40:4144.5758-122.7141253925368Clb=7.1m/s p=22.7hPa t=-59.5C h=4.5% 401.40MHz Type=RS41-SGP Details on http://radiosondy.info
KG7GDB-12U22312442022-12-07 00:40:3744.576-122.7151314325349Clb=7.4m/s t=-59.5C h=0.9% p=22.8hPa 401.401 MHz Type=RS41-SGP ser=U2231244 Radiosonde
W7BDB-13U22312442022-12-07 00:40:3544.576-122.7151333725343Clb=5.2m/s p=22.8hPa t=-59.5C h=4.5% 401.40MHz Type=RS41-SGP Details on http://radiosondy.info
WA9ONY-14U22312442022-12-07 00:40:2744.5763-122.7151213925312Clb=7.1m/s p=22.9hPa t=-59.5C h=4.4% 401.40MHz Type=RS41-SGP Join https://groups.io/g/Balloons
K6GDP-11U22312442022-12-07 00:40:2044.5765-122.7161133125282Clb=5.5m/s t=-59.9C h=1.0% p=23.1hPa 401.400 MHz Type=RS41-SGP ser=U2231244 Radiosonde
KJ7NUX-14U22312442022-12-07 00:40:1544.5766-122.7161223525270Clb=6.8m/s p=23.1hPa t=-59.9C h=4.6% 401.40MHz Type=RS41-SGP Details on http://radiosondy.info
W7BDB-13U22312442022-12-07 00:40:0944.5768-122.7171183525247Clb=5.7m/s p=23.2hPa t=-59.8C h=4.5% 401.40MHz Type=RS41-SGP batt=2.7V Details on http://radiosondy.info
KE7WWCU22312442022-12-07 00:40:0644.5768-122.7171133125240Clb=5.3m/s t=-59.9C h=1.0% p=23.2hPa 401.375 MHz Type=RS41-SGP ser=U2231244 Radiosonde
KJ7NUX-14U22312442022-12-07 00:39:5244.5772-122.7181233925172Clb=6.9m/s p=23.4hPa t=-60.0C h=4.6% 401.40MHz Type=RS41-SGP batt=2.7V Details on http://radiosondy.info
KG7GDB-12U22312442022-12-07 00:39:4844.5773-122.7181253925161Clb=5.6m/s t=-60.1C h=1.1% p=23.6hPa 401.401 MHz Type=RS41-SGP ser=U2231244 Radiosonde
W7BDB-13U22312442022-12-07 00:39:4644.5774-122.7181283725148Clb=5.5m/s p=23.5hPa t=-60.1C h=4.6% 401.40MHz Type=RS41-SGP Details on http://radiosondy.info
WA9ONY-14U22312442022-12-07 00:39:3444.5778-122.7191223325100Clb=6.7m/s p=23.7hPa t=-60.0C h=4.4% 401.40MHz Type=RS41-SGP TxPastBurst=8h30m batt=2.6V Join https://groups.io/g/Balloons
K6GDP-11U22312442022-12-07 00:39:3344.5778-122.7191214125094Clb=6.8m/s t=-60.0C h=0.9% p=23.8hPa 401.400 MHz Type=RS41-SGP ser=U2231244 Radiosonde
KJ7NUX-14U22312442022-12-07 00:39:2744.578-122.721353025076Clb=6.5m/s p=23.8hPa t=-60.1C h=4.5% 401.40MHz Type=RS41-SGP Details on http://radiosondy.info
W7BDB-12U22312442022-12-07 00:39:2544.5782-122.721122625059Clb=7.4m/s t=-60.2C h=1.1% p=23.9hPa 401.399 MHz Type=RS41-SGP ser=U2231244 Radiosonde
W7BDB-13U22312442022-12-07 00:39:2144.5782-122.721012625052Clb=6.3m/s p=23.9hPa t=-60.2C h=4.7% 401.40MHz Type=RS41-SGP Details on http://radiosondy.info
WA9ONY-14U22312442022-12-07 00:39:1744.5782-122.72993025040Clb=6.6m/s p=23.9hPa t=-60.3C h=4.6% 401.40MHz Type=RS41-SGP Join https://groups.io/g/Balloons
WA9ONY-14U22312442022-12-07 00:39:0344.5785-122.7211692224983Clb=5.5m/s p=24.2hPa t=-60.4C h=4.5% 401.40MHz Type=RS41-SGP Join https://groups.io/g/Balloons
KG7GDB-12U22312442022-12-07 00:39:0144.5785-122.7211451124976Clb=5.8m/s t=-60.4C h=1.0% p=24.3hPa 401.401 MHz Type=RS41-SGP ser=U2231244 Radiosonde
W7BDB-13U22312442022-12-07 00:38:5944.5786-122.7211072424966Clb=5.6m/s p=24.2hPa t=-60.4C h=4.7% 401.40MHz Type=RS41-SGP TxPastBurst=8h30m batt=2.7V Details on http://radiosondy.info
WA9ONY-14U22312442022-12-07 00:38:4944.5788-122.7221262424924Clb=4.9m/s p=24.4hPa t=-61.0C h=4.7% 401.40MHz Type=RS41-SGP batt=2.7V Join https://groups.io/g/Balloons
K6GDP-11U22312442022-12-07 00:38:4544.5788-122.7221572424911Clb=6.3m/s t=-61.2C h=1.1% p=24.5hPa 401.400 MHz Type=RS41-SGP ser=U2231244 Radiosonde
KJ7NUX-14U22312442022-12-07 00:38:3944.5791-122.7221503124888Clb=5.2m/s p=24.5hPa t=-61.3C h=5.0% 401.40MHz Type=RS41-SGP batt=2.7V Details on http://radiosondy.info
KE7WWCU22312442022-12-07 00:38:3444.5792-122.7221143324869Clb=5.7m/s t=-61.1C h=1.1% p=24.6hPa 401.375 MHz Type=RS41-SGP ser=U2231244 Radiosonde
WA9ONY-14U22312442022-12-07 00:38:3344.5792-122.7221093724862Clb=7.9m/s p=24.6hPa t=-61.0C h=5.0% 401.40MHz Type=RS41-SGP Join https://groups.io/g/Balloons
WA9ONY-14U22312442022-12-07 00:38:1844.5797-122.7231304124800Clb=6.9m/s p=24.9hPa t=-60.5C h=4.7% 401.40MHz Type=RS41-SGP Join https://groups.io/g/Balloons
KJ7NUX-14U22312442022-12-07 00:38:1544.5798-122.7231163724790Clb=4.3m/s p=24.9hPa t=-60.4C h=4.6% 401.40MHz Type=RS41-SGP Details on http://radiosondy.info
KG7GDB-12U22312442022-12-07 00:38:1444.5798-122.7231153724790Clb=4.3m/s t=-60.5C h=1.0% p=25.0hPa 401.401 MHz Type=RS41-SGP ser=U2231244 Radiosonde
W7BDB-13U22312442022-12-07 00:38:0944.5799-122.7241103724771Clb=4.3m/s p=25.0hPa t=-60.3C h=4.7% 401.40MHz Type=RS41-SGP Details on http://radiosondy.info
WA9ONY-14U22312442022-12-07 00:38:0144.5802-122.7251333124744Clb=6.9m/s p=25.1hPa t=-60.1C h=4.7% 401.40MHz Type=RS41-SGP batt=2.6V Join https://groups.io/g/Balloons
K6GDP-11U22312442022-12-07 00:37:5644.5804-122.7251302624726Clb=6.9m/s t=-60.2C h=0.9% p=25.2hPa 401.400 MHz Type=RS41-SGP ser=U2231244 Radiosonde
KJ7NUX-14U22312442022-12-07 00:37:4844.5805-122.7251054424695Clb=5.5m/s p=25.3hPa t=-60.1C h=4.5% 401.40MHz Type=RS41-SGP Details on http://radiosondy.info
WA9ONY-14U22312442022-12-07 00:37:4444.5806-122.7251154424683Clb=7.2m/s p=25.3hPa t=-60.2C h=4.4% 401.40MHz Type=RS41-SGP Join https://groups.io/g/Balloons
W7BDB-13U22312442022-12-07 00:37:4344.5807-122.7261194124676Clb=5.3m/s p=25.4hPa t=-60.2C h=4.5% 401.40MHz Type=RS41-SGP batt=2.6V Details on http://radiosondy.info
WA9ONY-14U22312442022-12-07 00:37:2844.5811-122.7271204124625Clb=6.2m/s p=25.6hPa t=-60.6C h=4.9% 401.40MHz Type=RS41-SGP Join https://groups.io/g/Balloons
KG7GDB-12U22312442022-12-07 00:37:2244.5812-122.7271153124608Clb=5.0m/s t=-60.5C h=1.0% p=25.7hPa 401.401 MHz Type=RS41-SGP ser=U2231244 Radiosonde
KJ7NUX-14U22312442022-12-07 00:37:2144.5812-122.7271204324602Clb=6.6m/s p=25.7hPa t=-60.4C h=4.7% 401.40MHz Type=RS41-SGP TxPastBurst=8h30m batt=2.6V Details on http://radiosondy.info
W7BDB-13U22312442022-12-07 00:37:1644.5814-122.7281194124584Clb=6.9m/s p=25.8hPa t=-60.3C h=4.8% 401.40MHz Type=RS41-SGP Details on http://radiosondy.info
WA9ONY-14U22312442022-12-07 00:37:1144.5816-122.7281283124567Clb=6.7m/s p=25.8hPa t=-60.2C h=4.8% 401.40MHz Type=RS41-SGP TxPastBurst=8h30m batt=2.6V Join https://groups.io/g/Balloons
K6GDP-11U22312442022-12-07 00:37:0344.5818-122.7281402224541Clb=6.6m/s t=-60.2C h=1.2% p=26.0hPa 401.400 MHz Type=RS41-SGP ser=U2231244 Radiosonde
WA9ONY-14U22312442022-12-07 00:36:5244.5821-122.7291114124506Clb=6.2m/s p=26.1hPa t=-59.9C h=4.7% 401.40MHz Type=RS41-SGP Join https://groups.io/g/Balloons
KE7WWCU22312442022-12-07 00:36:5144.5822-122.7291165424493Clb=6.9m/s t=-59.8C h=0.9% p=26.2hPa 401.375 MHz Type=RS41-SGP ser=U2231244 Radiosonde
W7BDB-13U22312442022-12-07 00:36:4844.5822-122.7291213724487Clb=4.7m/s p=26.1hPa t=-59.7C h=4.6% 401.40MHz Type=RS41-SGP Details on http://radiosondy.info
WA9ONY-14U22312442022-12-07 00:36:3744.5826-122.731554124448Clb=5.0m/s p=26.3hPa t=-59.4C h=4.8% 401.40MHz Type=RS41-SGP Join https://groups.io/g/Balloons
KG7GDB-12U22312442022-12-07 00:36:3044.5828-122.731134124425Clb=6.5m/s t=-59.1C h=0.9% p=26.5hPa 401.401 MHz Type=RS41-SGP ser=U2231244 Radiosonde
KJ7NUX-14U22312442022-12-07 00:36:2944.5828-122.731153124419Clb=7.2m/s p=26.4hPa t=-59.0C h=4.5% 401.40MHz Type=RS41-SGP Details on http://radiosondy.info
W7BDB-13U22312442022-12-07 00:36:2444.583-122.7311173524401Clb=6.0m/s p=26.5hPa t=-59.0C h=4.4% 401.40MHz Type=RS41-SGP batt=2.6V Details on http://radiosondy.info
WA9ONY-14U22312442022-12-07 00:36:2144.5831-122.7311283024390Clb=5.8m/s p=26.6hPa t=-58.9C h=4.4% 401.40MHz Type=RS41-SGP batt=2.6V Join https://groups.io/g/Balloons
K6GDP-11U22312442022-12-07 00:36:1244.5834-122.7321361724357Clb=5.7m/s t=-58.7C h=0.9% p=26.8hPa 401.400 MHz Type=RS41-SGP ser=U2231244 Radiosonde
KJ7NUX-14U22312442022-12-07 00:36:0444.5836-122.7321214124328Clb=7.2m/s p=26.8hPa t=-58.5C h=4.3% 401.40MHz Type=RS41-SGP batt=2.7V Details on http://radiosondy.info
WA9ONY-14U22312442022-12-07 00:36:0344.5836-122.7321214324328Clb=7.2m/s p=26.8hPa t=-58.5C h=4.3% 401.40MHz Type=RS41-SGP Join https://groups.io/g/Balloons
KE7WWCU22312442022-12-07 00:36:0044.5838-122.7321334824312Clb=5.6m/s t=-58.4C h=0.9% p=26.9hPa 401.375 MHz Type=RS41-SGP ser=U2231244 Radiosonde
W7BDB-13U22312442022-12-07 00:35:5844.5838-122.7321344124312Clb=5.6m/s p=26.8hPa t=-58.3C h=4.3% 401.40MHz Type=RS41-SGP Details on http://radiosondy.info
WA9ONY-14U22312442022-12-07 00:35:4844.5844-122.7331534324269Clb=5.3m/s p=27.1hPa t=-58.1C h=4.1% 401.40MHz Type=RS41-SGP Join https://groups.io/g/Balloons
KG7GDB-12U22312442022-12-07 00:35:4044.5848-122.7331424424232Clb=4.0m/s t=-58.1C h=0.9% p=27.3hPa 401.401 MHz Type=RS41-SGP ser=U2231244 Radiosonde
KJ7NUX-14U22312442022-12-07 00:35:3944.5848-122.7331434424232Clb=4.0m/s p=27.2hPa t=-58.0C h=4.1% 401.40MHz Type=RS41-SGP Details on http://radiosondy.info
W7BDB-13U22312442022-12-07 00:35:3644.585-122.7331574624221Clb=7.8m/s p=27.3hPa t=-58.0C h=4.1% 401.40MHz Type=RS41-SGP Details on http://radiosondy.info
WA9ONY-14U22312442022-12-07 00:35:3044.5854-122.7341704124203Clb=5.5m/s p=27.3hPa t=-58.1C h=3.9% 401.40MHz Type=RS41-SGP batt=2.6V Join https://groups.io/g/Balloons
K6GDP-11U22312442022-12-07 00:35:2144.5858-122.7341404124173Clb=5.8m/s t=-58.8C h=0.9% p=27.5hPa 401.400 MHz Type=RS41-SGP ser=U2231244 Radiosonde
WA9ONY-14U22312442022-12-07 00:35:1444.5863-122.7341655724143Clb=5.3m/s p=27.6hPa t=-59.2C h=4.4% 401.40MHz Type=RS41-SGP Join https://groups.io/g/Balloons
KJ7NUX-14U22312442022-12-07 00:35:1244.5864-122.7341665924137Clb=7.5m/s p=27.6hPa t=-59.2C h=4.4% 401.40MHz Type=RS41-SGP Details on http://radiosondy.info
KE7WWCU22312442022-12-07 00:35:1044.5867-122.7341666324124Clb=5.3m/s t=-59.3C h=1.0% p=27.7hPa 401.375 MHz Type=RS41-SGP ser=U2231244 Radiosonde
W7BDB-13U22312442022-12-07 00:35:0944.5867-122.7341676324124Clb=5.3m/s p=27.7hPa t=-59.3C h=4.4% 401.40MHz Type=RS41-SGP TxPastBurst=8h30m batt=2.6V Details on http://radiosondy.info
WA9ONY-14U22312442022-12-07 00:34:5944.5877-122.7351586724083Clb=4.7m/s p=27.9hPa t=-59.2C h=4.4% 401.40MHz Type=RS41-SGP Join https://groups.io/g/Balloons
KG7GDB-12U22312442022-12-07 00:34:5144.5886-122.7351637024050Clb=5.0m/s t=-59.3C h=0.9% p=28.1hPa 401.401 MHz Type=RS41-SGP ser=U2231244 Radiosonde
KJ7NUX-14U22312442022-12-07 00:34:5044.5886-122.7351646724050Clb=4.9m/s p=28.0hPa t=-59.3C h=4.4% 401.40MHz Type=RS41-SGP batt=2.6V Details on http://radiosondy.info
W7BDB-13U22312442022-12-07 00:34:4744.589-122.7351696724037Clb=7.4m/s p=28.1hPa t=-59.2C h=4.5% 401.40MHz Type=RS41-SGP Details on http://radiosondy.info
WA9ONY-14U22312442022-12-07 00:34:4344.5893-122.7351706724027Clb=4.1m/s p=28.1hPa t=-59.2C h=4.3% 401.40MHz Type=RS41-SGP TxPastBurst=8h30m batt=2.6V Join https://groups.io/g/Balloons
K6GDP-11U22312442022-12-07 00:34:3444.5902-122.7361566323993Clb=4.7m/s t=-59.1C h=0.8% p=28.3hPa 401.400 MHz Type=RS41-SGP ser=U2231244 Radiosonde
WA9ONY-14U22312442022-12-07 00:34:2744.5908-122.7361586923970Clb=6.4m/s p=28.4hPa t=-59.0C h=4.4% 401.40MHz Type=RS41-SGP Join https://groups.io/g/Balloons
KJ7NUX-14U22312442022-12-07 00:34:2444.5911-122.7361627023958Clb=4.9m/s p=28.4hPa t=-58.9C h=4.3% 401.40MHz Type=RS41-SGP Details on http://radiosondy.info
KE7WWCU22312442022-12-07 00:34:2244.5915-122.7371596923946Clb=6.1m/s t=-58.9C h=0.9% p=28.5hPa 401.375 MHz Type=RS41-SGP ser=U2231244 Radiosonde
W7BDB-13U22312442022-12-07 00:34:2144.5915-122.7361607023946Clb=6.1m/s p=28.5hPa t=-58.9C h=4.4% 401.40MHz Type=RS41-SGP Details on http://radiosondy.info
WA9ONY-14U22312442022-12-07 00:34:1144.5924-122.7371547023912Clb=6.4m/s p=28.6hPa t=-58.9C h=4.3% 401.40MHz Type=RS41-SGP Join https://groups.io/g/Balloons
KG7GDB-12U22312442022-12-07 00:34:0144.5936-122.7381526523874Clb=4.0m/s t=-58.7C h=0.9% p=28.8hPa 401.401 MHz Type=RS41-SGP ser=U2231244 Radiosonde
WA9ONY-14U22312442022-12-07 00:33:5544.594-122.7381507023858Clb=4.0m/s p=28.9hPa t=-58.6C h=4.2% 401.40MHz Type=RS41-SGP batt=2.6V Join https://groups.io/g/Balloons
K6GDP-11U22312442022-12-07 00:33:4244.595-122.7391538123819Clb=6.3m/s t=-59.0C h=0.9% p=29.1hPa 401.400 MHz Type=RS41-SGP ser=U2231244 Radiosonde
WA9ONY-14U22312442022-12-07 00:33:3744.5955-122.7391545623804Clb=5.4m/s p=29.1hPa t=-59.0C h=4.2% 401.40MHz Type=RS41-SGP Join https://groups.io/g/Balloons
KJ7NUX-14U22312442022-12-07 00:33:3344.5959-122.741476123787Clb=6.0m/s p=29.2hPa t=-59.2C h=4.4% 401.40MHz Type=RS41-SGP TxPastBurst=8h30m batt=2.7V Details on http://radiosondy.info
KE7WWCU22312442022-12-07 00:33:3044.5961-122.741384823775Clb=5.1m/s t=-59.3C h=0.9% p=29.3hPa 401.375 MHz Type=RS41-SGP ser=U2231244 Radiosonde
W7BDB-13U22312442022-12-07 00:33:2744.5962-122.741396123770Clb=4.8m/s p=29.3hPa t=-59.3C h=4.3% 401.40MHz Type=RS41-SGP Details on http://radiosondy.info
WA9ONY-14U22312442022-12-07 00:33:2144.5966-122.741436723747Clb=7.3m/s p=29.4hPa t=-59.3C h=4.4% 401.40MHz Type=RS41-SGP Join https://groups.io/g/Balloons
KJ7NUX-14U22312442022-12-07 00:33:0844.5977-122.7421356123703Clb=5.1m/s p=29.6hPa t=-59.4C h=4.3% 401.40MHz Type=RS41-SGP Details on http://radiosondy.info
WA9ONY-14U22312442022-12-07 00:33:0344.5979-122.7421356123692Clb=4.6m/s p=29.6hPa t=-59.4C h=4.5% 401.40MHz Type=RS41-SGP batt=2.7V Join https://groups.io/g/Balloons
W7BDB-13U22312442022-12-07 00:33:0144.598-122.7421336123687Clb=5.0m/s p=29.7hPa t=-59.5C h=4.4% 401.40MHz Type=RS41-SGP Details on http://radiosondy.info
K6GDP-11U22312442022-12-07 00:32:4944.5988-122.7431396723651Clb=4.5m/s t=-59.7C h=1.0% p=29.9hPa 401.400 MHz Type=RS41-SGP ser=U2231244 Radiosonde
WA9ONY-14U22312442022-12-07 00:32:4644.599-122.7431305723640Clb=5.3m/s p=29.9hPa t=-59.7C h=4.5% 401.40MHz Type=RS41-SGP Join https://groups.io/g/Balloons
W7BDB-12U22312442022-12-07 00:32:4244.5994-122.7441285423614Clb=5.0m/s t=-59.9C h=0.9% p=30.1hPa 401.399 MHz Type=RS41-SGP ser=U2231244 Radiosonde
KJ7NUX-14U22312442022-12-07 00:32:3744.5994-122.7441295023614Clb=5.0m/s p=30.0hPa t=-59.9C h=4.5% 401.40MHz Type=RS41-SGP Details on http://radiosondy.info
KE7WWCU22312442022-12-07 00:32:3644.5995-122.7441275623609Clb=5.5m/s t=-60.0C h=1.0% p=30.1hPa 401.375 MHz Type=RS41-SGP ser=U2231244 Radiosonde
W7BDB-13U22312442022-12-07 00:32:3444.5996-122.7441274823602Clb=6.7m/s p=30.1hPa t=-59.9C h=4.7% 401.40MHz Type=RS41-SGP batt=2.6V Details on http://radiosondy.info
WA9ONY-14U22312442022-12-07 00:32:2744.5998-122.7451314623586Clb=6.9m/s p=30.1hPa t=-59.9C h=4.5% 401.40MHz Type=RS41-SGP Join https://groups.io/g/Balloons
KG7GDB-12U22312442022-12-07 00:32:1244.6004-122.7461123923535Clb=5.9m/s t=-59.8C h=1.0% p=30.4hPa 401.401 MHz Type=RS41-SGP ser=U2231244 Radiosonde
WA9ONY-14U22312442022-12-07 00:32:0844.6005-122.7461104823529Clb=6.2m/s p=30.4hPa t=-59.7C h=4.7% 401.40MHz Type=RS41-SGP TxPastBurst=8h30m batt=2.7V Join https://groups.io/g/Balloons
KJ7NUX-14U22312442022-12-07 00:32:0744.6005-122.7461094623524Clb=3.9m/s p=30.5hPa t=-59.6C h=4.7% 401.40MHz Type=RS41-SGP batt=2.7V Details on http://radiosondy.info
W7BDB-13U22312442022-12-07 00:32:0544.6005-122.7471124623519Clb=5.2m/s p=30.4hPa t=-59.6C h=4.6% 401.40MHz Type=RS41-SGP Details on http://radiosondy.info
K6GDP-11U22312442022-12-07 00:31:5144.601-122.7481234823479Clb=6.0m/s t=-59.4C h=0.9% p=30.7hPa 401.400 MHz Type=RS41-SGP ser=U2231244 Radiosonde
WA9ONY-14U22312442022-12-07 00:31:4944.601-122.7481214323474Clb=4.0m/s p=30.7hPa t=-59.3C h=4.5% 401.40MHz Type=RS41-SGP Join https://groups.io/g/Balloons
KE7WWCU22312442022-12-07 00:31:3944.6013-122.7491084123434Clb=6.5m/s t=-59.1C h=1.0% p=30.9hPa 401.375 MHz Type=RS41-SGP ser=U2231244 Radiosonde
WA9ONY-14U22312442022-12-07 00:31:3344.6014-122.7491154623417Clb=6.5m/s p=30.9hPa t=-59.1C h=4.4% 401.40MHz Type=RS41-SGP Join https://groups.io/g/Balloons
WA9ONY-14U22312442022-12-07 00:31:1644.6018-122.7511045623359Clb=4.1m/s p=31.3hPa t=-59.2C h=4.3% 401.40MHz Type=RS41-SGP batt=2.6V Join https://groups.io/g/Balloons
W7BDB-13U22312442022-12-07 00:31:1244.6019-122.7511255423341Clb=5.7m/s p=31.3hPa t=-59.1C h=4.5% 401.40MHz Type=RS41-SGP TxPastBurst=8h30m batt=2.7V Details on http://radiosondy.info
K6GDP-11U22312442022-12-07 00:31:0044.6024-122.7521134323300Clb=4.8m/s t=-59.2C h=0.9% p=31.6hPa 401.400 MHz Type=RS41-SGP ser=U2231244 Radiosonde
KE7WWCU22312442022-12-07 00:30:4844.6029-122.7541275923256Clb=6.9m/s t=-59.1C h=0.9% p=31.8hPa 401.375 MHz Type=RS41-SGP ser=U2231244 Radiosonde
W7BDB-13U22312442022-12-07 00:30:4644.603-122.7541276323250Clb=5.7m/s p=31.8hPa t=-59.0C h=4.4% 401.40MHz Type=RS41-SGP Details on http://radiosondy.info
WA9ONY-14U22312442022-12-07 00:30:4444.6031-122.7541286123245Clb=4.9m/s p=31.8hPa t=-59.0C h=4.4% 401.40MHz Type=RS41-SGP Join https://groups.io/g/Balloons
WA9ONY-14U22312442022-12-07 00:30:2844.6038-122.7561156923186Clb=5.9m/s p=32.1hPa t=-59.1C h=4.4% 401.40MHz Type=RS41-SGP batt=2.6V Join https://groups.io/g/Balloons
KG7GDB-12U22312442022-12-07 00:30:2744.6039-122.7561176323180Clb=5.0m/s t=-59.1C h=1.0% p=32.2hPa 401.401 MHz Type=RS41-SGP ser=U2231244 Radiosonde
W7BDB-13U22312442022-12-07 00:30:2144.6041-122.7561306923162Clb=5.5m/s p=32.3hPa t=-59.0C h=4.4% 401.40MHz Type=RS41-SGP Details on http://radiosondy.info
KJ7NUX-14U22312442022-12-07 00:30:2044.6043-122.7571306923156Clb=6.0m/s p=32.3hPa t=-59.0C h=4.4% 401.40MHz Type=RS41-SGP Details on http://radiosondy.info
WA9ONY-14U22312442022-12-07 00:30:1144.6047-122.7581126723128Clb=5.2m/s p=32.4hPa t=-58.8C h=4.3% 401.40MHz Type=RS41-SGP Join https://groups.io/g/Balloons
K6GDP-11U22312442022-12-07 00:30:0944.6048-122.7581066323117Clb=6.7m/s t=-58.8C h=0.9% p=32.5hPa 401.400 MHz Type=RS41-SGP ser=U2231244 Radiosonde
W7BDB-12U22312442022-12-07 00:30:0144.6052-122.7591197023081Clb=6.7m/s t=-58.9C h=0.9% p=32.7hPa 401.399 MHz Type=RS41-SGP ser=U2231244 Radiosonde
KE7WWCU22312442022-12-07 00:29:5644.6053-122.761187223075Clb=5.0m/s t=-58.9C h=1.0% p=32.7hPa 401.375 MHz Type=RS41-SGP ser=U2231244 Radiosonde
WA9ONY-14U22312442022-12-07 00:29:5344.6054-122.761186923071Clb=4.3m/s p=32.7hPa t=-58.8C h=4.4% 401.40MHz Type=RS41-SGP Join https://groups.io/g/Balloons
WA9ONY-14U22312442022-12-07 00:29:3744.606-122.7621116523014Clb=4.9m/s p=33.0hPa t=-58.8C h=4.3% 401.40MHz Type=RS41-SGP TxPastBurst=8h30m batt=2.6V Join https://groups.io/g/Balloons
KG7GDB-12U22312442022-12-07 00:29:3544.6061-122.7631117023002Clb=6.6m/s t=-58.8C h=1.0% p=33.1hPa 401.401 MHz Type=RS41-SGP ser=U2231244 Radiosonde
W7BDB-13U22312442022-12-07 00:29:2944.6063-122.7631126322986Clb=6.7m/s p=33.1hPa t=-58.8C h=4.3% 401.40MHz Type=RS41-SGP Details on http://radiosondy.info
KJ7NUX-14U22312442022-12-07 00:29:2644.6064-122.7641116122974Clb=5.1m/s p=33.2hPa t=-58.8C h=4.4% 401.40MHz Type=RS41-SGP TxPastBurst=8h30m batt=2.6V Details on http://radiosondy.info
WA9ONY-14U22312442022-12-07 00:29:2044.6066-122.7641076322956Clb=5.1m/s p=33.3hPa t=-59.1C h=4.3% 401.40MHz Type=RS41-SGP Join https://groups.io/g/Balloons
K6GDP-11U22312442022-12-07 00:29:1644.6067-122.7651036122937Clb=5.6m/s t=-59.2C h=1.0% p=33.5hPa 401.400 MHz Type=RS41-SGP ser=U2231244 Radiosonde
KE7WWCU22312442022-12-07 00:29:0444.6069-122.7661055922894Clb=7.5m/s t=-59.0C h=1.0% p=33.7hPa 401.375 MHz Type=RS41-SGP ser=U2231244 Radiosonde
WA9ONY-14U22312442022-12-07 00:29:0344.6069-122.7661065622894Clb=7.4m/s p=33.7hPa t=-59.0C h=4.6% 401.40MHz Type=RS41-SGP Join https://groups.io/g/Balloons
KJ7NUX-14U22312442022-12-07 00:28:5944.6071-122.7671135622875Clb=7.5m/s p=33.7hPa t=-58.9C h=4.5% 401.40MHz Type=RS41-SGP Details on http://radiosondy.info
WA9ONY-14U22312442022-12-07 00:28:4744.6075-122.7681105622831Clb=5.4m/s p=33.9hPa t=-58.6C h=4.4% 401.40MHz Type=RS41-SGP batt=2.7V Join https://groups.io/g/Balloons
KG7GDB-12U22312442022-12-07 00:28:4244.6076-122.7691015922811Clb=5.4m/s t=-58.6C h=1.0% p=34.1hPa 401.401 MHz Type=RS41-SGP ser=U2231244 Radiosonde
W7BDB-13U22312442022-12-07 00:28:3844.6076-122.7691005222799Clb=5.3m/s p=34.1hPa t=-58.4C h=4.3% 401.40MHz Type=RS41-SGP batt=2.6V Details on http://radiosondy.info
KJ7NUX-14U22312442022-12-07 00:28:3344.6078-122.771095022774Clb=6.3m/s p=34.3hPa t=-58.4C h=4.3% 401.40MHz Type=RS41-SGP Details on http://radiosondy.info
WA9ONY-14U22312442022-12-07 00:28:3144.6078-122.771095222767Clb=7.0m/s p=34.3hPa t=-58.4C h=4.3% 401.40MHz Type=RS41-SGP Join https://groups.io/g/Balloons
K6GDP-11U22312442022-12-07 00:28:2544.608-122.7711065622743Clb=5.8m/s t=-58.5C h=1.0% p=34.5hPa 401.400 MHz Type=RS41-SGP ser=U2231244 Radiosonde
WA9ONY-14U22312442022-12-07 00:28:1344.6081-122.772914822706Clb=6.1m/s p=34.6hPa t=-58.2C h=4.2% 401.40MHz Type=RS41-SGP Join https://groups.io/g/Balloons
KE7WWCU22312442022-12-07 00:28:1244.6081-122.772904822699Clb=6.6m/s t=-58.2C h=0.9% p=34.7hPa 401.375 MHz Type=RS41-SGP ser=U2231244 Radiosonde
KJ7NUX-14U22312442022-12-07 00:28:0644.6081-122.7721014622675Clb=7.0m/s p=34.8hPa t=-57.9C h=4.2% 401.40MHz Type=RS41-SGP batt=2.7V Details on http://radiosondy.info
WA9ONY-14U22312442022-12-07 00:27:5944.6082-122.773994622646Clb=4.9m/s p=35.0hPa t=-58.1C h=4.3% 401.40MHz Type=RS41-SGP batt=2.7V Join https://groups.io/g/Balloons
KG7GDB-12U22312442022-12-07 00:27:5544.6083-122.774954822622Clb=6.2m/s t=-58.3C h=1.0% p=35.1hPa 401.401 MHz Type=RS41-SGP ser=U2231244 Radiosonde
W7BDB-13U22312442022-12-07 00:27:5444.6083-122.774984122615Clb=6.9m/s p=35.1hPa t=-58.2C h=4.2% 401.40MHz Type=RS41-SGP Details on http://radiosondy.info
WA9ONY-14U22312442022-12-07 00:27:4944.6084-122.7751084322584Clb=7.3m/s p=35.3hPa t=-58.2C h=4.2% 401.40MHz Type=RS41-SGP Join https://groups.io/g/Balloons
KJ7NUX-14U22312442022-12-07 00:27:4844.6085-122.7751033522577Clb=6.3m/s p=35.4hPa t=-58.2C h=4.2% 401.40MHz Type=RS41-SGP Details on http://radiosondy.info
K6GDP-11U22312442022-12-07 00:27:4544.6085-122.776924322553Clb=5.6m/s t=-58.1C h=0.9% p=35.5hPa 401.400 MHz Type=RS41-SGP ser=U2231244 Radiosonde
K6GDP-11U22312442022-12-07 00:27:4344.629-122.7981304421188Clb=5.5m/s t=-58.9C h=1.0% p=44.1hPa 401.400 MHz Type=RS41-SGP ser=U2231244 Radiosonde
KG7GDB-12U22312442022-12-07 00:27:4244.6307-122.8011294821070Clb=6.0m/s t=-58.5C h=1.0% p=45.0hPa 401.401 MHz Type=RS41-SGP ser=U2231244 Radiosonde
K6GDP-11U22312442022-12-07 00:27:4144.6314-122.8021354321014Clb=6.3m/s t=-58.3C h=1.0% p=45.3hPa 401.400 MHz Type=RS41-SGP ser=U2231244 Radiosonde
WA9ONY-14U22312442022-12-07 00:27:4044.6316-122.8031364621003Clb=4.8m/s p=45.4hPa t=-58.1C h=4.4% 401.40MHz Type=RS41-SGP Join https://groups.io/g/Balloons
KJ7NUX-14U22312442022-12-07 00:27:3644.632-122.8031394320975Clb=4.7m/s p=45.6hPa t=-57.9C h=4.2% 401.40MHz Type=RS41-SGP Details on http://radiosondy.info
W7BDB-13U22312442022-12-07 00:27:3444.6321-122.8031404320971Clb=5.1m/s p=45.6hPa t=-57.8C h=4.1% 401.40MHz Type=RS41-SGP TxPastBurst=8h30m batt=2.7V Details on http://radiosondy.info
WA9ONY-14U22312442022-12-07 00:27:2944.6325-122.8041374120948Clb=5.4m/s p=45.8hPa t=-57.6C h=4.3% 401.40MHz Type=RS41-SGP batt=2.6V Join https://groups.io/g/Balloons
KG7GDB-12U22312442022-12-07 00:27:1944.6331-122.8041433520898Clb=4.0m/s t=-57.3C h=1.0% p=46.2hPa 401.401 MHz Type=RS41-SGP ser=U2231244 Radiosonde
WA9ONY-14U22312442022-12-07 00:27:1744.6332-122.8041434320894Clb=5.7m/s p=46.2hPa t=-57.2C h=4.1% 401.40MHz Type=RS41-SGP Join https://groups.io/g/Balloons
KE7WWCU22312442022-12-07 00:27:1044.6337-122.8051394420860Clb=6.5m/s t=-57.4C h=0.9% p=46.5hPa 401.375 MHz Type=RS41-SGP ser=U2231244 Radiosonde
K6GDP-11U22312442022-12-07 00:27:0644.6339-122.8051443920842Clb=5.7m/s t=-57.3C h=1.0% p=46.6hPa 401.400 MHz Type=RS41-SGP ser=U2231244 Radiosonde
WA9ONY-14U22312442022-12-07 00:27:0544.634-122.8051444620837Clb=4.4m/s p=46.6hPa t=-57.2C h=4.1% 401.40MHz Type=RS41-SGP Join https://groups.io/g/Balloons
KJ7NUX-14U22312442022-12-07 00:27:0144.6346-122.8061404420799Clb=6.3m/s p=46.9hPa t=-57.1C h=4.1% 401.40MHz Type=RS41-SGP batt=2.7V Details on http://radiosondy.info
KG7GDB-12U22312442022-12-07 00:27:0044.6358-122.8071463920730Clb=4.7m/s t=-57.2C h=1.0% p=47.4hPa 401.401 MHz Type=RS41-SGP ser=U2231244 Radiosonde
W7BDB-13U22312442022-12-07 00:26:5944.6376-122.8091574820635Clb=5.9m/s p=48.1hPa t=-57.6C h=4.1% 401.40MHz Type=RS41-SGP Details on http://radiosondy.info
W7BDB-13U22312442022-12-07 00:26:5844.6393-122.811615220548Clb=6.5m/s p=48.7hPa t=-58.0C h=4.2% 401.40MHz Type=RS41-SGP Details on http://radiosondy.info
KJ7NUX-14U22312442022-12-07 00:26:5744.6415-122.8111626120460Clb=5.2m/s p=49.4hPa t=-58.6C h=4.3% 401.40MHz Type=RS41-SGP Details on http://radiosondy.info
KJ7NUX-14U22312442022-12-07 00:26:5644.6439-122.8121596520374Clb=4.8m/s p=50.1hPa t=-59.0C h=4.3% 401.40MHz Type=RS41-SGP Details on http://radiosondy.info
K6GDP-11U22312442022-12-07 00:26:5544.6446-122.8131506320346Clb=5.8m/s t=-59.1C h=1.1% p=50.4hPa 401.400 MHz Type=RS41-SGP ser=U2231244 Radiosonde
WA9ONY-14U22312442022-12-07 00:26:4544.6458-122.8131596320302Clb=4.0m/s p=50.7hPa t=-59.9C h=4.4% 401.40MHz Type=RS41-SGP TxPastBurst=8h30m batt=2.6V Join https://groups.io/g/Balloons
W7BDB-13U22312442022-12-07 00:26:4444.6459-122.8131576320297Clb=5.0m/s p=50.7hPa t=-60.0C h=4.5% 401.40MHz Type=RS41-SGP Details on http://radiosondy.info
KJ7NUX-14U22312442022-12-07 00:26:4244.6462-122.8141486120286Clb=5.5m/s p=50.8hPa t=-60.3C h=4.5% 401.40MHz Type=RS41-SGP batt=2.7V Details on http://radiosondy.info
WA9ONY-14U22312442022-12-07 00:26:3144.647-122.8151466120248Clb=6.4m/s p=51.1hPa t=-61.2C h=5.1% 401.40MHz Type=RS41-SGP Join https://groups.io/g/Balloons
KG7GDB-12U22312442022-12-07 00:26:2744.6474-122.8151455920231Clb=5.8m/s t=-61.3C h=1.4% p=51.3hPa 401.401 MHz Type=RS41-SGP ser=U2231244 Radiosonde
W7BDB-13U22312442022-12-07 00:26:1944.6479-122.8161395620208Clb=5.5m/s p=51.4hPa t=-61.1C h=5.1% 401.40MHz Type=RS41-SGP TxPastBurst=8h30m batt=2.6V Details on http://radiosondy.info
KJ7NUX-14U22312442022-12-07 00:26:1544.6481-122.8161345620197Clb=4.1m/s p=51.5hPa t=-61.1C h=4.9% 401.40MHz Type=RS41-SGP Details on http://radiosondy.info
KE7WWCU22312442022-12-07 00:26:1444.6482-122.8161335920192Clb=5.4m/s t=-61.1C h=1.3% p=51.6hPa 401.375 MHz Type=RS41-SGP ser=U2231244 Radiosonde
WA9ONY-14U22312442022-12-07 00:26:1344.6482-122.8161345720192Clb=5.4m/s p=51.6hPa t=-61.1C h=4.8% 401.40MHz Type=RS41-SGP Join https://groups.io/g/Balloons
K6GDP-11U22312442022-12-07 00:26:0844.6485-122.8161345920175Clb=6.2m/s t=-61.0C h=-1.0% p=-1.0hPa 401.400 MHz Type=RS41 ser=U2231244 Radiosonde
W7BDB-12U22312442022-12-07 00:26:0044.6493-122.8171374820133Clb=4.8m/s t=-61.2C h=1.3% p=52.1hPa 401.399 MHz Type=RS41-SGP ser=U2231244 Radiosonde
WA9ONY-14U22312442022-12-07 00:25:5544.6492-122.8171385420133Clb=4.7m/s p=52.1hPa t=-61.2C h=5.0% 401.40MHz Type=RS41-SGP batt=2.6V Join https://groups.io/g/Balloons
W7BDB-13U22312442022-12-07 00:25:5144.6495-122.8181385220118Clb=4.9m/s p=52.2hPa t=-61.4C h=5.1% 401.40MHz Type=RS41-SGP Details on http://radiosondy.info
KJ7NUX-14U22312442022-12-07 00:25:4844.6497-122.8181355220106Clb=5.4m/s p=52.3hPa t=-61.4C h=5.2% 401.40MHz Type=RS41-SGP Details on http://radiosondy.info
WA9ONY-14U22312442022-12-07 00:25:4044.6502-122.8191364820077Clb=5.7m/s p=52.5hPa t=-61.3C h=4.9% 401.40MHz Type=RS41-SGP Join https://groups.io/g/Balloons
KG7GDB-12U22312442022-12-07 00:25:3444.6506-122.8191334820055Clb=4.6m/s t=-61.4C h=1.3% p=52.8hPa 401.401 MHz Type=RS41-SGP ser=U2231244 Radiosonde
W7BDB-13U22312442022-12-07 00:25:2544.651-122.821375220026Clb=4.6m/s p=53.0hPa t=-61.5C h=5.1% 401.40MHz Type=RS41-SGP Details on http://radiosondy.info
WA9ONY-14U22312442022-12-07 00:25:2344.6511-122.821385620020Clb=5.7m/s p=53.0hPa t=-61.5C h=5.1% 401.40MHz Type=RS41-SGP Join https://groups.io/g/Balloons
KJ7NUX-14U22312442022-12-07 00:25:2244.6511-122.821385420015Clb=6.0m/s p=53.1hPa t=-61.5C h=5.2% 401.40MHz Type=RS41-SGP batt=2.7V Details on http://radiosondy.info
WA9ONY-14U22312442022-12-07 00:25:0644.652-122.8211315219964Clb=6.0m/s p=53.5hPa t=-61.6C h=5.1% 401.40MHz Type=RS41-SGP batt=2.6V Join https://groups.io/g/Balloons
W7BDB-13U22312442022-12-07 00:24:5944.6523-122.8221445219941Clb=5.7m/s p=53.7hPa t=-61.4C h=5.2% 401.40MHz Type=RS41-SGP batt=2.7V Details on http://radiosondy.info
KJ7NUX-14U22312442022-12-07 00:24:5544.6527-122.8221455419924Clb=5.8m/s p=53.9hPa t=-61.3C h=5.1% 401.40MHz Type=RS41-SGP Details on http://radiosondy.info
WA9ONY-14U22312442022-12-07 00:24:5044.653-122.8221425219906Clb=6.7m/s p=54.0hPa t=-61.2C h=5.1% 401.40MHz Type=RS41-SGP Join https://groups.io/g/Balloons
KG7GDB-12U22312442022-12-07 00:24:4344.6534-122.8231304819878Clb=5.2m/s t=-61.0C h=1.3% p=54.3hPa 401.401 MHz Type=RS41-SGP ser=U2231244 Radiosonde
W7BDB-13U22312442022-12-07 00:24:3444.6539-122.8241405219850Clb=5.6m/s p=54.5hPa t=-60.7C h=5.1% 401.40MHz Type=RS41-SGP Details on http://radiosondy.info
KE7WWCU22312442022-12-07 00:24:3044.6541-122.8241455719837Clb=5.8m/s t=-60.7C h=1.3% p=54.6hPa 401.375 MHz Type=RS41-SGP ser=U2231244 Radiosonde
KJ7NUX-14U22312442022-12-07 00:24:2444.6544-122.8241465419821Clb=5.3m/s p=54.7hPa t=-60.5C h=4.8% 401.40MHz Type=RS41-SGP Details on http://radiosondy.info
WA9ONY-14U22312442022-12-07 00:24:1544.6549-122.8251395619792Clb=6.8m/s p=55.0hPa t=-60.4C h=4.8% 401.40MHz Type=RS41-SGP TxPastBurst=8h30m batt=2.6V Join https://groups.io/g/Balloons
W7BDB-13U22312442022-12-07 00:24:0644.6554-122.8251425619764Clb=4.9m/s p=55.2hPa t=-60.4C h=4.8% 401.40MHz Type=RS41-SGP Details on http://radiosondy.info
WA9ONY-14U22312442022-12-07 00:23:5744.656-122.8261475419734Clb=4.9m/s p=55.5hPa t=-60.3C h=5.0% 401.40MHz Type=RS41-SGP Join https://groups.io/g/Balloons
KJ7NUX-14U22312442022-12-07 00:23:5644.6561-122.8261445419729Clb=5.9m/s p=55.6hPa t=-60.3C h=5.0% 401.40MHz Type=RS41-SGP TxPastBurst=8h30m batt=2.6V Details on http://radiosondy.info
KG7GDB-12U22312442022-12-07 00:23:4844.6566-122.8271425619700Clb=5.8m/s t=-60.2C h=1.3% p=55.8hPa 401.401 MHz Type=RS41-SGP ser=U2231244 Radiosonde
WA9ONY-14U22312442022-12-07 00:23:4144.6571-122.8271405219676Clb=5.9m/s p=56.0hPa t=-60.0C h=4.8% 401.40MHz Type=RS41-SGP Join https://groups.io/g/Balloons
KE7WWCU22312442022-12-07 00:23:3744.6574-122.8271374819659Clb=5.2m/s t=-59.9C h=1.2% p=56.2hPa 401.375 MHz Type=RS41-SGP ser=U2231244 Radiosonde
KJ7NUX-14U22312442022-12-07 00:23:2844.6577-122.8281375419637Clb=5.3m/s p=56.4hPa t=-59.8C h=4.6% 401.40MHz Type=RS41-SGP Details on http://radiosondy.info
WA9ONY-14U22312442022-12-07 00:23:2344.658-122.8281365619620Clb=5.9m/s p=56.5hPa t=-59.8C h=4.5% 401.40MHz Type=RS41-SGP batt=2.6V Join https://groups.io/g/Balloons
W7BDB-13U22312442022-12-07 00:23:1344.6585-122.8291415419592Clb=5.0m/s p=56.7hPa t=-60.1C h=4.6% 401.40MHz Type=RS41-SGP Details on http://radiosondy.info
WA9ONY-14U22312442022-12-07 00:23:0544.6591-122.831385219564Clb=6.3m/s p=57.0hPa t=-60.4C h=4.8% 401.40MHz Type=RS41-SGP Join https://groups.io/g/Balloons
KJ7NUX-14U22312442022-12-07 00:23:0044.6594-122.831385019549Clb=6.3m/s p=57.1hPa t=-60.7C h=4.9% 401.40MHz Type=RS41-SGP Details on http://radiosondy.info
KG7GDB-12U22312442022-12-07 00:22:5244.6599-122.831515019521Clb=5.8m/s t=-60.7C h=1.3% p=57.5hPa 401.401 MHz Type=RS41-SGP ser=U2231244 Radiosonde
WA9ONY-14U22312442022-12-07 00:22:4644.6601-122.8311565019510Clb=4.8m/s p=57.5hPa t=-60.6C h=5.0% 401.40MHz Type=RS41-SGP Join https://groups.io/g/Balloons
W7BDB-13U22312442022-12-07 00:22:4444.6602-122.8311555019504Clb=6.2m/s p=57.6hPa t=-60.6C h=4.9% 401.40MHz Type=RS41-SGP Details on http://radiosondy.info
KE7WWCU22312442022-12-07 00:22:3944.6605-122.8311444819487Clb=5.9m/s t=-60.6C h=1.2% p=57.7hPa 401.375 MHz Type=RS41-SGP ser=U2231244 Radiosonde
KJ7NUX-14U22312442022-12-07 00:22:3044.661-122.8311455219460Clb=5.0m/s p=57.9hPa t=-60.6C h=4.8% 401.40MHz Type=RS41-SGP batt=2.6V Details on http://radiosondy.info
WA9ONY-14U22312442022-12-07 00:22:2844.6611-122.8321495419454Clb=6.1m/s p=58.0hPa t=-60.6C h=4.9% 401.40MHz Type=RS41-SGP batt=2.6V Join https://groups.io/g/Balloons
W7BDB-12U22312442022-12-07 00:22:2644.6617-122.8321515619427Clb=6.4m/s t=-60.5C h=1.3% p=58.3hPa 401.399 MHz Type=RS41-SGP ser=U2231244 Radiosonde
W7BDB-13U22312442022-12-07 00:22:1944.6618-122.8321495419422Clb=5.4m/s p=58.3hPa t=-60.5C h=5.0% 401.40MHz Type=RS41-SGP TxPastBurst=8h30m batt=2.6V Details on http://radiosondy.info
WA9ONY-14U22312442022-12-07 00:22:1144.6623-122.8321505419401Clb=3.9m/s p=58.5hPa t=-60.4C h=4.8% 401.40MHz Type=RS41-SGP Join https://groups.io/g/Balloons
KJ7NUX-14U22312442022-12-07 00:22:0344.6629-122.8331575419374Clb=5.2m/s p=58.8hPa t=-60.5C h=4.8% 401.40MHz Type=RS41-SGP Details on http://radiosondy.info
KG7GDB-12U22312442022-12-07 00:21:5844.6635-122.8331475219348Clb=6.3m/s t=-60.6C h=1.3% p=59.1hPa 401.401 MHz Type=RS41-SGP ser=U2231244 Radiosonde
WA9ONY-14U22312442022-12-07 00:21:5544.6635-122.8331485419348Clb=6.2m/s p=59.0hPa t=-60.5C h=4.9% 401.40MHz Type=RS41-SGP Join https://groups.io/g/Balloons
W7BDB-13U22312442022-12-07 00:21:5044.6638-122.8341455619333Clb=6.1m/s p=59.2hPa t=-60.5C h=4.8% 401.40MHz Type=RS41-SGP Details on http://radiosondy.info
KE7WWCU22312442022-12-07 00:21:4644.664-122.8341485419322Clb=4.5m/s t=-60.6C h=1.3% p=59.3hPa 401.375 MHz Type=RS41-SGP ser=U2231244 Radiosonde
WA9ONY-14U22312442022-12-07 00:21:3744.6646-122.8341565619297Clb=4.6m/s p=59.5hPa t=-60.6C h=4.8% 401.40MHz Type=RS41-SGP TxPastBurst=8h30m batt=2.6V Join https://groups.io/g/Balloons
KJ7NUX-14U22312442022-12-07 00:21:3544.6648-122.8341575419290Clb=6.0m/s p=59.5hPa t=-60.6C h=4.8% 401.40MHz Type=RS41-SGP Details on http://radiosondy.info
W7BDB-13U22312442022-12-07 00:21:2244.6657-122.8351404819246Clb=6.1m/s p=60.0hPa t=-60.8C h=5.1% 401.40MHz Type=RS41-SGP Details on http://radiosondy.info
WA9ONY-14U22312442022-12-07 00:21:2144.6658-122.8351425019241Clb=5.3m/s p=60.0hPa t=-60.8C h=5.0% 401.40MHz Type=RS41-SGP Join https://groups.io/g/Balloons
KJ7NUX-14U22312442022-12-07 00:21:1044.6666-122.8361584819203Clb=5.3m/s p=60.4hPa t=-60.6C h=4.9% 401.40MHz Type=RS41-SGP batt=2.6V Details on http://radiosondy.info
KG7GDB-12U22312442022-12-07 00:21:0544.6668-122.8361524419192Clb=4.9m/s t=-60.5C h=1.3% p=60.5hPa 401.401 MHz Type=RS41-SGP ser=U2231244 Radiosonde
WA9ONY-14U22312442022-12-07 00:21:0444.6669-122.8361504819186Clb=6.3m/s p=60.6hPa t=-60.5C h=5.0% 401.40MHz Type=RS41-SGP Join https://groups.io/g/Balloons
W7BDB-13U22312442022-12-07 00:20:5644.6673-122.8361414819165Clb=4.0m/s p=60.8hPa t=-60.3C h=4.9% 401.40MHz Type=RS41-SGP batt=2.6V Details on http://radiosondy.info
KE7WWCU22312442022-12-07 00:20:5344.6674-122.8371435019154Clb=5.2m/s t=-60.3C h=1.3% p=60.9hPa 401.375 MHz Type=RS41-SGP ser=U2231244 Radiosonde
WA9ONY-14U22312442022-12-07 00:20:4544.6679-122.8371504819133Clb=6.3m/s p=61.1hPa t=-60.2C h=4.9% 401.40MHz Type=RS41-SGP batt=2.6V Join https://groups.io/g/Balloons
KJ7NUX-14U22312442022-12-07 00:20:4244.6682-122.8371444819117Clb=5.9m/s p=61.2hPa t=-60.0C h=4.8% 401.40MHz Type=RS41-SGP Details on http://radiosondy.info
W7BDB-12U22312442022-12-07 00:20:4044.6684-122.8381384819102Clb=6.2m/s t=-60.0C h=1.2% p=61.4hPa 401.399 MHz Type=RS41-SGP ser=U2231244 Radiosonde
W7BDB-13U22312442022-12-07 00:20:3244.6687-122.8381394819087Clb=6.6m/s p=61.5hPa t=-59.8C h=4.8% 401.40MHz Type=RS41-SGP Details on http://radiosondy.info
WA9ONY-14U22312442022-12-07 00:20:3144.6688-122.8381394819081Clb=5.0m/s p=61.6hPa t=-59.8C h=4.8% 401.40MHz Type=RS41-SGP Join https://groups.io/g/Balloons
KJ7NUX-14U22312442022-12-07 00:20:1544.6696-122.8391354819035Clb=3.8m/s p=62.1hPa t=-59.4C h=4.6% 401.40MHz Type=RS41-SGP Details on http://radiosondy.info
KG7GDB-12U22312442022-12-07 00:20:1444.6697-122.8391354619030Clb=5.8m/s t=-59.4C h=1.2% p=62.2hPa 401.401 MHz Type=RS41-SGP ser=U2231244 Radiosonde
W7BDB-13U22312442022-12-07 00:20:0544.6701-122.841404819004Clb=4.3m/s p=62.3hPa t=-59.2C h=4.6% 401.40MHz Type=RS41-SGP Details on http://radiosondy.info
KE7WWCU22312442022-12-07 00:20:0144.6703-122.841424418992Clb=5.0m/s t=-59.1C h=1.2% p=62.5hPa 401.375 MHz Type=RS41-SGP ser=U2231244 Radiosonde
WA9ONY-14U22312442022-12-07 00:19:5444.6706-122.841364818977Clb=4.6m/s p=62.6hPa t=-58.9C h=4.6% 401.40MHz Type=RS41-SGP batt=2.6V Join https://groups.io/g/Balloons
KJ7NUX-14U22312442022-12-07 00:19:4644.671-122.8411274418950Clb=4.5m/s p=62.9hPa t=-58.7C h=4.6% 401.40MHz Type=RS41-SGP TxPastBurst=8h30m batt=2.6V Details on http://radiosondy.info
WA9ONY-14U22312442022-12-07 00:19:3844.6713-122.8421344318925Clb=4.3m/s p=63.1hPa t=-58.5C h=4.4% 401.40MHz Type=RS41-SGP Join https://groups.io/g/Balloons
W7BDB-13U22312442022-12-07 00:19:3544.6715-122.8421354318915Clb=5.6m/s p=63.2hPa t=-58.4C h=4.4% 401.40MHz Type=RS41-SGP batt=2.6V Details on http://radiosondy.info
WA9ONY-14U22312442022-12-07 00:19:2244.672-122.8431284318872Clb=4.4m/s p=63.7hPa t=-58.2C h=4.4% 401.40MHz Type=RS41-SGP Join https://groups.io/g/Balloons
KJ7NUX-14U22312442022-12-07 00:19:2144.6721-122.8431274418868Clb=4.5m/s p=63.7hPa t=-58.2C h=4.4% 401.40MHz Type=RS41-SGP Details on http://radiosondy.info
KE7WWCU22312442022-12-07 00:19:0744.6725-122.8441224118831Clb=4.5m/s t=-58.0C h=1.1% p=64.1hPa 401.375 MHz Type=RS41-SGP ser=U2231244 Radiosonde
WA9ONY-14U22312442022-12-07 00:19:0444.6726-122.8441254318820Clb=5.2m/s p=64.2hPa t=-58.0C h=4.3% 401.40MHz Type=RS41-SGP TxPastBurst=8h30m batt=2.6V Join https://groups.io/g/Balloons
KJ7NUX-14U22312442022-12-07 00:18:5344.673-122.8451194618786Clb=4.5m/s p=64.5hPa t=-58.0C h=4.3% 401.40MHz Type=RS41-SGP Details on http://radiosondy.info
WA9ONY-14U22312442022-12-07 00:18:4644.6732-122.8461114818765Clb=5.5m/s p=64.7hPa t=-58.0C h=4.2% 401.40MHz Type=RS41-SGP Join https://groups.io/g/Balloons
W7BDB-13U22312442022-12-07 00:18:4344.6733-122.8461134818755Clb=5.0m/s p=64.8hPa t=-58.0C h=4.3% 401.40MHz Type=RS41-SGP Details on http://radiosondy.info
WA9ONY-14U22312442022-12-07 00:18:3044.6738-122.8471225018714Clb=4.7m/s p=65.2hPa t=-58.7C h=4.5% 401.40MHz Type=RS41-SGP Join https://groups.io/g/Balloons
KJ7NUX-14U22312442022-12-07 00:18:2744.6739-122.8471205218704Clb=4.5m/s p=65.4hPa t=-58.7C h=4.5% 401.40MHz Type=RS41-SGP batt=2.6V Details on http://radiosondy.info
K6GDP-11U22312442022-12-07 00:18:2244.674-122.8481184418695Clb=5.5m/s t=-58.8C h=1.3% p=65.5hPa 401.400 MHz Type=RS41-SGP ser=U2231244 Radiosonde
KG7GDB-12U22312442022-12-07 00:18:1744.6742-122.8481165218681Clb=6.2m/s t=-58.7C h=1.2% p=65.7hPa 401.401 MHz Type=RS41-SGP ser=U2231244 Radiosonde
W7BDB-13U22312442022-12-07 00:18:1644.6742-122.8481175418681Clb=6.1m/s p=65.6hPa t=-58.7C h=4.5% 401.40MHz Type=RS41-SGP TxPastBurst=8h30m batt=2.7V Details on http://radiosondy.info
KE7WWCU22312442022-12-07 00:18:1344.6742-122.8481155618676Clb=4.2m/s t=-58.7C h=1.2% p=65.7hPa 401.375 MHz Type=RS41-SGP ser=U2231244 Radiosonde
WA9ONY-14U22312442022-12-07 00:18:1044.6743-122.8491155218667Clb=5.1m/s p=65.7hPa t=-58.6C h=4.6% 401.40MHz Type=RS41-SGP batt=2.6V Join https://groups.io/g/Balloons
KJ7NUX-14U22312442022-12-07 00:17:5744.6748-122.851225418628Clb=5.1m/s p=66.1hPa t=-58.5C h=4.6% 401.40MHz Type=RS41-SGP Details on http://radiosondy.info
WA9ONY-14U22312442022-12-07 00:17:5344.6749-122.851205218618Clb=4.0m/s p=66.2hPa t=-58.6C h=4.5% 401.40MHz Type=RS41-SGP Join https://groups.io/g/Balloons
W7BDB-13U22312442022-12-07 00:17:5044.6751-122.851215218609Clb=4.5m/s p=66.3hPa t=-58.6C h=4.5% 401.40MHz Type=RS41-SGP Details on http://radiosondy.info
WA9ONY-14U22312442022-12-07 00:17:3644.6756-122.8521224818569Clb=5.0m/s p=66.8hPa t=-58.7C h=4.5% 401.40MHz Type=RS41-SGP Join https://groups.io/g/Balloons
KJ7NUX-14U22312442022-12-07 00:17:2944.6759-122.8521294318550Clb=4.2m/s p=67.0hPa t=-58.7C h=4.5% 401.40MHz Type=RS41-SGP Details on http://radiosondy.info
K6GDP-11U22312442022-12-07 00:17:2744.676-122.8521274818544Clb=6.4m/s t=-58.7C h=1.3% p=67.1hPa 401.400 MHz Type=RS41-SGP ser=U2231244 Radiosonde
KG7GDB-12U22312442022-12-07 00:17:2244.6762-122.8531264118528Clb=5.4m/s t=-58.7C h=1.3% p=67.2hPa 401.401 MHz Type=RS41-SGP ser=U2231244 Radiosonde
W7BDB-13U22312442022-12-07 00:17:2144.6762-122.8531274118528Clb=5.4m/s p=67.2hPa t=-58.7C h=4.5% 401.40MHz Type=RS41-SGP Details on http://radiosondy.info
KE7WWCU22312442022-12-07 00:17:1944.6763-122.8531173718518Clb=5.8m/s t=-58.8C h=1.2% p=67.3hPa 401.375 MHz Type=RS41-SGP ser=U2231244 Radiosonde
WA9ONY-14U22312442022-12-07 00:17:1744.6763-122.8531184318518Clb=5.7m/s p=67.3hPa t=-58.7C h=4.5% 401.40MHz Type=RS41-SGP batt=2.6V Join https://groups.io/g/Balloons
W7BDB-12U22312442022-12-07 00:17:0544.6768-122.8541303918471Clb=5.2m/s t=-59.1C h=1.3% p=67.8hPa 401.399 MHz Type=RS41-SGP ser=U2231244 Radiosonde
KJ7NUX-14U22312442022-12-07 00:17:0044.6768-122.8541313718471Clb=5.1m/s p=67.8hPa t=-59.0C h=4.6% 401.40MHz Type=RS41-SGP batt=2.6V Details on http://radiosondy.info
WA9ONY-14U22312442022-12-07 00:16:5944.6768-122.8541313318471Clb=5.1m/s p=67.8hPa t=-59.0C h=4.6% 401.40MHz Type=RS41-SGP Join https://groups.io/g/Balloons
W7BDB-13U22312442022-12-07 00:16:5244.677-122.8551283718452Clb=4.0m/s p=68.0hPa t=-59.4C h=4.7% 401.40MHz Type=RS41-SGP batt=2.7V Details on http://radiosondy.info
WA9ONY-14U22312442022-12-07 00:16:4344.6773-122.8551264118424Clb=4.6m/s p=68.3hPa t=-59.5C h=4.6% 401.40MHz Type=RS41-SGP Join https://groups.io/g/Balloons
K6GDP-11U22312442022-12-07 00:16:3344.6777-122.8561323918396Clb=5.0m/s t=-59.5C h=1.3% p=68.7hPa 401.400 MHz Type=RS41-SGP ser=U2231244 Radiosonde
KJ7NUX-14U22312442022-12-07 00:16:3244.6777-122.8561333518396Clb=5.0m/s p=68.6hPa t=-59.4C h=4.6% 401.40MHz Type=RS41-SGP Details on http://radiosondy.info
KG7GDB-12U22312442022-12-07 00:16:2744.6778-122.8561283718382Clb=4.8m/s t=-59.5C h=1.3% p=68.9hPa 401.401 MHz Type=RS41-SGP ser=U2231244 Radiosonde
KE7WWCU22312442022-12-07 00:16:2444.678-122.8571313318373Clb=5.8m/s t=-59.6C h=1.3% p=68.9hPa 401.375 MHz Type=RS41-SGP ser=U2231244 Radiosonde
WA9ONY-14U22312442022-12-07 00:16:0744.6785-122.8571332818328Clb=5.2m/s p=69.4hPa t=-59.8C h=4.8% 401.40MHz Type=RS41-SGP Join https://groups.io/g/Balloons
KJ7NUX-14U22312442022-12-07 00:16:0444.6786-122.8571363118318Clb=5.8m/s p=69.5hPa t=-59.9C h=4.8% 401.40MHz Type=RS41-SGP Details on http://radiosondy.info
W7BDB-13U22312442022-12-07 00:15:5844.6788-122.8581443318299Clb=5.0m/s p=69.7hPa t=-59.9C h=5.0% 401.40MHz Type=RS41-SGP Details on http://radiosondy.info
WA9ONY-14U22312442022-12-07 00:15:5144.6791-122.8581553518279Clb=5.1m/s p=69.9hPa t=-59.7C h=4.8% 401.40MHz Type=RS41-SGP Join https://groups.io/g/Balloons
K6GDP-11U22312442022-12-07 00:15:4044.6796-122.8581583118244Clb=5.0m/s t=-59.7C h=1.4% p=70.4hPa 401.400 MHz Type=RS41-SGP ser=U2231244 Radiosonde
KJ7NUX-14U22312442022-12-07 00:15:3744.6797-122.8581563518239Clb=5.1m/s p=70.4hPa t=-59.6C h=4.7% 401.40MHz Type=RS41-SGP TxPastBurst=8h30m batt=2.6V Details on http://radiosondy.info
KG7GDB-12U22312442022-12-07 00:15:3444.6799-122.8581583318229Clb=5.6m/s t=-59.6C h=1.3% p=70.5hPa 401.401 MHz Type=RS41-SGP ser=U2231244 Radiosonde
KE7WWCU22312442022-12-07 00:15:3244.68-122.8581593318219Clb=4.7m/s t=-59.5C h=1.4% p=70.6hPa 401.375 MHz Type=RS41-SGP ser=U2231244 Radiosonde
W7BDB-13U22312442022-12-07 00:15:2844.6801-122.8591563918215Clb=5.8m/s p=70.7hPa t=-59.4C h=4.7% 401.40MHz Type=RS41-SGP batt=2.7V Details on http://radiosondy.info
WA9ONY-14U22312442022-12-07 00:15:1844.6807-122.8591614418178Clb=5.8m/s p=71.0hPa t=-59.6C h=4.7% 401.40MHz Type=RS41-SGP Join https://groups.io/g/Balloons
KJ7NUX-14U22312442022-12-07 00:15:1144.681-122.8591614318158Clb=5.3m/s p=71.3hPa t=-59.8C h=4.8% 401.40MHz Type=RS41-SGP Details on http://radiosondy.info
W7BDB-13U22312442022-12-07 00:15:0544.6815-122.8591604318138Clb=5.2m/s p=71.5hPa t=-59.8C h=4.9% 401.40MHz Type=RS41-SGP Details on http://radiosondy.info
WA9ONY-14U22312442022-12-07 00:15:0244.6817-122.8591574118127Clb=5.1m/s p=71.6hPa t=-59.8C h=4.9% 401.40MHz Type=RS41-SGP Join https://groups.io/g/Balloons
K6GDP-11U22312442022-12-07 00:14:4644.6824-122.861564318088Clb=2.7m/s t=-59.7C h=1.3% p=72.2hPa 401.400 MHz Type=RS41-SGP ser=U2231244 Radiosonde
WA9ONY-14U22312442022-12-07 00:14:4344.6826-122.861533918079Clb=5.2m/s p=72.2hPa t=-59.6C h=4.8% 401.40MHz Type=RS41-SGP batt=2.6V Join https://groups.io/g/Balloons
KG7GDB-12U22312442022-12-07 00:14:4244.6827-122.861524318074Clb=4.2m/s t=-59.6C h=1.4% p=72.3hPa 401.401 MHz Type=RS41-SGP ser=U2231244 Radiosonde
W7BDB-13U22312442022-12-07 00:14:3844.6829-122.861563718065Clb=5.3m/s p=72.4hPa t=-59.6C h=4.7% 401.40MHz Type=RS41-SGP Details on http://radiosondy.info
WA9ONY-14U22312442022-12-07 00:14:2544.6835-122.8611513918031Clb=3.8m/s p=72.8hPa t=-59.3C h=4.7% 401.40MHz Type=RS41-SGP Join https://groups.io/g/Balloons
KJ7NUX-14U22312442022-12-07 00:14:1644.684-122.8611563318002Clb=4.0m/s p=73.1hPa t=-59.5C h=4.7% 401.40MHz Type=RS41-SGP batt=2.6V Details on http://radiosondy.info
W7BDB-13U22312442022-12-07 00:14:1144.6842-122.8611443117987Clb=4.8m/s p=73.3hPa t=-59.6C h=4.8% 401.40MHz Type=RS41-SGP TxPastBurst=8h30m batt=2.7V Details on http://radiosondy.info
WA9ONY-14U22312442022-12-07 00:14:1044.6843-122.8611413017981Clb=5.8m/s p=73.3hPa t=-59.6C h=4.9% 401.40MHz Type=RS41-SGP Join https://groups.io/g/Balloons
K6GDP-11U22312442022-12-07 00:13:5444.6847-122.8621433117936Clb=4.4m/s t=-59.5C h=1.3% p=73.9hPa 401.400 MHz Type=RS41-SGP ser=U2231244 Radiosonde
WA9ONY-14U22312442022-12-07 00:13:5244.6848-122.8621493017930Clb=5.9m/s p=73.9hPa t=-59.5C h=4.8% 401.40MHz Type=RS41-SGP TxPastBurst=8h30m batt=2.6V Join https://groups.io/g/Balloons
KJ7NUX-14U22312442022-12-07 00:13:5044.6849-122.8621533017920Clb=4.7m/s p=74.0hPa t=-59.4C h=4.8% 401.40MHz Type=RS41-SGP Details on http://radiosondy.info
KE7WWCU22312442022-12-07 00:13:4644.6851-122.8621452817910Clb=4.4m/s t=-59.5C h=1.4% p=74.2hPa 401.375 MHz Type=RS41-SGP ser=U2231244 Radiosonde
W7BDB-13U22312442022-12-07 00:13:4544.6851-122.8621463017910Clb=4.3m/s p=74.2hPa t=-59.4C h=4.8% 401.40MHz Type=RS41-SGP Details on http://radiosondy.info
WA9ONY-14U22312442022-12-07 00:13:3544.6854-122.8631303017879Clb=5.6m/s p=74.5hPa t=-59.2C h=4.8% 401.40MHz Type=RS41-SGP Join https://groups.io/g/Balloons
KJ7NUX-14U22312442022-12-07 00:13:2244.6858-122.8631543117840Clb=5.3m/s p=75.0hPa t=-59.0C h=4.8% 401.40MHz Type=RS41-SGP Details on http://radiosondy.info
W7BDB-13U22312442022-12-07 00:13:2044.6859-122.8631493117835Clb=5.3m/s p=75.1hPa t=-59.0C h=4.7% 401.40MHz Type=RS41-SGP Details on http://radiosondy.info
WA9ONY-14U22312442022-12-07 00:13:1944.686-122.8631453317829Clb=5.0m/s p=75.1hPa t=-58.9C h=4.7% 401.40MHz Type=RS41-SGP Join https://groups.io/g/Balloons
WA9ONY-14U22312442022-12-07 00:13:0144.6866-122.8641473917779Clb=5.2m/s p=75.7hPa t=-58.5C h=4.6% 401.40MHz Type=RS41-SGP batt=2.6V Join https://groups.io/g/Balloons
KG7GDB-12U22312442022-12-07 00:12:5744.6868-122.8641533017763Clb=5.1m/s t=-58.4C h=1.3% p=75.9hPa 401.401 MHz Type=RS41-SGP ser=U2231244 Radiosonde
W7BDB-13U22312442022-12-07 00:12:5444.6869-122.8641523917758Clb=4.5m/s p=76.0hPa t=-58.4C h=4.6% 401.40MHz Type=RS41-SGP batt=2.6V Details on http://radiosondy.info
KE7WWCU22312442022-12-07 00:12:5344.687-122.8641454417748Clb=4.6m/s t=-58.4C h=1.4% p=76.1hPa 401.375 MHz Type=RS41-SGP ser=U2231244 Radiosonde
KJ7NUX-14U22312442022-12-07 00:12:5144.687-122.8641463917748Clb=4.5m/s p=76.1hPa t=-58.3C h=4.7% 401.40MHz Type=RS41-SGP batt=2.6V Details on http://radiosondy.info
WA9ONY-14U22312442022-12-07 00:12:4344.6874-122.8651413517728Clb=5.8m/s p=76.3hPa t=-58.2C h=4.6% 401.40MHz Type=RS41-SGP Join https://groups.io/g/Balloons
WA9ONY-14U22312442022-12-07 00:12:3744.6891-122.8661354317633Clb=4.8m/s p=77.5hPa t=-58.7C h=4.6% 401.40MHz Type=RS41-SGP batt=2.6V Join https://groups.io/g/Balloons
K6GDP-11U22312442022-12-07 00:12:3644.6891-122.8661363917628Clb=5.2m/s t=-58.9C h=1.4% p=77.6hPa 401.400 MHz Type=RS41-SGP ser=U2231244 Radiosonde
W7BDB-13U22312442022-12-07 00:12:3144.6894-122.8671374617613Clb=6.3m/s p=77.7hPa t=-59.0C h=4.7% 401.40MHz Type=RS41-SGP Details on http://radiosondy.info
KE7WWCU22312442022-12-07 00:12:2844.6897-122.8671434617593Clb=5.1m/s t=-59.1C h=1.4% p=78.0hPa 401.375 MHz Type=RS41-SGP ser=U2231244 Radiosonde
KJ7NUX-14U22312442022-12-07 00:12:2044.6899-122.8671395017582Clb=4.9m/s p=78.1hPa t=-59.0C h=4.6% 401.40MHz Type=RS41-SGP Details on http://radiosondy.info
WA9ONY-14U22312442022-12-07 00:12:1944.6899-122.8671394817582Clb=4.9m/s p=78.1hPa t=-59.0C h=4.6% 401.40MHz Type=RS41-SGP Join https://groups.io/g/Balloons
W7BDB-13U22312442022-12-07 00:12:0444.6907-122.8681555217539Clb=3.9m/s p=78.6hPa t=-59.0C h=4.7% 401.40MHz Type=RS41-SGP batt=2.7V Details on http://radiosondy.info
WA9ONY-14U22312442022-12-07 00:12:0344.6909-122.8681535217533Clb=5.5m/s p=78.7hPa t=-59.0C h=4.7% 401.40MHz Type=RS41-SGP Join https://groups.io/g/Balloons
KJ7NUX-14U22312442022-12-07 00:11:5744.6915-122.8691515417504Clb=6.2m/s p=79.1hPa t=-59.0C h=4.8% 401.40MHz Type=RS41-SGP TxPastBurst=8h30m batt=2.7V Details on http://radiosondy.info
WA9ONY-14U22312442022-12-07 00:11:5244.692-122.8691635617485Clb=4.1m/s p=79.3hPa t=-59.1C h=4.8% 401.40MHz Type=RS41-SGP TxPastBurst=8h30m batt=2.6V Join https://groups.io/g/Balloons
K6GDP-11U22312442022-12-07 00:11:5144.6922-122.8691595017475Clb=5.6m/s t=-59.2C h=1.5% p=79.5hPa 401.400 MHz Type=RS41-SGP ser=U2231244 Radiosonde
W7BDB-13U22312442022-12-07 00:11:4844.6925-122.8691565417466Clb=4.7m/s p=79.5hPa t=-59.1C h=4.8% 401.40MHz Type=RS41-SGP Details on http://radiosondy.info
KG7GDB-12U22312442022-12-07 00:11:4744.6926-122.8691545717461Clb=5.3m/s t=-59.1C h=1.4% p=79.7hPa 401.401 MHz Type=RS41-SGP ser=U2231244 Radiosonde
KE7WWCU22312442022-12-07 00:11:4644.693-122.871475717445Clb=4.4m/s t=-59.0C h=1.5% p=79.9hPa 401.375 MHz Type=RS41-SGP ser=U2231244 Radiosonde
WA9ONY-14U22312442022-12-07 00:11:4244.6932-122.871515017436Clb=4.5m/s p=79.9hPa t=-58.9C h=4.8% 401.40MHz Type=RS41-SGP Join https://groups.io/g/Balloons
KJ7NUX-14U22312442022-12-07 00:11:4044.6934-122.871515217426Clb=5.9m/s p=80.1hPa t=-58.8C h=4.7% 401.40MHz Type=RS41-SGP Details on http://radiosondy.info
W7BDB-12U22312442022-12-07 00:11:3844.6941-122.871515217397Clb=5.3m/s t=-58.7C h=1.4% p=80.5hPa 401.399 MHz Type=RS41-SGP ser=U2231244 Radiosonde
W7BDB-13U22312442022-12-07 00:11:3744.6942-122.871505417393Clb=4.6m/s p=80.5hPa t=-58.6C h=4.7% 401.40MHz Type=RS41-SGP Details on http://radiosondy.info
WA9ONY-14U22312442022-12-07 00:11:3644.6943-122.8711505417388Clb=4.8m/s p=80.6hPa t=-58.6C h=4.6% 401.40MHz Type=RS41-SGP Join https://groups.io/g/Balloons
KJ7NUX-14U22312442022-12-07 00:11:2744.6952-122.8711475217348Clb=5.1m/s p=81.1hPa t=-58.6C h=4.7% 401.40MHz Type=RS41-SGP Details on http://radiosondy.info
WA9ONY-14U22312442022-12-07 00:11:2544.6954-122.8721485217338Clb=4.0m/s p=81.2hPa t=-58.6C h=4.8% 401.40MHz Type=RS41-SGP batt=2.6V Join https://groups.io/g/Balloons
K6GDP-11U22312442022-12-07 00:11:2244.6958-122.8721485417324Clb=4.0m/s t=-58.6C h=1.5% p=81.4hPa 401.400 MHz Type=RS41-SGP ser=U2231244 Radiosonde
W7BDB-13U22312442022-12-07 00:11:2144.6959-122.8721475217319Clb=5.2m/s p=81.4hPa t=-58.5C h=4.7% 401.40MHz Type=RS41-SGP TxPastBurst=8h30m batt=2.6V Details on http://radiosondy.info
KG7GDB-12U22312442022-12-07 00:11:1944.6961-122.8721455217310Clb=4.4m/s t=-58.6C h=1.5% p=81.6hPa 401.401 MHz Type=RS41-SGP ser=U2231244 Radiosonde
WA9ONY-14U22312442022-12-07 00:11:1344.6966-122.8731465017290Clb=5.3m/s p=81.8hPa t=-58.5C h=4.6% 401.40MHz Type=RS41-SGP Join https://groups.io/g/Balloons
KJ7NUX-14U22312442022-12-07 00:11:0944.697-122.8731474817270Clb=4.8m/s p=82.1hPa t=-58.4C h=4.7% 401.40MHz Type=RS41-SGP batt=2.7V Details on http://radiosondy.info
W7BDB-13U22312442022-12-07 00:11:0344.6975-122.8741424617245Clb=5.2m/s p=82.4hPa t=-58.4C h=4.6% 401.40MHz Type=RS41-SGP Details on http://radiosondy.info
WA9ONY-14U22312442022-12-07 00:11:0244.6976-122.8741404817240Clb=5.5m/s p=82.5hPa t=-58.4C h=4.6% 401.40MHz Type=RS41-SGP Join https://groups.io/g/Balloons
KJ7NUX-14U22312442022-12-07 00:10:5544.6984-122.8751374417191Clb=4.7m/s p=83.1hPa t=-58.7C h=4.7% 401.40MHz Type=RS41-SGP Details on http://radiosondy.info
K6GDP-11U22312442022-12-07 00:10:5444.6987-122.8751294617170Clb=5.9m/s t=-58.9C h=1.5% p=83.4hPa 401.400 MHz Type=RS41-SGP ser=U2231244 Radiosonde
KG7GDB-12U22312442022-12-07 00:10:5344.699-122.8761305017156Clb=5.2m/s t=-58.9C h=1.6% p=83.6hPa 401.401 MHz Type=RS41-SGP ser=U2231244 Radiosonde
WA9ONY-14U22312442022-12-07 00:10:5244.6992-122.8761324317142Clb=4.8m/s p=83.8hPa t=-58.9C h=4.8% 401.40MHz Type=RS41-SGP Join https://groups.io/g/Balloons
KJ7NUX-14U22312442022-12-07 00:10:5044.6997-122.8771385017113Clb=3.8m/s p=84.1hPa t=-58.9C h=4.7% 401.40MHz Type=RS41-SGP Details on http://radiosondy.info
W7BDB-12U22312442022-12-07 00:10:4944.6999-122.8771355017098Clb=5.9m/s t=-59.1C h=1.5% p=84.4hPa 401.399 MHz Type=RS41-SGP ser=U2231244 Radiosonde
W7BDB-13U22312442022-12-07 00:10:4844.7001-122.8771374817088Clb=5.0m/s p=84.5hPa t=-59.1C h=4.8% 401.40MHz Type=RS41-SGP batt=2.7V Details on http://radiosondy.info
WA9ONY-14U22312442022-12-07 00:10:4544.701-122.8781434417047Clb=5.0m/s p=85.0hPa t=-59.1C h=4.8% 401.40MHz Type=RS41-SGP TxPastBurst=8h30m batt=2.6V Join https://groups.io/g/Balloons
KJ7NUX-14U22312442022-12-07 00:10:4444.7012-122.8781384317037Clb=4.2m/s p=85.2hPa t=-59.1C h=4.7% 401.40MHz Type=RS41-SGP batt=2.7V Details on http://radiosondy.info
K6GDP-11U22312442022-12-07 00:10:4344.7015-122.8791354317019Clb=5.5m/s t=-59.2C h=1.5% p=85.5hPa 401.400 MHz Type=RS41-SGP ser=U2231244 Radiosonde
W7BDB-13U22312442022-12-07 00:10:4244.7016-122.8791334117014Clb=4.9m/s p=85.5hPa t=-59.1C h=4.9% 401.40MHz Type=RS41-SGP Details on http://radiosondy.info
KJ7NUX-14U22312442022-12-07 00:10:3544.7025-122.881414116962Clb=3.9m/s p=86.2hPa t=-59.7C h=5.3% 401.40MHz Type=RS41-SGP Details on http://radiosondy.info
WA9ONY-14U22312442022-12-07 00:10:3244.7026-122.881384316953Clb=5.4m/s p=86.3hPa t=-59.7C h=5.2% 401.40MHz Type=RS41-SGP Join https://groups.io/g/Balloons
W7BDB-13U22312442022-12-07 00:10:2944.7029-122.881384316939Clb=5.4m/s p=86.5hPa t=-59.5C h=5.0% 401.40MHz Type=RS41-SGP Details on http://radiosondy.info
WA9ONY-14U22312442022-12-07 00:10:2344.7034-122.8811544416905Clb=5.9m/s p=87.0hPa t=-59.3C h=4.8% 401.40MHz Type=RS41-SGP batt=2.6V Join https://groups.io/g/Balloons
KJ7NUX-14U22312442022-12-07 00:10:2044.7038-122.8811474616885Clb=4.5m/s p=87.2hPa t=-59.1C h=5.1% 401.40MHz Type=RS41-SGP Details on http://radiosondy.info
K6GDP-11U22312442022-12-07 00:10:1844.7041-122.8811415016872Clb=4.5m/s t=-59.1C h=1.7% p=87.5hPa 401.400 MHz Type=RS41-SGP ser=U2231244 Radiosonde
W7BDB-13U22312442022-12-07 00:10:1644.7042-122.8821424816868Clb=3.6m/s p=87.5hPa t=-59.0C h=5.0% 401.40MHz Type=RS41-SGP batt=2.7V Details on http://radiosondy.info
WA9ONY-14U22312442022-12-07 00:10:1444.7044-122.8821444616858Clb=4.4m/s p=87.6hPa t=-58.9C h=4.8% 401.40MHz Type=RS41-SGP Join https://groups.io/g/Balloons
KJ7NUX-14U22312442022-12-07 00:10:0344.7053-122.8831475216810Clb=5.6m/s p=88.3hPa t=-58.8C h=4.8% 401.40MHz Type=RS41-SGP TxPastBurst=8h30m batt=2.7V Details on http://radiosondy.info
WA9ONY-14U22312442022-12-07 00:10:0244.7053-122.8831475016810Clb=5.6m/s p=88.3hPa t=-58.8C h=4.8% 401.40MHz Type=RS41-SGP Join https://groups.io/g/Balloons
W7BDB-13U22312442022-12-07 00:10:0144.7056-122.8831485216794Clb=4.6m/s p=88.5hPa t=-58.8C h=4.8% 401.40MHz Type=RS41-SGP Details on http://radiosondy.info
KJ7NUX-14U22312442022-12-07 00:10:0044.7069-122.8851456116731Clb=6.2m/s p=89.4hPa t=-58.7C h=4.9% 401.40MHz Type=RS41-SGP Details on http://radiosondy.info
KE7WWCU22312442022-12-07 00:09:5944.7076-122.8851425716700Clb=5.1m/s t=-59.0C h=1.6% p=89.9hPa 401.375 MHz Type=RS41-SGP ser=U2231244 Radiosonde
WA9ONY-14U22312442022-12-07 00:09:5744.7086-122.8861407016658Clb=5.4m/s p=90.4hPa t=-59.0C h=5.0% 401.40MHz Type=RS41-SGP Join https://groups.io/g/Balloons
W7BDB-13U22312442022-12-07 00:09:5644.7089-122.8871396916643Clb=5.3m/s p=90.7hPa t=-59.0C h=5.1% 401.40MHz Type=RS41-SGP TxPastBurst=8h30m batt=2.6V Details on http://radiosondy.info
WA9ONY-14U22312442022-12-07 00:09:5544.7098-122.8881346716607Clb=5.9m/s p=91.2hPa t=-59.2C h=4.8% 401.40MHz Type=RS41-SGP TxPastBurst=8h30m batt=2.6V Join https://groups.io/g/Balloons
W7BDB-13U22312442022-12-07 00:09:5344.7107-122.8891317416566Clb=5.5m/s p=91.8hPa t=-59.3C h=5.1% 401.40MHz Type=RS41-SGP Details on http://radiosondy.info
WA9ONY-14U22312442022-12-07 00:09:5244.711-122.891327216556Clb=5.7m/s p=91.9hPa t=-59.4C h=5.0% 401.40MHz Type=RS41-SGP Join https://groups.io/g/Balloons
WA9ONY-14U22312442022-12-07 00:09:4944.7121-122.8921337016506Clb=4.8m/s p=92.6hPa t=-59.5C h=5.1% 401.40MHz Type=RS41-SGP Join https://groups.io/g/Balloons
W7BDB-13U22312442022-12-07 00:09:4844.7141-122.8951286716410Clb=6.1m/s p=94.1hPa t=-59.2C h=4.9% 401.40MHz Type=RS41-SGP batt=2.6V Details on http://radiosondy.info
KG7GDB-12U22312442022-12-07 00:09:4744.7144-122.8961265916395Clb=5.3m/s t=-59.3C h=1.8% p=94.4hPa 401.401 MHz Type=RS41-SGP ser=U2231244 Radiosonde
W7BDB-13U22312442022-12-07 00:09:4644.7172-122.9011247416258Clb=4.9m/s p=96.4hPa t=-59.3C h=5.1% 401.40MHz Type=RS41-SGP Details on http://radiosondy.info
W7BDB-13U22312442022-12-07 00:09:4544.7187-122.9051237416183Clb=5.4m/s p=97.5hPa t=-58.8C h=5.1% 401.40MHz Type=RS41-SGP batt=2.7V Details on http://radiosondy.info
W7BDB-13U22312442022-12-07 00:09:4444.7202-122.9081186916108Clb=5.8m/s p=98.7hPa t=-58.4C h=4.9% 401.40MHz Type=RS41-SGP Details on http://radiosondy.info
KJ7NUX-14U22312442022-12-07 00:09:4344.722-122.9121255716006Clb=4.5m/s p=100.3hPa t=-58.2C h=4.7% 401.40MHz Type=RS41-SGP Details on http://radiosondy.info
K6GDP-11U22312442022-12-07 00:09:4244.7231-122.9141285415943Clb=5.5m/s t=-58.2C h=1.6% p=101.3hPa 401.400 MHz Type=RS41-SGP ser=U2231244 Radiosonde
WA9ONY-14U22312442022-12-07 00:09:4144.7252-122.9181224815815Clb=4.1m/s p=103.4hPa t=-57.8C h=4.7% 401.40MHz Type=RS41-SGP Join https://groups.io/g/Balloons
WA9ONY-14U22312442022-12-07 00:09:4044.7259-122.9191244815769Clb=4.9m/s p=104.1hPa t=-57.7C h=4.7% 401.40MHz Type=RS41-SGP Join https://groups.io/g/Balloons
W7BDB-13U22312442022-12-07 00:09:3944.7263-122.921145015736Clb=5.1m/s p=104.6hPa t=-57.6C h=4.6% 401.40MHz Type=RS41-SGP batt=2.6V Details on http://radiosondy.info
WA9ONY-14U22312442022-12-07 00:09:3744.7264-122.9211185215721Clb=4.9m/s p=104.9hPa t=-57.5C h=4.7% 401.40MHz Type=RS41-SGP TxPastBurst=8h30m batt=2.7V Join https://groups.io/g/Balloons
KJ7NUX-14U22312442022-12-07 00:09:3444.7267-122.9211205015702Clb=5.3m/s p=105.2hPa t=-57.5C h=4.6% 401.40MHz Type=RS41-SGP Details on http://radiosondy.info
WA9ONY-14U22312442022-12-07 00:09:2844.7271-122.9221245015673Clb=3.6m/s p=105.7hPa t=-57.3C h=4.6% 401.40MHz Type=RS41-SGP Join https://groups.io/g/Balloons
W7BDB-13U22312442022-12-07 00:09:2444.7273-122.9231184815660Clb=3.6m/s p=105.9hPa t=-57.3C h=4.6% 401.40MHz Type=RS41-SGP Details on http://radiosondy.info
K6GDP-11U22312442022-12-07 00:09:2244.7274-122.9231155015651Clb=4.9m/s t=-57.3C h=1.5% p=106.2hPa 401.400 MHz Type=RS41-SGP ser=U2231244 Radiosonde
KG7GDB-12U22312442022-12-07 00:09:1844.7277-122.9241224415628Clb=4.8m/s t=-57.3C h=1.5% p=106.5hPa 401.401 MHz Type=RS41-SGP ser=U2231244 Radiosonde
KJ7NUX-14U22312442022-12-07 00:09:1344.7277-122.9241234815628Clb=4.7m/s p=106.5hPa t=-57.2C h=4.5% 401.40MHz Type=RS41-SGP batt=2.6V Details on http://radiosondy.info
W7BDB-13U22312442022-12-07 00:08:5744.7283-122.9251245415587Clb=3.9m/s p=107.2hPa t=-57.2C h=4.6% 401.40MHz Type=RS41-SGP Details on http://radiosondy.info
WA9ONY-14U22312442022-12-07 00:08:5544.7283-122.9251265415581Clb=5.4m/s p=107.3hPa t=-57.1C h=4.5% 401.40MHz Type=RS41-SGP batt=2.7V Join https://groups.io/g/Balloons
KJ7NUX-14U22312442022-12-07 00:08:4744.7289-122.9261355215551Clb=4.2m/s p=107.8hPa t=-56.9C h=4.5% 401.40MHz Type=RS41-SGP Details on http://radiosondy.info
WA9ONY-14U22312442022-12-07 00:08:3944.7292-122.9261275215533Clb=4.9m/s p=108.1hPa t=-56.8C h=4.5% 401.40MHz Type=RS41-SGP Join https://groups.io/g/Balloons
W7BDB-13U22312442022-12-07 00:08:3444.7295-122.9271235615513Clb=4.8m/s p=108.4hPa t=-56.7C h=4.4% 401.40MHz Type=RS41-SGP batt=2.7V Details on http://radiosondy.info
K6GDP-11U22312442022-12-07 00:08:3144.7297-122.9271264815505Clb=5.0m/s t=-56.9C h=1.5% p=108.6hPa 401.400 MHz Type=RS41-SGP ser=U2231244 Radiosonde
KG7GDB-12U22312442022-12-07 00:08:2744.7299-122.9281305415491Clb=5.4m/s t=-56.9C h=1.5% p=108.9hPa 401.401 MHz Type=RS41-SGP ser=U2231244 Radiosonde
WA9ONY-14U22312442022-12-07 00:08:2444.73-122.9281335915486Clb=3.8m/s p=108.9hPa t=-56.9C h=4.5% 401.40MHz Type=RS41-SGP Join https://groups.io/g/Balloons
KJ7NUX-14U22312442022-12-07 00:08:2244.7302-122.9281355915477Clb=4.3m/s p=109.0hPa t=-57.0C h=4.5% 401.40MHz Type=RS41-SGP Details on http://radiosondy.info
WA9ONY-14U22312442022-12-07 00:08:0844.7309-122.9291255915437Clb=4.6m/s p=109.7hPa t=-56.8C h=4.5% 401.40MHz Type=RS41-SGP batt=2.7V Join https://groups.io/g/Balloons
KJ7NUX-14U22312442022-12-07 00:07:5644.7317-122.9311305915399Clb=4.2m/s p=110.4hPa t=-56.5C h=4.4% 401.40MHz Type=RS41-SGP TxPastBurst=8h30m batt=2.6V Details on http://radiosondy.info
WA9ONY-14U22312442022-12-07 00:07:5344.7318-122.9311255715388Clb=4.9m/s p=110.6hPa t=-56.5C h=4.4% 401.40MHz Type=RS41-SGP Join https://groups.io/g/Balloons
W7BDB-13U22312442022-12-07 00:07:4544.7323-122.9321256115363Clb=4.9m/s p=111.0hPa t=-56.4C h=4.4% 401.40MHz Type=RS41-SGP Details on http://radiosondy.info
K6GDP-11U22312442022-12-07 00:07:4244.7324-122.9321285615352Clb=4.5m/s t=-56.5C h=1.5% p=111.3hPa 401.400 MHz Type=RS41-SGP ser=U2231244 Radiosonde
KG7GDB-12U22312442022-12-07 00:07:3744.7327-122.9331265915339Clb=3.9m/s t=-56.5C h=1.5% p=111.5hPa 401.401 MHz Type=RS41-SGP ser=U2231244 Radiosonde
WA9ONY-14U22312442022-12-07 00:07:3644.7327-122.9331276315339Clb=3.9m/s p=111.5hPa t=-56.4C h=4.3% 401.40MHz Type=RS41-SGP Join https://groups.io/g/Balloons
KE7WWCU22312442022-12-07 00:07:3544.7328-122.9331265915334Clb=5.1m/s t=-56.5C h=1.5% p=111.6hPa 401.375 MHz Type=RS41-SGP ser=U2231244 Radiosonde
KJ7NUX-14U22312442022-12-07 00:07:2544.7332-122.9341226315309Clb=5.7m/s p=111.9hPa t=-56.3C h=4.3% 401.40MHz Type=RS41-SGP Details on http://radiosondy.info
W7BDB-13U22312442022-12-07 00:07:1844.7335-122.9351176715290Clb=4.2m/s p=112.3hPa t=-56.5C h=4.3% 401.40MHz Type=RS41-SGP TxPastBurst=8h30m batt=2.6V Details on http://radiosondy.info
WA9ONY-14U22312442022-12-07 00:07:0244.7344-122.9371267015242Clb=4.7m/s p=113.1hPa t=-56.6C h=4.4% 401.40MHz Type=RS41-SGP Join https://groups.io/g/Balloons
KJ7NUX-14U22312442022-12-07 00:06:5944.7345-122.9371267015233Clb=4.9m/s p=113.3hPa t=-56.7C h=4.4% 401.40MHz Type=RS41-SGP Details on http://radiosondy.info
W7BDB-13U22312442022-12-07 00:06:5344.7349-122.9381237015212Clb=4.9m/s p=113.7hPa t=-56.8C h=4.4% 401.40MHz Type=RS41-SGP Details on http://radiosondy.info
K6GDP-11U22312442022-12-07 00:06:4944.7351-122.9381217215203Clb=5.8m/s t=-56.9C h=1.5% p=113.9hPa 401.400 MHz Type=RS41-SGP ser=U2231244 Radiosonde
WA9ONY-14U22312442022-12-07 00:06:4644.7353-122.9391246915193Clb=5.3m/s p=114.0hPa t=-57.0C h=4.5% 401.40MHz Type=RS41-SGP Join https://groups.io/g/Balloons
KE7WWCU22312442022-12-07 00:06:4344.7361-122.941286715153Clb=5.6m/s t=-57.0C h=1.5% p=114.8hPa 401.375 MHz Type=RS41-SGP ser=U2231244 Radiosonde
KJ7NUX-14U22312442022-12-07 00:06:3144.7361-122.941296515153Clb=5.5m/s p=114.7hPa t=-57.0C h=4.5% 401.40MHz Type=RS41-SGP batt=2.7V Details on http://radiosondy.info
WA9ONY-14U22312442022-12-07 00:06:2844.7363-122.941286315144Clb=4.0m/s p=114.9hPa t=-56.9C h=4.5% 401.40MHz Type=RS41-SGP batt=2.7V Join https://groups.io/g/Balloons
WA9ONY-14U22312442022-12-07 00:06:1144.7373-122.9421296715096Clb=3.6m/s p=115.7hPa t=-56.7C h=4.6% 401.40MHz Type=RS41-SGP Join https://groups.io/g/Balloons
KJ7NUX-14U22312442022-12-07 00:06:0444.7377-122.9431376315077Clb=5.9m/s p=116.1hPa t=-56.6C h=4.4% 401.40MHz Type=RS41-SGP Details on http://radiosondy.info
W7BDB-13U22312442022-12-07 00:05:5844.7381-122.9441376315064Clb=5.4m/s p=116.3hPa t=-56.6C h=4.5% 401.40MHz Type=RS41-SGP batt=2.7V Details on http://radiosondy.info
K6GDP-11U22312442022-12-07 00:05:5544.7383-122.9441325915053Clb=5.1m/s t=-56.6C h=1.5% p=116.6hPa 401.400 MHz Type=RS41-SGP ser=U2231244 Radiosonde
WA9ONY-14U22312442022-12-07 00:05:5344.7384-122.9441336315049Clb=4.7m/s p=116.6hPa t=-56.5C h=4.4% 401.40MHz Type=RS41-SGP Join https://groups.io/g/Balloons
KG7GDB-12U22312442022-12-07 00:05:5144.7387-122.9441325915033Clb=4.6m/s t=-56.5C h=1.5% p=117.0hPa 401.401 MHz Type=RS41-SGP ser=U2231244 Radiosonde
KE7WWCU22312442022-12-07 00:05:4844.7388-122.9451326115028Clb=5.1m/s t=-56.5C h=1.5% p=117.0hPa 401.375 MHz Type=RS41-SGP ser=U2231244 Radiosonde
KJ7NUX-14U22312442022-12-07 00:05:3644.7394-122.9461315715000Clb=4.6m/s p=117.5hPa t=-56.3C h=4.3% 401.40MHz Type=RS41-SGP Details on http://radiosondy.info
WA9ONY-14U22312442022-12-07 00:05:3544.7394-122.9461315615000Clb=4.6m/s p=117.5hPa t=-56.3C h=4.3% 401.40MHz Type=RS41-SGP batt=2.7V Join https://groups.io/g/Balloons
W7BDB-13U22312442022-12-07 00:05:3244.7396-122.9461315614989Clb=4.8m/s p=117.7hPa t=-56.3C h=4.4% 401.40MHz Type=RS41-SGP Details on http://radiosondy.info
WA9ONY-14U22312442022-12-07 00:05:2044.7403-122.9471315714952Clb=4.6m/s p=118.5hPa t=-56.2C h=4.4% 401.40MHz Type=RS41-SGP Join https://groups.io/g/Balloons
KJ7NUX-14U22312442022-12-07 00:05:1044.7409-122.9481305214922Clb=5.7m/s p=119.0hPa t=-56.3C h=4.3% 401.40MHz Type=RS41-SGP batt=2.6V Details on http://radiosondy.info
W7BDB-13U22312442022-12-07 00:05:0544.741-122.9481335214912Clb=4.7m/s p=119.1hPa t=-56.3C h=4.4% 401.40MHz Type=RS41-SGP Details on http://radiosondy.info
K6GDP-11U22312442022-12-07 00:05:0244.7412-122.9491304814903Clb=5.2m/s t=-56.3C h=1.6% p=119.4hPa 401.400 MHz Type=RS41-SGP ser=U2231244 Radiosonde
KG7GDB-12U22312442022-12-07 00:04:5744.7415-122.9491304614884Clb=4.0m/s t=-56.1C h=1.5% p=119.8hPa 401.401 MHz Type=RS41-SGP ser=U2231244 Radiosonde
KE7WWCU22312442022-12-07 00:04:5544.7415-122.9491304614884Clb=4.0m/s t=-56.1C h=1.5% p=119.8hPa 401.375 MHz Type=RS41-SGP ser=U2231244 Radiosonde
WA9ONY-14U22312442022-12-07 00:04:4644.7421-122.951395414857Clb=4.2m/s p=120.2hPa t=-56.0C h=4.3% 401.40MHz Type=RS41-SGP TxPastBurst=8h30m batt=2.7V Join https://groups.io/g/Balloons
KJ7NUX-14U22312442022-12-07 00:04:4344.7423-122.951365214848Clb=5.1m/s p=120.3hPa t=-56.1C h=4.3% 401.40MHz Type=RS41-SGP Details on http://radiosondy.info
W7BDB-13U22312442022-12-07 00:04:4044.7425-122.9511345014838Clb=5.3m/s p=120.5hPa t=-56.1C h=4.3% 401.40MHz Type=RS41-SGP batt=2.7V Details on http://radiosondy.info
WA9ONY-14U22312442022-12-07 00:04:3144.7429-122.9511254814808Clb=4.0m/s p=121.1hPa t=-56.2C h=4.2% 401.40MHz Type=RS41-SGP Join https://groups.io/g/Balloons
KJ7NUX-14U22312442022-12-07 00:04:1844.7435-122.9521294814770Clb=5.4m/s p=121.9hPa t=-56.4C h=4.5% 401.40MHz Type=RS41-SGP Details on http://radiosondy.info
WA9ONY-14U22312442022-12-07 00:04:1544.7437-122.9531235014761Clb=5.1m/s p=122.0hPa t=-56.4C h=4.5% 401.40MHz Type=RS41-SGP Join https://groups.io/g/Balloons
K6GDP-11U22312442022-12-07 00:04:1444.7437-122.9531184814756Clb=5.0m/s t=-56.3C h=1.6% p=122.2hPa 401.400 MHz Type=RS41-SGP ser=U2231244 Radiosonde
KG7GDB-12U22312442022-12-07 00:04:0844.744-122.9541175214736Clb=5.8m/s t=-56.2C h=1.5% p=122.5hPa 401.401 MHz Type=RS41-SGP ser=U2231244 Radiosonde
KE7WWCU22312442022-12-07 00:04:0644.744-122.9541175014732Clb=3.9m/s t=-56.2C h=1.6% p=122.7hPa 401.375 MHz Type=RS41-SGP ser=U2231244 Radiosonde
WA9ONY-14U22312442022-12-07 00:03:5844.7442-122.9541184614711Clb=6.2m/s p=122.9hPa t=-56.4C h=4.4% 401.40MHz Type=RS41-SGP batt=2.7V Join https://groups.io/g/Balloons
KJ7NUX-14U22312442022-12-07 00:03:5244.7445-122.9551264814692Clb=4.0m/s p=123.3hPa t=-56.6C h=4.5% 401.40MHz Type=RS41-SGP TxPastBurst=8h30m batt=2.7V Details on http://radiosondy.info
W7BDB-13U22312442022-12-07 00:03:5044.7445-122.9551264814687Clb=5.2m/s p=123.4hPa t=-56.6C h=4.5% 401.40MHz Type=RS41-SGP Details on http://radiosondy.info
WA9ONY-14U22312442022-12-07 00:03:4344.7449-122.9561284814663Clb=4.2m/s p=123.9hPa t=-56.4C h=4.5% 401.40MHz Type=RS41-SGP Join https://groups.io/g/Balloons
KJ7NUX-14U22312442022-12-07 00:03:2744.7456-122.9571205414615Clb=5.5m/s p=124.8hPa t=-56.1C h=4.4% 401.40MHz Type=RS41-SGP Details on http://radiosondy.info
WA9ONY-14U22312442022-12-07 00:03:2644.7456-122.9571205214615Clb=5.5m/s p=124.8hPa t=-56.1C h=4.4% 401.40MHz Type=RS41-SGP Join https://groups.io/g/Balloons
K6GDP-11U22312442022-12-07 00:03:2344.7457-122.9571215214605Clb=4.7m/s t=-56.2C h=1.6% p=125.0hPa 401.400 MHz Type=RS41-SGP ser=U2231244 Radiosonde
KG7GDB-12U22312442022-12-07 00:03:1844.7459-122.9581215214592Clb=5.2m/s t=-56.1C h=1.6% p=125.4hPa 401.401 MHz Type=RS41-SGP ser=U2231244 Radiosonde
KE7WWCU22312442022-12-07 00:03:1544.7461-122.9581235214583Clb=5.3m/s t=-56.0C h=1.6% p=125.5hPa 401.375 MHz Type=RS41-SGP ser=U2231244 Radiosonde
WA9ONY-14U22312442022-12-07 00:03:0944.7463-122.9591245714569Clb=5.0m/s p=125.8hPa t=-55.9C h=4.3% 401.40MHz Type=RS41-SGP batt=2.6V Join https://groups.io/g/Balloons
KJ7NUX-14U22312442022-12-07 00:03:0044.7467-122.961216114542Clb=3.0m/s p=126.3hPa t=-55.7C h=4.3% 401.40MHz Type=RS41-SGP Details on http://radiosondy.info
WA9ONY-14U22312442022-12-07 00:02:5344.7471-122.961216314524Clb=5.0m/s p=126.6hPa t=-55.8C h=4.4% 401.40MHz Type=RS41-SGP Join https://groups.io/g/Balloons
WA9ONY-14U22312442022-12-07 00:02:4044.7478-122.9621176314478Clb=4.2m/s p=127.5hPa t=-55.8C h=4.4% 401.40MHz Type=RS41-SGP Join https://groups.io/g/Balloons
W7BDB-13U22312442022-12-07 00:02:3844.7479-122.9621186314473Clb=4.4m/s p=127.6hPa t=-55.8C h=4.3% 401.40MHz Type=RS41-SGP Details on http://radiosondy.info
KJ7NUX-14U22312442022-12-07 00:02:3644.748-122.9631196514469Clb=4.7m/s p=127.8hPa t=-55.8C h=4.3% 401.40MHz Type=RS41-SGP batt=2.7V Details on http://radiosondy.info
K6GDP-11U22312442022-12-07 00:02:3244.748-122.9631186114464Clb=4.3m/s t=-55.8C h=1.5% p=127.8hPa 401.400 MHz Type=RS41-SGP ser=U2231244 Radiosonde
KG7GDB-12U22312442022-12-07 00:02:2844.7483-122.9641206314445Clb=3.7m/s t=-55.9C h=1.6% p=128.2hPa 401.401 MHz Type=RS41-SGP ser=U2231244 Radiosonde
KE7WWCU22312442022-12-07 00:02:2544.7484-122.9641186314441Clb=4.2m/s t=-55.9C h=1.6% p=128.3hPa 401.374 MHz Type=RS41-SGP ser=U2231244 Radiosonde
WA9ONY-14U22312442022-12-07 00:02:2044.7486-122.9641166714433Clb=4.0m/s p=128.4hPa t=-55.8C h=4.3% 401.40MHz Type=RS41-SGP TxPastBurst=8h30m batt=2.7V Join https://groups.io/g/Balloons
W7BDB-13U22312442022-12-07 00:02:1044.749-122.9661176114399Clb=3.2m/s p=129.1hPa t=-55.8C h=4.5% 401.40MHz Type=RS41-SGP batt=2.7V Details on http://radiosondy.info
KJ7NUX-14U22312442022-12-07 00:02:0844.7491-122.9661175914395Clb=4.6m/s p=129.2hPa t=-55.8C h=4.5% 401.40MHz Type=RS41-SGP Details on http://radiosondy.info
WA9ONY-14U22312442022-12-07 00:02:0444.7493-122.9661195914386Clb=3.7m/s p=129.3hPa t=-55.8C h=4.4% 401.40MHz Type=RS41-SGP Join https://groups.io/g/Balloons
WA9ONY-14U22312442022-12-07 00:01:4744.7501-122.9681255614344Clb=4.3m/s p=130.2hPa t=-55.8C h=4.3% 401.40MHz Type=RS41-SGP Join https://groups.io/g/Balloons
W7BDB-13U22312442022-12-07 00:01:4444.7502-122.9681255414334Clb=3.7m/s p=130.5hPa t=-55.7C h=4.4% 401.40MHz Type=RS41-SGP Details on http://radiosondy.info
KJ7NUX-14U22312442022-12-07 00:01:4044.7504-122.9691245414326Clb=4.5m/s p=130.6hPa t=-55.7C h=4.3% 401.40MHz Type=RS41-SGP Details on http://radiosondy.info
K6GDP-11U22312442022-12-07 00:01:3944.7504-122.9691235414326Clb=4.6m/s t=-55.7C h=1.6% p=130.7hPa 401.400 MHz Type=RS41-SGP ser=U2231244 Radiosonde
KG7GDB-12U22312442022-12-07 00:01:3444.7506-122.9691195614312Clb=4.1m/s t=-55.7C h=1.7% p=130.9hPa 401.401 MHz Type=RS41-SGP ser=U2231244 Radiosonde
KE7WWCU22312442022-12-07 00:01:3144.7507-122.9691175214302Clb=4.2m/s t=-55.6C h=1.7% p=131.1hPa 401.374 MHz Type=RS41-SGP ser=U2231244 Radiosonde
WA9ONY-14U22312442022-12-07 00:01:2944.7508-122.971205414299Clb=3.3m/s p=131.1hPa t=-55.6C h=4.4% 401.40MHz Type=RS41-SGP batt=2.7V Join https://groups.io/g/Balloons
W7BDB-13U22312442022-12-07 00:01:1744.7513-122.9711305414266Clb=3.8m/s p=131.8hPa t=-55.4C h=4.2% 401.40MHz Type=RS41-SGP Details on http://radiosondy.info
WA9ONY-14U22312442022-12-07 00:01:1244.7516-122.9711235614253Clb=2.4m/s p=132.1hPa t=-55.5C h=4.3% 401.40MHz Type=RS41-SGP Join https://groups.io/g/Balloons
WA9ONY-14U22312442022-12-07 00:00:5444.7524-122.9731275014206Clb=4.4m/s p=133.1hPa t=-56.2C h=4.6% 401.40MHz Type=RS41-SGP Join https://groups.io/g/Balloons
W7BDB-13U22312442022-12-07 00:00:4844.7526-122.9731295214197Clb=3.8m/s p=133.2hPa t=-56.3C h=4.6% 401.40MHz Type=RS41-SGP batt=2.6V Details on http://radiosondy.info
K6GDP-11U22312442022-12-07 00:00:4444.7528-122.9741264614183Clb=4.9m/s t=-56.4C h=1.7% p=133.6hPa 401.400 MHz Type=RS41-SGP ser=U2231244 Radiosonde
KJ7NUX-14U22312442022-12-07 00:00:4344.7528-122.9741275414183Clb=4.8m/s p=133.5hPa t=-56.4C h=4.5% 401.40MHz Type=RS41-SGP Details on http://radiosondy.info
KG7GDB-12U22312442022-12-07 00:00:3844.7529-122.9741274814173Clb=4.0m/s t=-56.5C h=1.8% p=133.8hPa 401.401 MHz Type=RS41-SGP ser=U2231244 Radiosonde
KE7WWCU22312442022-12-07 00:00:3744.7531-122.9741324814164Clb=3.8m/s t=-273.0C h=-1.0% p=133.9hPa 401.374 MHz Type=RS41-SGP ser=U2231244 Radiosonde
WA9ONY-14U22312442022-12-07 00:00:3544.7532-122.9741375614160Clb=4.0m/s p=134.0hPa t=-56.5C h=4.5% 401.40MHz Type=RS41-SGP batt=2.7V Join https://groups.io/g/Balloons
W7BDB-13U22312442022-12-07 00:00:2144.754-122.9751295414125Clb=4.9m/s p=134.7hPa t=-56.6C h=4.7% 401.40MHz Type=RS41-SGP Details on http://radiosondy.info
KJ7NUX-14U22312442022-12-07 00:00:1844.7544-122.9761285214103Clb=5.2m/s p=135.2hPa t=-56.6C h=4.6% 401.40MHz Type=RS41-SGP Details on http://radiosondy.info
WA9ONY-14U22312442022-12-07 00:00:0144.7551-122.9771365014074Clb=4.5m/s p=135.9hPa t=-56.8C h=4.7% 401.40MHz Type=RS41-SGP Join https://groups.io/g/Balloons
W7BDB-13U22312442022-12-06 23:59:5744.7554-122.9771245014056Clb=3.7m/s p=136.2hPa t=-56.7C h=4.7% 401.40MHz Type=RS41-SGP Details on http://radiosondy.info
K6GDP-11U22312442022-12-06 23:59:5644.7555-122.9781274614047Clb=4.7m/s t=-56.7C h=1.9% p=136.5hPa 401.400 MHz Type=RS41-SGP ser=U2231244 Radiosonde
KG7GDB-12U22312442022-12-06 23:59:5344.7558-122.9781365014033Clb=3.6m/s t=-56.7C h=1.9% p=136.8hPa 401.401 MHz Type=RS41-SGP ser=U2231244 Radiosonde
WA9ONY-14U22312442022-12-06 23:59:5144.7559-122.9781405014029Clb=3.4m/s p=136.8hPa t=-56.7C h=4.7% 401.40MHz Type=RS41-SGP TxPastBurst=8h30m batt=2.7V Join https://groups.io/g/Balloons
KJ7NUX-14U22312442022-12-06 23:59:4844.7562-122.9791414814016Clb=4.6m/s p=137.0hPa t=-56.8C h=4.7% 401.40MHz Type=RS41-SGP TxPastBurst=8h30m batt=2.7V Details on http://radiosondy.info
W7BDB-13U22312442022-12-06 23:59:4144.7567-122.981224613984Clb=5.0m/s p=137.8hPa t=-56.9C h=4.8% 401.40MHz Type=RS41-SGP TxPastBurst=8h30m batt=2.7V Details on http://radiosondy.info
KJ7NUX-14U22312442022-12-06 23:59:3944.7574-122.9811274613942Clb=3.2m/s p=138.7hPa t=-56.9C h=4.7% 401.40MHz Type=RS41-SGP Details on http://radiosondy.info
W7BDB-12U22312442022-12-06 23:59:3844.7592-122.9831355013838Clb=4.6m/s t=-57.0C h=1.9% p=141.1hPa 401.399 MHz Type=RS41-SGP ser=U2231244 Radiosonde
K6GDP-11U22312442022-12-06 23:59:3744.7608-122.9851395213754Clb=5.7m/s t=-56.8C h=1.9% p=142.8hPa 401.400 MHz Type=RS41-SGP ser=U2231244 Radiosonde
W7BDB-13U22312442022-12-06 23:59:3644.7623-122.9871354813679Clb=4.5m/s p=144.5hPa t=-56.8C h=4.9% 401.40MHz Type=RS41-SGP Details on http://radiosondy.info
W7BDB-13U22312442022-12-06 23:59:3544.7635-122.9891374813609Clb=4.8m/s p=146.1hPa t=-56.6C h=4.8% 401.40MHz Type=RS41-SGP Details on http://radiosondy.info
KJ7NUX-14U22312442022-12-06 23:59:3444.7644-122.991325013564Clb=4.4m/s p=147.2hPa t=-56.8C h=4.9% 401.40MHz Type=RS41-SGP batt=2.7V Details on http://radiosondy.info
WA9ONY-14U22312442022-12-06 23:59:3144.7653-122.9911375713512Clb=4.6m/s p=148.4hPa t=-57.0C h=4.9% 401.40MHz Type=RS41-SGP Join https://groups.io/g/Balloons
KJ7NUX-14U22312442022-12-06 23:59:3044.7658-122.9921385613487Clb=4.6m/s p=149.0hPa t=-57.0C h=4.8% 401.40MHz Type=RS41-SGP Details on http://radiosondy.info
WA9ONY-14U22312442022-12-06 23:59:2844.7672-122.9941264413416Clb=4.2m/s p=150.6hPa t=-57.6C h=5.1% 401.40MHz Type=RS41-SGP Join https://groups.io/g/Balloons
KJ7NUX-14U22312442022-12-06 23:59:2744.7673-122.9941264613412Clb=5.0m/s p=150.8hPa t=-57.6C h=5.2% 401.40MHz Type=RS41-SGP Details on http://radiosondy.info
W7BDB-13U22312442022-12-06 23:59:2244.7676-122.9951324613389Clb=4.2m/s p=151.3hPa t=-57.8C h=5.3% 401.40MHz Type=RS41-SGP Details on http://radiosondy.info
WA9ONY-14U22312442022-12-06 23:59:1844.7679-122.9951354613370Clb=4.6m/s p=151.8hPa t=-57.7C h=5.3% 401.40MHz Type=RS41-SGP Join https://groups.io/g/Balloons
KJ7NUX-14U22312442022-12-06 23:59:0944.7685-122.9961304613337Clb=4.5m/s p=152.5hPa t=-57.7C h=5.3% 401.40MHz Type=RS41-SGP TxPastBurst=8h30m batt=2.7V Details on http://radiosondy.info
WA9ONY-14U22312442022-12-06 23:59:0644.7687-122.9961384413323Clb=3.9m/s p=152.8hPa t=-57.6C h=5.3% 401.40MHz Type=RS41-SGP batt=2.7V Join https://groups.io/g/Balloons
K6GDP-11U22312442022-12-06 23:59:0544.7688-122.9961384813318Clb=5.5m/s t=-57.6C h=2.3% p=153.0hPa 401.400 MHz Type=RS41-SGP ser=U2231244 Radiosonde
KG7GDB-12U22312442022-12-06 23:59:0344.7691-122.9971394413299Clb=5.1m/s t=-57.6C h=2.3% p=153.5hPa 401.401 MHz Type=RS41-SGP ser=U2231244 Radiosonde
WA9ONY-14U22312442022-12-06 23:59:0144.7696-122.9971424613276Clb=3.6m/s p=154.1hPa t=-57.4C h=5.3% 401.40MHz Type=RS41-SGP Join https://groups.io/g/Balloons
KJ7NUX-14U22312442022-12-06 23:59:0044.7714-122.9991475213186Clb=4.5m/s p=156.2hPa t=-57.4C h=5.4% 401.40MHz Type=RS41-SGP Details on http://radiosondy.info
KG7GDB-12U22312442022-12-06 23:58:5944.772-1231475213157Clb=5.0m/s t=-57.7C h=2.6% p=157.0hPa 401.401 MHz Type=RS41-SGP ser=U2231244 Radiosonde
WA9ONY-14U22312442022-12-06 23:58:5844.7746-123.0021495013039Clb=4.6m/s p=159.9hPa t=-57.3C h=5.9% 401.40MHz Type=RS41-SGP batt=2.7V Join https://groups.io/g/Balloons
W7BDB-13U22312442022-12-06 23:58:5744.7749-123.0031495213030Clb=4.1m/s p=160.2hPa t=-57.3C h=6.0% 401.40MHz Type=RS41-SGP Details on http://radiosondy.info
K6GDP-11U22312442022-12-06 23:58:5644.775-123.0031465013025Clb=5.3m/s t=-57.4C h=3.1% p=160.3hPa 401.400 MHz Type=RS41-SGP ser=U2231244 Radiosonde
KG7GDB-12U22312442022-12-06 23:58:5544.7753-123.0031404413011Clb=4.7m/s t=-57.2C h=3.1% p=160.6hPa 401.401 MHz Type=RS41-SGP ser=U2231244 Radiosonde
WA9ONY-14U22312442022-12-06 23:58:5044.7756-123.0031425412993Clb=5.1m/s p=161.1hPa t=-57.2C h=6.3% 401.40MHz Type=RS41-SGP Join https://groups.io/g/Balloons
KJ7NUX-14U22312442022-12-06 23:58:4344.7764-123.0041435212961Clb=5.4m/s p=161.9hPa t=-57.4C h=6.4% 401.40MHz Type=RS41-SGP Details on http://radiosondy.info
W7BDB-13U22312442022-12-06 23:58:4144.7765-123.0041415212956Clb=3.7m/s p=162.0hPa t=-57.4C h=6.5% 401.40MHz Type=RS41-SGP Details on http://radiosondy.info
WA9ONY-14U22312442022-12-06 23:58:3744.7767-123.0041405012947Clb=4.0m/s p=162.3hPa t=-57.6C h=6.6% 401.40MHz Type=RS41-SGP Join https://groups.io/g/Balloons
WA9ONY-14U22312442022-12-06 23:58:2144.7777-123.0061445412903Clb=4.4m/s p=163.4hPa t=-58.0C h=7.2% 401.40MHz Type=RS41-SGP batt=2.7V Join https://groups.io/g/Balloons
KJ7NUX-14U22312442022-12-06 23:58:1644.778-123.0061425712890Clb=4.0m/s p=163.7hPa t=-58.1C h=7.4% 401.40MHz Type=RS41-SGP batt=2.7V Details on http://radiosondy.info
K6GDP-11U22312442022-12-06 23:58:1444.7781-123.0061425012886Clb=5.2m/s t=-58.1C h=4.3% p=163.9hPa 401.400 MHz Type=RS41-SGP ser=U2231244 Radiosonde
KG7GDB-12U22312442022-12-06 23:58:1044.7784-123.0061415412872Clb=3.6m/s t=-58.2C h=4.5% p=164.2hPa 401.401 MHz Type=RS41-SGP ser=U2231244 Radiosonde
WA9ONY-14U22312442022-12-06 23:58:0544.7787-123.0071445912860Clb=4.7m/s p=164.5hPa t=-58.5C h=7.9% 401.40MHz Type=RS41-SGP Join https://groups.io/g/Balloons
KJ7NUX-14U22312442022-12-06 23:57:5044.7798-123.0081475412820Clb=3.6m/s p=165.5hPa t=-58.9C h=8.7% 401.40MHz Type=RS41-SGP Details on http://radiosondy.info
WA9ONY-14U22312442022-12-06 23:57:4844.7799-123.0081465612816Clb=5.1m/s p=165.7hPa t=-58.9C h=8.7% 401.40MHz Type=RS41-SGP Join https://groups.io/g/Balloons
WA9ONY-14U22312442022-12-06 23:57:2944.7809-123.0091395012774Clb=4.8m/s p=166.8hPa t=-59.2C h=9.3% 401.40MHz Type=RS41-SGP TxPastBurst=8h30m batt=2.7V Join https://groups.io/g/Balloons
W7BDB-13U22312442022-12-06 23:57:2244.7813-123.011454412756Clb=5.1m/s p=167.2hPa t=-59.3C h=9.5% 401.40MHz Type=RS41-SGP Details on http://radiosondy.info
KJ7NUX-14U22312442022-12-06 23:57:2044.7814-123.011454412752Clb=3.6m/s p=167.3hPa t=-59.3C h=9.6% 401.40MHz Type=RS41-SGP Details on http://radiosondy.info
KG7GDB-12U22312442022-12-06 23:57:1644.7818-123.011374812734Clb=5.1m/s t=-59.8C h=6.5% p=167.9hPa 401.401 MHz Type=RS41-SGP ser=U2231244 Radiosonde
WA9ONY-14U22312442022-12-06 23:57:1144.7819-123.011394312730Clb=4.0m/s p=167.9hPa t=-60.0C h=10.5% 401.40MHz Type=RS41-SGP Join https://groups.io/g/Balloons
W7BDB-13U22312442022-12-06 23:56:5544.7827-123.0111414412688Clb=4.9m/s p=169.1hPa t=-60.7C h=11.6% 401.40MHz Type=RS41-SGP TxPastBurst=8h30m batt=2.7V Details on http://radiosondy.info
KJ7NUX-14U22312442022-12-06 23:56:5344.7827-123.0111414412683Clb=3.3m/s p=169.2hPa t=-60.7C h=11.6% 401.40MHz Type=RS41-SGP TxPastBurst=8h30m batt=2.7V Details on http://radiosondy.info
WA9ONY-14U22312442022-12-06 23:56:3744.7835-123.0121414412644Clb=4.4m/s p=170.3hPa t=-61.2C h=11.9% 401.40MHz Type=RS41-SGP batt=2.7V Join https://groups.io/g/Balloons
W7BDB-13U22312442022-12-06 23:56:2644.784-123.0131414412616Clb=4.4m/s p=171.0hPa t=-61.0C h=12.3% 401.40MHz Type=RS41-SGP Details on http://radiosondy.info
KJ7NUX-14U22312442022-12-06 23:56:2544.7841-123.0131414412612Clb=4.6m/s p=171.2hPa t=-61.1C h=12.6% 401.40MHz Type=RS41-SGP Details on http://radiosondy.info
WA9ONY-14U22312442022-12-06 23:56:1944.7843-123.0131364612600Clb=4.5m/s p=171.5hPa t=-61.0C h=13.0% 401.40MHz Type=RS41-SGP Join https://groups.io/g/Balloons
WA9ONY-14U22312442022-12-06 23:56:0444.7852-123.0141394312556Clb=3.7m/s p=172.7hPa t=-61.4C h=13.2% 401.40MHz Type=RS41-SGP Join https://groups.io/g/Balloons
W7BDB-13U22312442022-12-06 23:56:0044.7854-123.0151384112547Clb=5.2m/s p=172.9hPa t=-61.4C h=13.2% 401.40MHz Type=RS41-SGP Details on http://radiosondy.info
KJ7NUX-14U22312442022-12-06 23:55:5844.7854-123.0151373912543Clb=5.0m/s p=173.1hPa t=-61.4C h=13.3% 401.40MHz Type=RS41-SGP Details on http://radiosondy.info
WA9ONY-14U22312442022-12-06 23:55:4844.7859-123.0151373712509Clb=4.0m/s p=174.1hPa t=-61.2C h=13.4% 401.40MHz Type=RS41-SGP batt=2.7V Join https://groups.io/g/Balloons
K6GDP-11U22312442022-12-06 23:55:3744.7864-123.0161403712477Clb=3.6m/s t=-60.9C h=9.2% p=175.0hPa 401.400 MHz Type=RS41-SGP ser=U2231244 Radiosonde
KJ7NUX-14U22312442022-12-06 23:55:3444.7866-123.0161363112468Clb=4.8m/s p=175.1hPa t=-60.8C h=13.6% 401.40MHz Type=RS41-SGP batt=2.7V Details on http://radiosondy.info
KG7GDB-12U22312442022-12-06 23:55:3244.7866-123.0161343112464Clb=3.5m/s t=-60.8C h=9.2% p=175.3hPa 401.401 MHz Type=RS41-SGP ser=U2231244 Radiosonde
WA9ONY-14U22312442022-12-06 23:55:3144.7866-123.0161353112464Clb=3.5m/s p=175.2hPa t=-60.7C h=13.5% 401.40MHz Type=RS41-SGP Join https://groups.io/g/Balloons
WA9ONY-14U22312442022-12-06 23:55:1544.7873-123.0171422612415Clb=5.7m/s p=176.6hPa t=-60.5C h=13.3% 401.40MHz Type=RS41-SGP Join https://groups.io/g/Balloons
W7BDB-13U22312442022-12-06 23:55:1044.7874-123.0171342812400Clb=3.6m/s p=177.1hPa t=-60.5C h=13.6% 401.40MHz Type=RS41-SGP Details on http://radiosondy.info
KJ7NUX-14U22312442022-12-06 23:55:0744.7875-123.0171432812390Clb=4.0m/s p=177.4hPa t=-60.5C h=14.1% 401.40MHz Type=RS41-SGP Details on http://radiosondy.info
WA9ONY-14U22312442022-12-06 23:55:0044.7878-123.0171592812365Clb=4.2m/s p=178.0hPa t=-60.8C h=15.0% 401.40MHz Type=RS41-SGP TxPastBurst=8h30m batt=2.7V Join https://groups.io/g/Balloons
K6GDP-11U22312442022-12-06 23:54:4844.7882-123.0181502412322Clb=6.3m/s t=-61.2C h=10.0% p=179.2hPa 401.400 MHz Type=RS41-SGP ser=U2231244 Radiosonde
W7BDB-13U22312442022-12-06 23:54:4644.7883-123.0181623112316Clb=7.2m/s p=179.4hPa t=-61.1C h=14.4% 401.40MHz Type=RS41-SGP Details on http://radiosondy.info
WA9ONY-14U22312442022-12-06 23:54:4444.7883-123.0181733112308Clb=6.7m/s p=179.6hPa t=-61.2C h=14.6% 401.40MHz Type=RS41-SGP Join https://groups.io/g/Balloons
KG7GDB-12U22312442022-12-06 23:54:4344.7884-123.0181772812302Clb=6.5m/s t=-61.2C h=10.4% p=179.9hPa 401.401 MHz Type=RS41-SGP ser=U2231244 Radiosonde
WA9ONY-14U22312442022-12-06 23:54:2944.7891-123.0181863512259Clb=5.1m/s p=181.1hPa t=-61.3C h=15.6% 401.40MHz Type=RS41-SGP Join https://groups.io/g/Balloons
W7BDB-13U22312442022-12-06 23:54:2044.7895-123.0181803912238Clb=4.8m/s p=181.7hPa t=-61.3C h=15.8% 401.40MHz Type=RS41-SGP batt=2.7V Details on http://radiosondy.info
KJ7NUX-14U22312442022-12-06 23:54:1844.7897-123.0181833912228Clb=5.4m/s p=182.0hPa t=-61.2C h=15.8% 401.40MHz Type=RS41-SGP batt=2.7V Details on http://radiosondy.info
WA9ONY-14U22312442022-12-06 23:54:1344.79-123.0181904112215Clb=4.1m/s p=182.4hPa t=-61.1C h=15.4% 401.40MHz Type=RS41-SGP batt=2.7V Join https://groups.io/g/Balloons
K6GDP-11U22312442022-12-06 23:53:5844.7909-123.0181753712174Clb=4.0m/s t=-61.0C h=11.4% p=183.7hPa 401.400 MHz Type=RS41-SGP ser=U2231244 Radiosonde
WA9ONY-14U22312442022-12-06 23:53:5744.791-123.0181783912169Clb=5.3m/s p=183.7hPa t=-60.9C h=15.8% 401.40MHz Type=RS41-SGP Join https://groups.io/g/Balloons
W7BDB-13U22312442022-12-06 23:53:5544.7911-123.0181793912165Clb=4.0m/s p=183.9hPa t=-60.9C h=16.0% 401.40MHz Type=RS41-SGP Details on http://radiosondy.info
KG7GDB-12U22312442022-12-06 23:53:5444.7912-123.0181773912160Clb=4.9m/s t=-60.9C h=11.5% p=184.1hPa 401.401 MHz Type=RS41-SGP ser=U2231244 Radiosonde
KJ7NUX-14U22312442022-12-06 23:53:5244.7913-123.0181763712156Clb=3.9m/s p=184.2hPa t=-60.9C h=16.2% 401.40MHz Type=RS41-SGP Details on http://radiosondy.info
WA9ONY-14U22312442022-12-06 23:53:4144.7919-123.0181743712126Clb=3.6m/s p=185.0hPa t=-61.0C h=15.9% 401.40MHz Type=RS41-SGP Join https://groups.io/g/Balloons
W7BDB-12U22312442022-12-06 23:53:3744.7923-123.0181823712109Clb=4.7m/s t=-61.2C h=11.9% p=185.6hPa 401.399 MHz Type=RS41-SGP ser=U2231244 Radiosonde
W7BDB-13U22312442022-12-06 23:53:2944.7926-123.0181933312095Clb=5.0m/s p=186.0hPa t=-61.1C h=16.8% 401.40MHz Type=RS41-SGP Details on http://radiosondy.info
KJ7NUX-14U22312442022-12-06 23:53:2544.7928-123.0181923312086Clb=5.5m/s p=186.2hPa t=-61.0C h=16.8% 401.40MHz Type=RS41-SGP Details on http://radiosondy.info
WA9ONY-14U22312442022-12-06 23:53:2444.7928-123.0181923312082Clb=3.5m/s p=186.4hPa t=-61.0C h=16.9% 401.40MHz Type=RS41-SGP batt=2.7V Join https://groups.io/g/Balloons
WA9ONY-14U22312442022-12-06 23:53:0844.7937-123.0181863512034Clb=4.0m/s p=187.8hPa t=-60.8C h=16.5% 401.40MHz Type=RS41-SGP Join https://groups.io/g/Balloons
KG7GDB-12U22312442022-12-06 23:53:0444.7939-123.0181753112019Clb=5.3m/s t=-60.9C h=12.3% p=188.3hPa 401.401 MHz Type=RS41-SGP ser=U2231244 Radiosonde
KJ7NUX-14U22312442022-12-06 23:53:0144.7941-123.0181753012010Clb=5.3m/s p=188.5hPa t=-60.9C h=17.2% 401.40MHz Type=RS41-SGP TxPastBurst=8h30m batt=2.7V Details on http://radiosondy.info
WA9ONY-14U22312442022-12-06 23:52:5244.7945-123.0181902811986Clb=6.1m/s p=189.2hPa t=-60.9C h=17.5% 401.40MHz Type=RS41-SGP Join https://groups.io/g/Balloons
W7BDB-13U22312442022-12-06 23:52:3944.7951-123.0181802811952Clb=4.9m/s p=190.3hPa t=-60.7C h=17.5% 401.40MHz Type=RS41-SGP Details on http://radiosondy.info
KJ7NUX-14U22312442022-12-06 23:52:3444.7953-123.0181823011938Clb=4.8m/s p=190.7hPa t=-60.7C h=17.6% 401.40MHz Type=RS41-SGP Details on http://radiosondy.info
K6GDP-11U22312442022-12-06 23:52:1644.7961-123.0181783311887Clb=5.3m/s t=-60.4C h=13.2% p=192.3hPa 401.400 MHz Type=RS41-SGP ser=U2231244 Radiosonde
W7BDB-13U22312442022-12-06 23:52:1244.7961-123.0171783111882Clb=4.2m/s p=192.4hPa t=-60.3C h=17.8% 401.40MHz Type=RS41-SGP Details on http://radiosondy.info
KG7GDB-12U22312442022-12-06 23:52:1044.7962-123.0181793011877Clb=5.1m/s t=-60.3C h=13.2% p=192.5hPa 401.401 MHz Type=RS41-SGP ser=U2231244 Radiosonde
KJ7NUX-14U22312442022-12-06 23:52:0544.7964-123.0171853011863Clb=4.7m/s p=193.0hPa t=-60.2C h=18.1% 401.40MHz Type=RS41-SGP Details on http://radiosondy.info
WA9ONY-14U22312442022-12-06 23:52:0044.7967-123.0171883011847Clb=4.3m/s p=193.5hPa t=-60.0C h=18.0% 401.40MHz Type=RS41-SGP Join https://groups.io/g/Balloons
W7BDB-12U22312442022-12-06 23:51:5744.7972-123.0171813011824Clb=4.0m/s t=-60.0C h=13.8% p=194.2hPa 401.399 MHz Type=RS41-SGP ser=U2231244 Radiosonde
W7BDB-13U22312442022-12-06 23:51:5344.7973-123.0171772611815Clb=4.1m/s p=194.5hPa t=-59.9C h=18.3% 401.40MHz Type=RS41-SGP batt=2.7V Details on http://radiosondy.info
WA9ONY-14U22312442022-12-06 23:51:5044.7975-123.0171802611801Clb=4.4m/s p=194.8hPa t=-59.9C h=18.4% 401.40MHz Type=RS41-SGP batt=2.7V Join https://groups.io/g/Balloons
KJ7NUX-14U22312442022-12-06 23:51:4844.7976-123.0171812811792Clb=4.2m/s p=195.1hPa t=-59.8C h=18.6% 401.40MHz Type=RS41-SGP batt=2.7V Details on http://radiosondy.info
WA9ONY-14U22312442022-12-06 23:51:4044.7982-123.0171733111755Clb=3.3m/s p=196.3hPa t=-59.8C h=19.4% 401.40MHz Type=RS41-SGP Join https://groups.io/g/Balloons
K6GDP-11U22312442022-12-06 23:51:3944.7983-123.0171762811747Clb=4.9m/s t=-59.8C h=14.8% p=196.6hPa 401.400 MHz Type=RS41-SGP ser=U2231244 Radiosonde
W7BDB-13U22312442022-12-06 23:51:3744.7984-123.0171813311742Clb=3.4m/s p=196.7hPa t=-59.8C h=19.5% 401.40MHz Type=RS41-SGP Details on http://radiosondy.info
KG7GDB-12U22312442022-12-06 23:51:3644.7987-123.0171823511721Clb=3.8m/s t=-60.1C h=15.6% p=197.4hPa 401.401 MHz Type=RS41-SGP ser=U2231244 Radiosonde
KJ7NUX-14U22312442022-12-06 23:51:3344.7987-123.0171833311721Clb=3.8m/s p=197.4hPa t=-60.0C h=20.3% 401.40MHz Type=RS41-SGP Details on http://radiosondy.info
WA9ONY-14U22312442022-12-06 23:51:3044.7989-123.0171773311713Clb=3.6m/s p=197.7hPa t=-60.1C h=20.5% 401.40MHz Type=RS41-SGP Join https://groups.io/g/Balloons
W7BDB-13U22312442022-12-06 23:51:2744.7996-123.0171893511675Clb=4.8m/s p=198.8hPa t=-60.2C h=21.9% 401.40MHz Type=RS41-SGP Details on http://radiosondy.info
W7BDB-13U22312442022-12-06 23:51:2644.8011-123.0171833911606Clb=4.1m/s p=201.1hPa t=-60.3C h=22.9% 401.40MHz Type=RS41-SGP batt=2.7V Details on http://radiosondy.info
KJ7NUX-14U22312442022-12-06 23:51:2244.8016-123.0171843711587Clb=3.7m/s p=201.7hPa t=-60.2C h=23.3% 401.40MHz Type=RS41-SGP batt=2.7V Details on http://radiosondy.info
W7BDB-12U22312442022-12-06 23:51:1744.8023-123.0171803911550Clb=4.6m/s t=-60.2C h=18.7% p=202.9hPa 401.399 MHz Type=RS41-SGP ser=U2231244 Radiosonde
W7BDB-13U22312442022-12-06 23:51:1344.8025-123.0171783511542Clb=4.5m/s p=203.1hPa t=-60.3C h=23.7% 401.40MHz Type=RS41-SGP Details on http://radiosondy.info
KJ7NUX-14U22312442022-12-06 23:51:0744.803-123.0171763711517Clb=4.5m/s p=203.9hPa t=-60.6C h=24.7% 401.40MHz Type=RS41-SGP Details on http://radiosondy.info
KE7WWCU22312442022-12-06 23:51:0344.8035-123.0171873311495Clb=5.6m/s t=-60.7C h=20.1% p=204.7hPa 401.375 MHz Type=RS41-SGP ser=U2231244 Radiosonde
K6GDP-11U22312442022-12-06 23:51:0144.8037-123.0171843711482Clb=4.0m/s t=-60.6C h=20.4% p=205.1hPa 401.400 MHz Type=RS41-SGP ser=U2231244 Radiosonde
KJ7NUX-14U22312442022-12-06 23:50:5844.8045-123.0171913711448Clb=4.3m/s p=206.2hPa t=-60.6C h=25.7% 401.40MHz Type=RS41-SGP Details on http://radiosondy.info
KJ7NUX-14U22312442022-12-06 23:50:5644.8059-123.0171903511381Clb=2.9m/s p=208.4hPa t=-60.6C h=26.4% 401.40MHz Type=RS41-SGP TxPastBurst=8h30m batt=2.7V Details on http://radiosondy.info
KJ7NUX-14U22312442022-12-06 23:50:5544.8073-123.0161943111316Clb=3.5m/s p=210.7hPa t=-60.9C h=28.1% 401.40MHz Type=RS41-SGP Details on http://radiosondy.info
KE7WWCU22312442022-12-06 23:50:5444.8087-123.0151952611234Clb=4.2m/s t=-61.1C h=24.5% p=213.4hPa 401.375 MHz Type=RS41-SGP ser=U2231244 Radiosonde
W7BDB-13U22312442022-12-06 23:50:5344.81-123.0152073511151Clb=3.8m/s p=216.2hPa t=-60.9C h=31.8% 401.40MHz Type=RS41-SGP Details on http://radiosondy.info
KG7GDB-12U22312442022-12-06 23:50:5244.8115-123.0142043911072Clb=3.8m/s t=-60.9C h=27.9% p=219.0hPa 401.401 MHz Type=RS41-SGP ser=U2231244 Radiosonde
KJ7NUX-14U22312442022-12-06 23:50:5144.8134-123.0122073510968Clb=4.3m/s p=222.7hPa t=-60.7C h=36.5% 401.40MHz Type=RS41-SGP batt=2.7V Details on http://radiosondy.info
KE7WWCU22312442022-12-06 23:50:5044.8134-123.0122063310963Clb=5.1m/s t=-60.7C h=30.7% p=222.9hPa 401.375 MHz Type=RS41-SGP ser=U2231244 Radiosonde
K6GDP-11U22312442022-12-06 23:50:4844.8137-123.0122063310946Clb=4.8m/s t=-60.7C h=31.0% p=223.5hPa 401.400 MHz Type=RS41-SGP ser=U2231244 Radiosonde
KG7GDB-12U22312442022-12-06 23:50:4644.8139-123.0122073310937Clb=4.9m/s t=-60.6C h=31.3% p=223.9hPa 401.401 MHz Type=RS41-SGP ser=U2231244 Radiosonde
W7BDB-13U22312442022-12-06 23:50:4444.814-123.0122073710933Clb=4.1m/s p=224.0hPa t=-60.5C h=37.7% 401.40MHz Type=RS41-SGP Details on http://radiosondy.info
KJ7NUX-14U22312442022-12-06 23:50:3744.8146-123.0122034110897Clb=5.2m/s p=225.3hPa t=-60.4C h=38.7% 401.40MHz Type=RS41-SGP Details on http://radiosondy.info
W7BDB-13U22312442022-12-06 23:50:3044.8152-123.0112174110866Clb=4.8m/s p=226.4hPa t=-60.4C h=38.5% 401.40MHz Type=RS41-SGP Details on http://radiosondy.info
WA9ONY-10U22312442022-12-06 23:50:2044.8158-123.0112004310835Clb=4.9m/s p=227.5hPa t=-60.3C h=40.1% 401.40MHz Type=RS41-SGP Join https://groups.io/g/Balloons
KJ7NUX-14U22312442022-12-06 23:50:1844.816-123.0112023710828Clb=3.6m/s p=227.8hPa t=-60.2C h=40.1% 401.40MHz Type=RS41-SGP Details on http://radiosondy.info
K6GDP-11U22312442022-12-06 23:50:1444.8163-123.012113310814Clb=4.4m/s t=-60.5C h=35.7% p=228.4hPa 401.400 MHz Type=RS41-SGP ser=U2231244 Radiosonde
W7BDB-13U22312442022-12-06 23:50:0744.8165-123.012193510801Clb=2.6m/s p=228.9hPa t=-60.8C h=43.8% 401.40MHz Type=RS41-SGP TxPastBurst=8h30m batt=2.7V Details on http://radiosondy.info
KJ7NUX-14U22312442022-12-06 23:49:5144.8173-123.011963710756Clb=4.6m/s p=230.4hPa t=-60.6C h=43.8% 401.40MHz Type=RS41-SGP TxPastBurst=8h30m batt=2.7V Details on http://radiosondy.info
WA9ONY-10U22312442022-12-06 23:49:4944.8174-123.011973710752Clb=3.8m/s p=230.6hPa t=-60.5C h=44.7% 401.40MHz Type=RS41-SGP batt=2.7V Join https://groups.io/g/Balloons
W7BDB-13U22312442022-12-06 23:49:4444.8177-123.0092363710734Clb=3.8m/s p=231.2hPa t=-60.4C h=45.2% 401.40MHz Type=RS41-SGP Details on http://radiosondy.info
WA9ONY-14U22312442022-12-06 23:49:3944.8179-123.0092173510721Clb=3.5m/s p=231.7hPa t=-60.3C h=44.6% 401.40MHz Type=RS41-SGP Join https://groups.io/g/Balloons
WA9ONY-10U22312442022-12-06 23:49:3544.8181-123.0092073510703Clb=6.4m/s p=232.4hPa t=-60.3C h=42.8% 401.40MHz Type=RS41-SGP Join https://groups.io/g/Balloons
KE7WWCU22312442022-12-06 23:49:3044.8184-123.0092133110675Clb=4.3m/s t=-60.2C h=36.6% p=233.5hPa 401.375 MHz Type=RS41-SGP ser=U2231244 Radiosonde
KJ7NUX-14U22312442022-12-06 23:49:2844.8185-123.0082143510670Clb=6.3m/s p=233.6hPa t=-60.1C h=42.9% 401.40MHz Type=RS41-SGP Details on http://radiosondy.info
K6GDP-11U22312442022-12-06 23:49:2544.8186-123.0082173710658Clb=4.1m/s t=-60.0C h=37.2% p=234.1hPa 401.400 MHz Type=RS41-SGP ser=U2231244 Radiosonde
WA9ONY-14U22312442022-12-06 23:49:2444.8186-123.0082183910658Clb=4.0m/s p=234.1hPa t=-60.0C h=43.4% 401.40MHz Type=RS41-SGP TxPastBurst=8h30m batt=2.7V Join https://groups.io/g/Balloons
W7BDB-13U22312442022-12-06 23:49:2044.8187-123.0082303510647Clb=6.0m/s p=234.4hPa t=-59.9C h=42.9% 401.40MHz Type=RS41-SGP Details on http://radiosondy.info
KG7GDB-12U22312442022-12-06 23:49:1944.8188-123.0082333910642Clb=4.5m/s t=-59.9C h=36.5% p=234.7hPa 401.401 MHz Type=RS41-SGP ser=U2231244 Radiosonde
WA9ONY-10U22312442022-12-06 23:49:1844.8188-123.0082343910642Clb=4.4m/s p=234.7hPa t=-59.9C h=42.6% 401.40MHz Type=RS41-SGP Join https://groups.io/g/Balloons
KJ7NUX-14U22312442022-12-06 23:49:0144.8195-123.0072323910591Clb=5.5m/s p=236.6hPa t=-59.4C h=40.5% 401.40MHz Type=RS41-SGP Details on http://radiosondy.info
W7BDB-13U22312442022-12-06 23:48:5644.8197-123.0072283710578Clb=5.1m/s p=237.0hPa t=-59.3C h=40.8% 401.40MHz Type=RS41-SGP batt=2.7V Details on http://radiosondy.info
KE7WWCU22312442022-12-06 23:48:4144.8203-123.0062343510530Clb=4.3m/s t=-59.2C h=36.4% p=238.9hPa 401.375 MHz Type=RS41-SGP ser=U2231244 Radiosonde
KJ7NUX-14U22312442022-12-06 23:48:3744.8204-123.0052313510521Clb=6.0m/s p=239.2hPa t=-59.1C h=41.9% 401.40MHz Type=RS41-SGP batt=2.7V Details on http://radiosondy.info
K6GDP-11U22312442022-12-06 23:48:3544.8205-123.0052293010516Clb=3.4m/s t=-59.1C h=36.5% p=239.4hPa 401.400 MHz Type=RS41-SGP ser=U2231244 Radiosonde
W7BDB-13U22312442022-12-06 23:48:3244.8206-123.0052323710508Clb=4.5m/s p=239.7hPa t=-58.9C h=42.3% 401.40MHz Type=RS41-SGP Details on http://radiosondy.info
KG7GDB-12U22312442022-12-06 23:48:3144.8206-123.0052323010504Clb=3.0m/s t=-59.0C h=36.7% p=239.9hPa 401.401 MHz Type=RS41-SGP ser=U2231244 Radiosonde
W7BDB-12U22312442022-12-06 23:48:1644.8212-123.0042313710452Clb=3.8m/s t=-58.6C h=36.2% p=241.9hPa 401.399 MHz Type=RS41-SGP ser=U2231244 Radiosonde
KJ7NUX-14U22312442022-12-06 23:48:1244.8212-123.0042323910452Clb=3.8m/s p=241.9hPa t=-58.6C h=41.8% 401.40MHz Type=RS41-SGP Details on http://radiosondy.info
W7BDB-13U22312442022-12-06 23:48:0944.8213-123.0032293910444Clb=4.7m/s p=242.2hPa t=-58.5C h=42.4% 401.40MHz Type=RS41-SGP Details on http://radiosondy.info
WA9ONY-10U22312442022-12-06 23:48:0044.8217-123.0032473910411Clb=4.9m/s p=243.5hPa t=-58.3C h=44.5% 401.40MHz Type=RS41-SGP TxPastBurst=8h30m batt=2.7V Join https://groups.io/g/Balloons
WA9ONY-14U22312442022-12-06 23:47:5744.8218-123.0022444110397Clb=4.8m/s p=244.0hPa t=-58.2C h=44.3% 401.40MHz Type=RS41-SGP Join https://groups.io/g/Balloons
K6GDP-11U22312442022-12-06 23:47:5444.822-123.0022404110378Clb=4.2m/s t=-58.3C h=40.1% p=244.8hPa 401.400 MHz Type=RS41-SGP ser=U2231244 Radiosonde
W7BDB-13U22312442022-12-06 23:47:5144.8221-123.0022484110368Clb=4.6m/s p=245.1hPa t=-58.4C h=47.7% 401.40MHz Type=RS41-SGP batt=2.7V Details on http://radiosondy.info
KG7GDB-12U22312442022-12-06 23:47:5044.8221-123.0012474110362Clb=6.4m/s t=-58.4C h=42.1% p=245.3hPa 401.401 MHz Type=RS41-SGP ser=U2231244 Radiosonde
WA9ONY-14U22312442022-12-06 23:47:4444.8222-123.0012503910348Clb=5.6m/s p=245.8hPa t=-58.4C h=49.9% 401.40MHz Type=RS41-SGP Join https://groups.io/g/Balloons
WA9ONY-10U22312442022-12-06 23:47:3344.8225-1232463910317Clb=4.1m/s p=247.0hPa t=-58.2C h=48.5% 401.40MHz Type=RS41-SGP Join https://groups.io/g/Balloons
KJ7NUX-14U22312442022-12-06 23:47:2844.8226-1232593710304Clb=4.4m/s p=247.6hPa t=-58.1C h=51.0% 401.40MHz Type=RS41-SGP batt=2.7V Details on http://radiosondy.info
W7BDB-13U22312442022-12-06 23:47:2444.8226-122.9992583910295Clb=3.8m/s p=248.0hPa t=-58.1C h=53.0% 401.40MHz Type=RS41-SGP Details on http://radiosondy.info
WA9ONY-10U22312442022-12-06 23:47:1544.8227-122.9992593710274Clb=3.6m/s p=248.8hPa t=-58.2C h=54.3% 401.40MHz Type=RS41-SGP batt=2.7V Join https://groups.io/g/Balloons
WA9ONY-14U22312442022-12-06 23:47:1144.8228-122.9982564110260Clb=5.1m/s p=249.4hPa t=-58.1C h=53.2% 401.40MHz Type=RS41-SGP Join https://groups.io/g/Balloons
KE7WWCU22312442022-12-06 23:47:0844.8228-122.9982593310251Clb=5.7m/s t=-58.1C h=47.5% p=249.7hPa 401.375 MHz Type=RS41-SGP ser=U2231244 Radiosonde
K6GDP-11U22312442022-12-06 23:47:0244.8228-122.9982614110238Clb=4.5m/s t=-58.0C h=47.6% p=250.2hPa 401.400 MHz Type=RS41-SGP ser=U2231244 Radiosonde
KJ7NUX-14U22312442022-12-06 23:47:0044.8229-122.9982644410233Clb=5.3m/s p=250.4hPa t=-57.9C h=53.5% 401.40MHz Type=RS41-SGP Details on http://radiosondy.info
WA9ONY-10U22312442022-12-06 23:46:5844.8229-122.9972644410228Clb=4.7m/s p=250.5hPa t=-57.9C h=54.1% 401.40MHz Type=RS41-SGP Join https://groups.io/g/Balloons
KG7GDB-12U22312442022-12-06 23:46:5744.8229-122.9972624610223Clb=4.7m/s t=-57.9C h=47.8% p=250.8hPa 401.401 MHz Type=RS41-SGP ser=U2231244 Radiosonde
WA9ONY-14U22312442022-12-06 23:46:5344.8229-122.9972614410215Clb=2.6m/s p=251.1hPa t=-57.8C h=53.8% 401.40MHz Type=RS41-SGP Join https://groups.io/g/Balloons
WA9ONY-10U22312442022-12-06 23:46:4244.823-122.9962634610183Clb=5.7m/s p=252.4hPa t=-57.5C h=53.1% 401.40MHz Type=RS41-SGP Join https://groups.io/g/Balloons
WA9ONY-14U22312442022-12-06 23:46:3844.8231-122.9952634610170Clb=4.6m/s p=252.9hPa t=-57.4C h=53.0% 401.40MHz Type=RS41-SGP batt=2.7V Join https://groups.io/g/Balloons
W7BDB-13U22312442022-12-06 23:46:3444.8231-122.9952644610163Clb=4.3m/s p=253.2hPa t=-57.3C h=52.9% 401.40MHz Type=RS41-SGP TxPastBurst=8h30m batt=2.7V Details on http://radiosondy.info
WA9ONY-10U22312442022-12-06 23:46:2544.8232-122.9942634610141Clb=4.7m/s p=254.1hPa t=-57.2C h=52.0% 401.40MHz Type=RS41-SGP batt=2.7V Join https://groups.io/g/Balloons
WA9ONY-14U22312442022-12-06 23:46:2144.8232-122.9942614610128Clb=4.4m/s p=254.6hPa t=-57.1C h=52.5% 401.40MHz Type=RS41-SGP Join https://groups.io/g/Balloons
KE7WWCU22312442022-12-06 23:46:1644.8233-122.9932564410116Clb=3.4m/s t=-57.0C h=46.2% p=255.2hPa 401.375 MHz Type=RS41-SGP ser=U2231244 Radiosonde
K6GDP-11U22312442022-12-06 23:46:1244.8234-122.9932574610103Clb=3.8m/s t=-57.0C h=45.9% p=255.7hPa 401.400 MHz Type=RS41-SGP ser=U2231244 Radiosonde
WA9ONY-10U22312442022-12-06 23:46:1044.8234-122.9932574610099Clb=5.0m/s p=255.8hPa t=-56.9C h=51.3% 401.40MHz Type=RS41-SGP Join https://groups.io/g/Balloons
KJ7NUX-14U22312442022-12-06 23:46:0944.8234-122.9932584810094Clb=4.0m/s p=256.0hPa t=-56.8C h=51.7% 401.40MHz Type=RS41-SGP TxPastBurst=8h30m batt=2.7V Details on http://radiosondy.info
KG7GDB-12U22312442022-12-06 23:46:0744.8235-122.9922594410089Clb=5.6m/s t=-56.8C h=45.7% p=256.2hPa 401.401 MHz Type=RS41-SGP ser=U2231244 Radiosonde
WA9ONY-14U22312442022-12-06 23:46:0544.8235-122.9922604810085Clb=4.2m/s p=256.4hPa t=-56.7C h=51.4% 401.40MHz Type=RS41-SGP Join https://groups.io/g/Balloons
WA9ONY-10U22312442022-12-06 23:45:5444.8236-122.9912574810053Clb=4.3m/s p=257.6hPa t=-56.5C h=52.1% 401.40MHz Type=RS41-SGP Join https://groups.io/g/Balloons
WA9ONY-14U22312442022-12-06 23:45:4944.8237-122.9912514410040Clb=5.3m/s p=258.1hPa t=-56.4C h=53.8% 401.40MHz Type=RS41-SGP TxPastBurst=8h30m batt=2.7V Join https://groups.io/g/Balloons
W7BDB-13U22312442022-12-06 23:45:4744.8238-122.992484810030Clb=5.0m/s p=258.5hPa t=-56.3C h=54.8% 401.40MHz Type=RS41-SGP Details on http://radiosondy.info
KJ7NUX-14U22312442022-12-06 23:45:4344.8239-122.992524810021Clb=3.7m/s p=258.9hPa t=-56.2C h=57.1% 401.40MHz Type=RS41-SGP Details on http://radiosondy.info
WA9ONY-10U22312442022-12-06 23:45:3944.824-122.992635210008Clb=2.9m/s p=259.4hPa t=-56.2C h=56.6% 401.40MHz Type=RS41-SGP TxPastBurst=8h30m batt=2.7V Join https://groups.io/g/Balloons
WA9ONY-14U22312442022-12-06 23:45:3544.824-122.989261549996Clb=3.8m/s p=259.9hPa t=-56.3C h=55.1% 401.40MHz Type=RS41-SGP Join https://groups.io/g/Balloons
KE7WWCU22312442022-12-06 23:45:2744.8242-122.988252569978Clb=3.6m/s t=-56.3C h=48.7% p=260.7hPa 401.375 MHz Type=RS41-SGP ser=U2231244 Radiosonde
K6GDP-11U22312442022-12-06 23:45:2244.8243-122.988249469962Clb=7.8m/s t=-56.2C h=45.9% p=261.3hPa 401.400 MHz Type=RS41-SGP ser=U2231244 Radiosonde
W7BDB-13U22312442022-12-06 23:45:2144.8243-122.988247449954Clb=7.8m/s p=261.6hPa t=-56.0C h=51.4% 401.40MHz Type=RS41-SGP batt=2.7V Details on http://radiosondy.info
WA9ONY-14U22312442022-12-06 23:45:1844.8244-122.987251449943Clb=5.4m/s p=262.1hPa t=-55.9C h=51.3% 401.40MHz Type=RS41-SGP Join https://groups.io/g/Balloons
WA9ONY-10U22312442022-12-06 23:45:0744.8247-122.986241449910Clb=5.1m/s p=263.4hPa t=-55.6C h=50.3% 401.40MHz Type=RS41-SGP Join https://groups.io/g/Balloons
WA9ONY-14U22312442022-12-06 23:45:0244.8249-122.986244449897Clb=4.7m/s p=264.0hPa t=-55.6C h=50.0% 401.40MHz Type=RS41-SGP batt=2.7V Join https://groups.io/g/Balloons
W7BDB-13U22312442022-12-06 23:44:5644.8251-122.985245439878Clb=5.6m/s p=264.8hPa t=-55.5C h=49.0% 401.40MHz Type=RS41-SGP Details on http://radiosondy.info
KJ7NUX-14U22312442022-12-06 23:44:5444.8252-122.985242439869Clb=5.8m/s p=265.1hPa t=-55.5C h=48.4% 401.40MHz Type=RS41-SGP batt=2.7V Details on http://radiosondy.info
WA9ONY-10U22312442022-12-06 23:44:5244.8252-122.985239419864Clb=4.3m/s p=265.4hPa t=-55.4C h=48.6% 401.40MHz Type=RS41-SGP batt=2.7V Join https://groups.io/g/Balloons
WA9ONY-14U22312442022-12-06 23:44:4844.8254-122.985237419851Clb=3.6m/s p=266.0hPa t=-55.3C h=48.9% 401.40MHz Type=RS41-SGP Join https://groups.io/g/Balloons
KE7WWCU22312442022-12-06 23:44:4044.8257-122.984241359826Clb=4.4m/s t=-55.1C h=42.5% p=267.0hPa 401.375 MHz Type=RS41-SGP ser=U2231244 Radiosonde
WA9ONY-10U22312442022-12-06 23:44:3744.8258-122.984244449814Clb=4.8m/s p=267.5hPa t=-55.0C h=46.5% 401.40MHz Type=RS41-SGP Join https://groups.io/g/Balloons
K6GDP-11U22312442022-12-06 23:44:3644.8258-122.984246439809Clb=4.9m/s t=-55.0C h=40.4% p=267.7hPa 401.400 MHz Type=RS41-SGP ser=U2231244 Radiosonde
WA9ONY-14U22312442022-12-06 23:44:3344.8259-122.983252439798Clb=4.1m/s p=268.2hPa t=-54.9C h=45.1% 401.40MHz Type=RS41-SGP Join https://groups.io/g/Balloons
KG7GDB-12U22312442022-12-06 23:44:3144.8259-122.983248489793Clb=4.9m/s t=-55.0C h=39.9% p=268.4hPa 401.401 MHz Type=RS41-SGP ser=U2231244 Radiosonde
KJ7NUX-14U22312442022-12-06 23:44:3044.826-122.983245419789Clb=4.2m/s p=268.6hPa t=-54.9C h=44.5% 401.40MHz Type=RS41-SGP Details on http://radiosondy.info
WA9ONY-10U22312442022-12-06 23:44:2144.8262-122.982246399761Clb=6.4m/s p=269.7hPa t=-54.6C h=42.7% 401.40MHz Type=RS41-SGP Join https://groups.io/g/Balloons
WA9ONY-14U22312442022-12-06 23:44:1744.8264-122.982238359743Clb=4.7m/s p=270.5hPa t=-54.4C h=42.8% 401.40MHz Type=RS41-SGP batt=2.7V Join https://groups.io/g/Balloons
W7BDB-12U22312442022-12-06 23:44:1644.8265-122.982232399731Clb=5.1m/s t=-54.4C h=37.7% p=271.0hPa 401.399 MHz Type=RS41-SGP ser=U2231244 Radiosonde
W7BDB-13U22312442022-12-06 23:44:1044.8266-122.981230339724Clb=4.0m/s p=271.3hPa t=-54.3C h=42.1% 401.40MHz Type=RS41-SGP batt=2.7V Details on http://radiosondy.info
WA9ONY-10U22312442022-12-06 23:44:0744.8268-122.981237319714Clb=4.6m/s p=271.7hPa t=-54.2C h=41.5% 401.40MHz Type=RS41-SGP batt=2.7V Join https://groups.io/g/Balloons
KJ7NUX-14U22312442022-12-06 23:44:0644.8268-122.981242359709Clb=5.4m/s p=271.9hPa t=-54.2C h=41.4% 401.40MHz Type=RS41-SGP Details on http://radiosondy.info
WA9ONY-14U22312442022-12-06 23:44:0344.8269-122.981249339701Clb=3.4m/s p=272.2hPa t=-54.1C h=40.9% 401.40MHz Type=RS41-SGP Join https://groups.io/g/Balloons
KE7WWCU22312442022-12-06 23:43:5644.8271-122.98224359673Clb=4.1m/s t=-53.9C h=36.5% p=273.4hPa 401.375 MHz Type=RS41-SGP ser=U2231244 Radiosonde
WA9ONY-10U22312442022-12-06 23:43:5544.8272-122.98227419669Clb=5.6m/s p=273.6hPa t=-53.8C h=41.2% 401.40MHz Type=RS41-SGP Join https://groups.io/g/Balloons
K6GDP-11U22312442022-12-06 23:43:5344.8273-122.98233359659Clb=5.2m/s t=-53.8C h=36.4% p=274.1hPa 401.400 MHz Type=RS41-SGP ser=U2231244 Radiosonde
W7BDB-13U22312442022-12-06 23:43:5244.8273-122.98239359654Clb=5.2m/s p=274.3hPa t=-53.7C h=41.3% 401.40MHz Type=RS41-SGP Details on http://radiosondy.info
KG7GDB-12U22312442022-12-06 23:43:5044.8275-122.98236439644Clb=3.9m/s t=-53.7C h=36.6% p=274.7hPa 401.401 MHz Type=RS41-SGP ser=U2231244 Radiosonde
KJ7NUX-14U22312442022-12-06 23:43:4944.8276-122.979240319636Clb=5.3m/s p=275.0hPa t=-53.6C h=40.7% 401.40MHz Type=RS41-SGP batt=2.7V Details on http://radiosondy.info
WA9ONY-10U22312442022-12-06 23:43:4544.8277-122.979231289624Clb=5.4m/s p=275.5hPa t=-53.5C h=38.7% 401.40MHz Type=RS41-SGP Join https://groups.io/g/Balloons
WA9ONY-14U22312442022-12-06 23:43:4244.8279-122.979203309605Clb=8.4m/s p=276.4hPa t=-53.3C h=37.4% 401.40MHz Type=RS41-SGP TxPastBurst=8h30m batt=2.7V Join https://groups.io/g/Balloons
W7BDB-13U22312442022-12-06 23:43:3744.8282-122.979235359575Clb=4.8m/s p=277.6hPa t=-53.1C h=38.0% 401.40MHz Type=RS41-SGP Details on http://radiosondy.info
WA9ONY-10U22312442022-12-06 23:43:3544.8282-122.979232359565Clb=5.9m/s p=278.1hPa t=-53.0C h=39.1% 401.40MHz Type=RS41-SGP TxPastBurst=8h30m batt=2.7V Join https://groups.io/g/Balloons
KJ7NUX-14U22312442022-12-06 23:43:3344.8284-122.978227359552Clb=6.0m/s p=278.6hPa t=-52.8C h=39.9% 401.40MHz Type=RS41-SGP Details on http://radiosondy.info
WA9ONY-14U22312442022-12-06 23:43:3244.8284-122.978227419552Clb=6.0m/s p=278.6hPa t=-52.8C h=39.9% 401.40MHz Type=RS41-SGP Join https://groups.io/g/Balloons
WA9ONY-10U22312442022-12-06 23:43:2944.8288-122.977239339517Clb=4.0m/s p=280.1hPa t=-52.6C h=37.8% 401.40MHz Type=RS41-SGP Join https://groups.io/g/Balloons
KJ7NUX-14U22312442022-12-06 23:43:2844.8292-122.977219269451Clb=5.2m/s p=282.9hPa t=-52.3C h=37.1% 401.40MHz Type=RS41-SGP Details on http://radiosondy.info
WA9ONY-14U22312442022-12-06 23:43:2744.8295-122.976215159434Clb=3.9m/s p=283.7hPa t=-52.3C h=37.8% 401.40MHz Type=RS41-SGP batt=2.7V Join https://groups.io/g/Balloons
W7BDB-12U22312442022-12-06 23:43:2644.8296-122.976204139409Clb=3.1m/s t=-52.3C h=34.5% p=284.8hPa 401.399 MHz Type=RS41-SGP ser=U2231244 Radiosonde
W7BDB-13U22312442022-12-06 23:43:2544.8297-122.976202179405Clb=3.6m/s p=284.9hPa t=-52.2C h=38.0% 401.40MHz Type=RS41-SGP Details on http://radiosondy.info
WA9ONY-10U22312442022-12-06 23:43:2444.8297-122.976204199401Clb=6.6m/s p=285.1hPa t=-52.2C h=37.4% 401.40MHz Type=RS41-SGP batt=2.7V Join https://groups.io/g/Balloons
WA9ONY-14U22312442022-12-06 23:43:2144.8298-122.976216179384Clb=4.7m/s p=285.8hPa t=-52.1C h=38.7% 401.40MHz Type=RS41-SGP Join https://groups.io/g/Balloons
KJ7NUX-14U22312442022-12-06 23:43:2044.8299-122.976215199376Clb=4.2m/s p=286.2hPa t=-52.1C h=38.4% 401.40MHz Type=RS41-SGP TxPastBurst=8h30m batt=2.7V Details on http://radiosondy.info
WA9ONY-10U22312442022-12-06 23:43:1444.8301-122.976211199359Clb=4.4m/s p=286.9hPa t=-51.9C h=37.4% 401.40MHz Type=RS41-SGP Join https://groups.io/g/Balloons
WA9ONY-14U22312442022-12-06 23:43:1144.8302-122.976216199348Clb=3.0m/s p=287.4hPa t=-51.9C h=37.9% 401.40MHz Type=RS41-SGP Join https://groups.io/g/Balloons
K6GDP-11U22312442022-12-06 23:43:1044.8302-122.976211199343Clb=4.7m/s t=-51.9C h=33.4% p=287.7hPa 401.400 MHz Type=RS41-SGP ser=U2231244 Radiosonde
W7BDB-13U22312442022-12-06 23:43:0944.8303-122.976210209340Clb=3.1m/s p=287.8hPa t=-51.8C h=37.8% 401.40MHz Type=RS41-SGP Details on http://radiosondy.info
KG7GDB-12U22312442022-12-06 23:43:0744.8304-122.976218209329Clb=3.7m/s t=-51.7C h=32.6% p=288.3hPa 401.401 MHz Type=RS41-SGP ser=U2231244 Radiosonde
WA9ONY-10U22312442022-12-06 23:43:0544.8305-122.976225199322Clb=3.6m/s p=288.6hPa t=-51.6C h=35.9% 401.40MHz Type=RS41-SGP Join https://groups.io/g/Balloons
WA9ONY-14U22312442022-12-06 23:43:0344.8306-122.975229209312Clb=4.1m/s p=289.0hPa t=-51.5C h=36.3% 401.40MHz Type=RS41-SGP batt=2.7V Join https://groups.io/g/Balloons
WA9ONY-10U22312442022-12-06 23:43:0144.8308-122.975214209288Clb=4.0m/s p=290.1hPa t=-51.3C h=37.5% 401.40MHz Type=RS41-SGP batt=2.7V Join https://groups.io/g/Balloons
WA9ONY-14U22312442022-12-06 23:43:0044.8313-122.974199249236Clb=4.9m/s p=292.3hPa t=-50.8C h=36.1% 401.40MHz Type=RS41-SGP Join https://groups.io/g/Balloons
WA9ONY-14U22312442022-12-06 23:42:5944.8317-122.974220269192Clb=4.2m/s p=294.3hPa t=-50.4C h=35.8% 401.40MHz Type=RS41-SGP TxPastBurst=8h30m batt=2.7V Join https://groups.io/g/Balloons
W7BDB-13U22312442022-12-06 23:42:5844.8322-122.973238289151Clb=5.4m/s p=296.1hPa t=-50.1C h=36.0% 401.40MHz Type=RS41-SGP Details on http://radiosondy.info
KJ7NUX-14U22312442022-12-06 23:42:5244.8325-122.973201289114Clb=7.4m/s p=297.8hPa t=-49.8C h=36.6% 401.40MHz Type=RS41-SGP Details on http://radiosondy.info
WA9ONY-10U22312442022-12-06 23:42:5144.8326-122.973184269108Clb=4.4m/s p=298.0hPa t=-49.8C h=37.0% 401.40MHz Type=RS41-SGP Join https://groups.io/g/Balloons
WA9ONY-14U22312442022-12-06 23:42:4844.8327-122.973208309092Clb=3.9m/s p=298.9hPa t=-49.7C h=37.2% 401.40MHz Type=RS41-SGP Join https://groups.io/g/Balloons
K6GDP-11U22312442022-12-06 23:42:4544.8329-122.973229309076Clb=5.7m/s t=-49.8C h=33.0% p=299.6hPa 401.400 MHz Type=RS41-SGP ser=U2231244 Radiosonde
W7BDB-13U22312442022-12-06 23:42:4344.8329-122.973221289071Clb=4.6m/s p=299.8hPa t=-49.7C h=37.2% 401.40MHz Type=RS41-SGP batt=2.7V Details on http://radiosondy.info
KE7WWCU22312442022-12-06 23:42:4144.833-122.972209319066Clb=4.9m/s t=-49.7C h=33.6% p=300.1hPa 401.375 MHz Type=RS41-SGP ser=U2231244 Radiosonde
WA9ONY-10U22312442022-12-06 23:42:3944.8332-122.972198289055Clb=6.5m/s p=300.6hPa t=-49.6C h=37.2% 401.40MHz Type=RS41-SGP Join https://groups.io/g/Balloons
WA9ONY-14U22312442022-12-06 23:42:3344.8334-122.972210269039Clb=7.5m/s p=301.4hPa t=-49.5C h=36.6% 401.40MHz Type=RS41-SGP batt=2.7V Join https://groups.io/g/Balloons
KJ7NUX-14U22312442022-12-06 23:42:3044.8335-122.972217309026Clb=4.9m/s p=301.9hPa t=-49.4C h=35.9% 401.40MHz Type=RS41-SGP Details on http://radiosondy.info
WA9ONY-10U22312442022-12-06 23:42:2244.8338-122.972182319001Clb=5.8m/s p=303.1hPa t=-49.2C h=35.1% 401.40MHz Type=RS41-SGP batt=2.7V Join https://groups.io/g/Balloons
W7BDB-13U22312442022-12-06 23:42:1944.8339-122.972191318991Clb=3.5m/s p=303.6hPa t=-49.1C h=35.4% 401.40MHz Type=RS41-SGP Details on http://radiosondy.info
WA9ONY-14U22312442022-12-06 23:42:1744.834-122.972196318987Clb=4.7m/s p=303.8hPa t=-49.1C h=35.2% 401.40MHz Type=RS41-SGP Join https://groups.io/g/Balloons
WA9ONY-10U22312442022-12-06 23:42:0644.8345-122.972201318952Clb=7.2m/s p=305.4hPa t=-49.1C h=35.1% 401.40MHz Type=RS41-SGP Join https://groups.io/g/Balloons
KJ7NUX-14U22312442022-12-06 23:42:0544.8346-122.972197338945Clb=6.0m/s p=305.7hPa t=-49.1C h=35.0% 401.40MHz Type=RS41-SGP batt=2.7V Details on http://radiosondy.info
WA9ONY-14U22312442022-12-06 23:42:0144.8347-122.972199338935Clb=6.6m/s p=306.2hPa t=-49.0C h=34.5% 401.40MHz Type=RS41-SGP Join https://groups.io/g/Balloons
W7BDB-13U22312442022-12-06 23:41:5644.835-122.972196378911Clb=5.2m/s p=307.3hPa t=-48.8C h=33.4% 401.40MHz Type=RS41-SGP Details on http://radiosondy.info
KE7WWCU22312442022-12-06 23:41:5344.8353-122.971192418891Clb=5.8m/s t=-48.7C h=29.0% p=308.3hPa 401.375 MHz Type=RS41-SGP ser=U2231244 Radiosonde
WA9ONY-10U22312442022-12-06 23:41:5244.8353-122.971193378891Clb=5.8m/s p=308.2hPa t=-48.6C h=32.5% 401.40MHz Type=RS41-SGP Join https://groups.io/g/Balloons
KG7GDB-12U22312442022-12-06 23:41:5144.8354-122.971193378886Clb=5.4m/s t=-48.6C h=28.8% p=308.5hPa 401.401 MHz Type=RS41-SGP ser=U2231244 Radiosonde
WA9ONY-14U22312442022-12-06 23:41:4744.8355-122.971201378873Clb=6.4m/s p=309.0hPa t=-48.5C h=31.8% 401.40MHz Type=RS41-SGP batt=2.7V Join https://groups.io/g/Balloons
KJ7NUX-14U22312442022-12-06 23:41:4144.8358-122.971203378849Clb=7.6m/s p=310.1hPa t=-48.3C h=30.7% 401.40MHz Type=RS41-SGP Details on http://radiosondy.info
WA9ONY-10U22312442022-12-06 23:41:3644.8361-122.971191378833Clb=5.8m/s p=310.9hPa t=-48.1C h=30.8% 401.40MHz Type=RS41-SGP batt=2.7V Join https://groups.io/g/Balloons
W7BDB-13U22312442022-12-06 23:41:3244.8364-122.971184378816Clb=4.8m/s p=311.7hPa t=-48.0C h=30.3% 401.40MHz Type=RS41-SGP TxPastBurst=8h30m batt=2.7V Details on http://radiosondy.info
WA9ONY-10U22312442022-12-06 23:41:2144.837-122.971189378772Clb=6.6m/s p=313.7hPa t=-47.6C h=28.9% 401.40MHz Type=RS41-SGP Join https://groups.io/g/Balloons
KJ7NUX-14U22312442022-12-06 23:41:1744.8373-122.971195378751Clb=5.8m/s p=314.6hPa t=-47.4C h=28.7% 401.40MHz Type=RS41-SGP Details on http://radiosondy.info
WA9ONY-14U22312442022-12-06 23:41:1644.8373-122.971195398751Clb=5.8m/s p=314.6hPa t=-47.4C h=28.7% 401.40MHz Type=RS41-SGP Join https://groups.io/g/Balloons
W7BDB-13U22312442022-12-06 23:41:0844.8377-122.971182358722Clb=5.8m/s p=316.1hPa t=-47.2C h=28.6% 401.40MHz Type=RS41-SGP Details on http://radiosondy.info
KE7WWCU22312442022-12-06 23:41:0544.8381-122.971185448704Clb=7.0m/s t=-47.2C h=26.3% p=317.0hPa 401.375 MHz Type=RS41-SGP ser=U2231244 Radiosonde
KG7GDB-12U22312442022-12-06 23:41:0244.8382-122.971186418697Clb=5.2m/s t=-47.2C h=26.7% p=317.3hPa 401.401 MHz Type=RS41-SGP ser=U2231244 Radiosonde
WA9ONY-14U22312442022-12-06 23:41:0044.8382-122.971187338694Clb=3.6m/s p=317.6hPa t=-47.1C h=30.1% 401.40MHz Type=RS41-SGP TxPastBurst=8h30m batt=2.9V Join https://groups.io/g/Balloons
KJ7NUX-14U22312442022-12-06 23:40:5344.8388-122.971190318659Clb=5.8m/s p=319.3hPa t=-46.9C h=30.9% 401.40MHz Type=RS41-SGP TxPastBurst=8h30m batt=2.7V Details on http://radiosondy.info
WA9ONY-10U22312442022-12-06 23:40:5144.8388-122.971186338653Clb=5.6m/s p=319.4hPa t=-46.9C h=31.0% 401.40MHz Type=RS41-SGP TxPastBurst=8h30m batt=2.9V Join https://groups.io/g/Balloons
WA9ONY-14U22312442022-12-06 23:40:4744.8391-122.97178338635Clb=7.2m/s p=320.3hPa t=-46.7C h=31.8% 401.40MHz Type=RS41-SGP Join https://groups.io/g/Balloons
W7BDB-13U22312442022-12-06 23:40:4544.8391-122.971174318628Clb=4.7m/s p=320.6hPa t=-46.7C h=32.3% 401.40MHz Type=RS41-SGP Details on http://radiosondy.info
WA9ONY-10U22312442022-12-06 23:40:3544.8397-122.97186318594Clb=4.9m/s p=322.4hPa t=-46.5C h=33.7% 401.40MHz Type=RS41-SGP Join https://groups.io/g/Balloons
WA9ONY-14U22312442022-12-06 23:40:3044.8399-122.97176358577Clb=5.6m/s p=323.1hPa t=-46.4C h=33.1% 401.40MHz Type=RS41-SGP Join https://groups.io/g/Balloons
KJ7NUX-14U22312442022-12-06 23:40:2844.84-122.97175378566Clb=6.6m/s p=323.7hPa t=-46.3C h=33.4% 401.40MHz Type=RS41-SGP Details on http://radiosondy.info
K6GDP-11U22312442022-12-06 23:40:2244.8405-122.97181448537Clb=7.3m/s t=-46.1C h=29.8% p=325.2hPa 401.400 MHz Type=RS41-SGP ser=U2231244 Radiosonde
WA9ONY-10U22312442022-12-06 23:40:2144.8405-122.97182378537Clb=7.2m/s p=325.2hPa t=-46.0C h=33.0% 401.40MHz Type=RS41-SGP Join https://groups.io/g/Balloons
KE7WWCU22312442022-12-06 23:40:2044.8407-122.97177418523Clb=7.5m/s t=-46.0C h=29.5% p=325.8hPa 401.375 MHz Type=RS41-SGP ser=U2231244 Radiosonde
KG7GDB-12U22312442022-12-06 23:40:1844.8408-122.97174398516Clb=7.5m/s t=-45.9C h=29.5% p=326.2hPa 401.401 MHz Type=RS41-SGP ser=U2231244 Radiosonde
WA9ONY-14U22312442022-12-06 23:40:1744.8408-122.97175378516Clb=7.4m/s p=326.1hPa t=-45.8C h=32.6% 401.40MHz Type=RS41-SGP batt=2.9V Join https://groups.io/g/Balloons
WA9ONY-10U22312442022-12-06 23:40:0644.8414-122.971175448475Clb=6.8m/s p=328.2hPa t=-45.4C h=32.0% 401.40MHz Type=RS41-SGP batt=2.9V Join https://groups.io/g/Balloons
WA9ONY-14U22312442022-12-06 23:40:0244.8417-122.971180418456Clb=5.1m/s p=329.1hPa t=-45.3C h=32.3% 401.40MHz Type=RS41-SGP Join https://groups.io/g/Balloons
W7BDB-13U22312442022-12-06 23:40:0044.842-122.971183398445Clb=4.8m/s p=329.6hPa t=-45.1C h=32.8% 401.40MHz Type=RS41-SGP Details on http://radiosondy.info
WA9ONY-10U22312442022-12-06 23:39:5544.8425-122.971176358419Clb=5.0m/s p=330.8hPa t=-44.9C h=32.7% 401.40MHz Type=RS41-SGP Join https://groups.io/g/Balloons
WA9ONY-14U22312442022-12-06 23:39:5244.8427-122.971191398402Clb=6.6m/s p=331.8hPa t=-44.8C h=32.1% 401.40MHz Type=RS41-SGP Join https://groups.io/g/Balloons
KJ7NUX-14U22312442022-12-06 23:39:4644.8433-122.971176418366Clb=6.0m/s p=333.6hPa t=-44.4C h=33.0% 401.40MHz Type=RS41-SGP batt=2.7V Details on http://radiosondy.info
WA9ONY-10U22312442022-12-06 23:39:4544.8434-122.971179438359Clb=6.6m/s p=333.9hPa t=-44.4C h=33.5% 401.40MHz Type=RS41-SGP Join https://groups.io/g/Balloons
W7BDB-13U22312442022-12-06 23:39:4444.8435-122.971181418353Clb=6.3m/s p=334.2hPa t=-44.4C h=34.1% 401.40MHz Type=RS41-SGP Details on http://radiosondy.info
WA9ONY-14U22312442022-12-06 23:39:4244.8437-122.971187418344Clb=3.5m/s p=334.7hPa t=-44.3C h=35.0% 401.40MHz Type=RS41-SGP batt=2.9V Join https://groups.io/g/Balloons
WA9ONY-10U22312442022-12-06 23:39:3544.8444-122.971172378307Clb=4.1m/s p=336.6hPa t=-44.0C h=33.3% 401.40MHz Type=RS41-SGP batt=2.7V Join https://groups.io/g/Balloons
WA9ONY-14U22312442022-12-06 23:39:3244.8447-122.971187378292Clb=3.8m/s p=337.3hPa t=-43.9C h=29.9% 401.40MHz Type=RS41-SGP Join https://groups.io/g/Balloons
KJ7NUX-14U22312442022-12-06 23:39:3044.8449-122.971180398282Clb=5.1m/s p=337.9hPa t=-43.9C h=28.3% 401.40MHz Type=RS41-SGP Details on http://radiosondy.info
W7BDB-13U22312442022-12-06 23:39:2844.8451-122.971177398271Clb=5.3m/s p=338.4hPa t=-43.8C h=26.4% 401.40MHz Type=RS41-SGP batt=2.7V Details on http://radiosondy.info
WA9ONY-10U22312442022-12-06 23:39:2544.8454-122.971180398257Clb=3.3m/s p=339.1hPa t=-43.7C h=23.9% 401.40MHz Type=RS41-SGP Join https://groups.io/g/Balloons
WA9ONY-14U22312442022-12-06 23:39:2244.8456-122.971182418245Clb=5.0m/s p=339.8hPa t=-43.6C h=27.3% 401.40MHz Type=RS41-SGP Join https://groups.io/g/Balloons
WA9ONY-10U22312442022-12-06 23:39:1544.8463-122.971180438212Clb=5.1m/s p=341.3hPa t=-43.4C h=19.3% 401.40MHz Type=RS41-SGP Join https://groups.io/g/Balloons
KJ7NUX-14U22312442022-12-06 23:39:1444.8464-122.971181438207Clb=4.7m/s p=341.6hPa t=-43.4C h=18.4% 401.40MHz Type=RS41-SGP Details on http://radiosondy.info
WA9ONY-14U22312442022-12-06 23:39:1244.8466-122.971180438199Clb=4.4m/s p=342.0hPa t=-43.3C h=18.9% 401.40MHz Type=RS41-SGP TxPastBurst=8h30m batt=2.7V Join https://groups.io/g/Balloons
KG7GDB-12U22312442022-12-06 23:39:1144.8468-122.971181448191Clb=4.5m/s t=-43.3C h=17.3% p=342.5hPa 401.401 MHz Type=RS41-SGP ser=U2231244 Radiosonde
WA9ONY-10U22312442022-12-06 23:39:0544.8474-122.971185418170Clb=4.0m/s p=343.5hPa t=-43.1C h=21.9% 401.40MHz Type=RS41-SGP TxPastBurst=8h30m batt=2.9V Join https://groups.io/g/Balloons
WA9ONY-14U22312442022-12-06 23:39:0344.8477-122.971183418158Clb=5.0m/s p=344.2hPa t=-43.0C h=22.7% 401.40MHz Type=RS41-SGP Join https://groups.io/g/Balloons
KJ7NUX-14U22312442022-12-06 23:38:5844.8481-122.971178438142Clb=3.3m/s p=345.0hPa t=-42.8C h=22.2% 401.40MHz Type=RS41-SGP batt=2.9V Details on http://radiosondy.info
W7BDB-13U22312442022-12-06 23:38:5544.8484-122.971186438129Clb=4.1m/s p=345.7hPa t=-42.7C h=20.9% 401.40MHz Type=RS41-SGP Details on http://radiosondy.info
WA9ONY-14U22312442022-12-06 23:38:5244.8487-122.971185438117Clb=5.1m/s p=346.3hPa t=-42.6C h=19.5% 401.40MHz Type=RS41-SGP Join https://groups.io/g/Balloons
WA9ONY-10U22312442022-12-06 23:38:4544.8494-122.971181418087Clb=4.3m/s p=347.7hPa t=-42.4C h=17.5% 401.40MHz Type=RS41-SGP Join https://groups.io/g/Balloons
K6GDP-11U22312442022-12-06 23:38:4344.8498-122.971180448075Clb=4.9m/s t=-42.3C h=15.6% p=348.5hPa 401.400 MHz Type=RS41-SGP ser=U2231244 Radiosonde
KJ7NUX-14U22312442022-12-06 23:38:4244.8498-122.971181418075Clb=4.9m/s p=348.4hPa t=-42.3C h=17.7% 401.40MHz Type=RS41-SGP Details on http://radiosondy.info
KE7WWCU22312442022-12-06 23:38:4144.85-122.971184398067Clb=4.0m/s t=-42.2C h=15.3% p=348.9hPa 401.375 MHz Type=RS41-SGP ser=U2231244 Radiosonde
KG7GDB-12U22312442022-12-06 23:38:3944.8501-122.971183378063Clb=4.4m/s t=-42.2C h=15.4% p=349.1hPa 401.401 MHz Type=RS41-SGP ser=U2231244 Radiosonde
WA9ONY-10U22312442022-12-06 23:38:3544.8504-122.971186418046Clb=4.0m/s p=349.9hPa t=-42.0C h=17.2% 401.40MHz Type=RS41-SGP batt=2.7V Join https://groups.io/g/Balloons
WA9ONY-14U22312442022-12-06 23:38:3244.8508-122.97184398034Clb=4.6m/s p=350.6hPa t=-41.9C h=17.2% 401.40MHz Type=RS41-SGP Join https://groups.io/g/Balloons
KJ7NUX-14U22312442022-12-06 23:38:2644.8514-122.97185418010Clb=5.0m/s p=351.9hPa t=-41.7C h=17.3% 401.40MHz Type=RS41-SGP Details on http://radiosondy.info
WA9ONY-10U22312442022-12-06 23:38:2544.8514-122.97186418006Clb=4.0m/s p=352.1hPa t=-41.6C h=17.5% 401.40MHz Type=RS41-SGP Join https://groups.io/g/Balloons
W7BDB-13U22312442022-12-06 23:38:2444.8515-122.97185418001Clb=4.6m/s p=352.3hPa t=-41.6C h=17.5% 401.40MHz Type=RS41-SGP Details on http://radiosondy.info
WA9ONY-14U22312442022-12-06 23:38:2244.8517-122.97186417993Clb=5.0m/s p=352.8hPa t=-41.5C h=17.9% 401.40MHz Type=RS41-SGP Join https://groups.io/g/Balloons
K6GDP-11U22312442022-12-06 23:38:1544.8529-122.97190437946Clb=3.7m/s t=-41.2C h=17.0% p=355.3hPa 401.400 MHz Type=RS41-SGP ser=U2231244 Radiosonde
KJ7NUX-14U22312442022-12-06 23:38:1444.8547-122.97203317867Clb=8.1m/s p=359.2hPa t=-40.5C h=18.8% 401.40MHz Type=RS41-SGP Details on http://radiosondy.info
KJ7NUX-14U22312442022-12-06 23:38:1344.8559-122.97189447771Clb=5.4m/s p=364.4hPa t=-39.5C h=17.2% 401.40MHz Type=RS41-SGP Details on http://radiosondy.info
WA9ONY-10U22312442022-12-06 23:38:1044.8565-122.97172417737Clb=6.4m/s p=366.1hPa t=-39.3C h=15.9% 401.40MHz Type=RS41-SGP TxPastBurst=8h30m batt=2.9V Join https://groups.io/g/Balloons
WA9ONY-14U22312442022-12-06 23:38:0944.8566-122.97172417731Clb=5.2m/s p=366.4hPa t=-39.2C h=15.8% 401.40MHz Type=RS41-SGP Join https://groups.io/g/Balloons
WA9ONY-10U22312442022-12-06 23:38:0044.8575-122.97176377680Clb=5.6m/s p=369.2hPa t=-38.8C h=15.9% 401.40MHz Type=RS41-SGP Join https://groups.io/g/Balloons
WA9ONY-14U22312442022-12-06 23:37:5944.8576-122.97176377674Clb=5.5m/s p=369.5hPa t=-38.7C h=15.9% 401.40MHz Type=RS41-SGP Join https://groups.io/g/Balloons
WA9ONY-10U22312442022-12-06 23:37:4744.8585-122.97178307622Clb=4.5m/s p=372.3hPa t=-38.3C h=16.9% 401.40MHz Type=RS41-SGP Join https://groups.io/g/Balloons
WA9ONY-14U22312442022-12-06 23:37:4544.8585-122.97189307618Clb=4.8m/s p=372.6hPa t=-38.3C h=17.2% 401.40MHz Type=RS41-SGP batt=2.9V Join https://groups.io/g/Balloons
K6GDP-11U22312442022-12-06 23:37:4244.8587-122.97182287599Clb=8.0m/s t=-38.3C h=14.9% p=373.6hPa 401.400 MHz Type=RS41-SGP ser=U2231244 Radiosonde
KE7WWCU22312442022-12-06 23:37:3844.8589-122.97164287584Clb=7.6m/s t=-38.1C h=14.5% p=374.4hPa 401.375 MHz Type=RS41-SGP ser=U2231244 Radiosonde
KG7GDB-12U22312442022-12-06 23:37:3644.859-122.97167287577Clb=6.6m/s t=-38.1C h=14.4% p=374.7hPa 401.401 MHz Type=RS41-SGP ser=U2231244 Radiosonde
W7BDB-13U22312442022-12-06 23:37:3444.859-122.97170357572Clb=4.3m/s p=375.0hPa t=-38.0C h=16.0% 401.40MHz Type=RS41-SGP batt=2.9V Details on http://radiosondy.info
WA9ONY-10U22312442022-12-06 23:37:3144.8592-122.97178357562Clb=6.2m/s p=375.5hPa t=-37.9C h=15.7% 401.40MHz Type=RS41-SGP batt=2.7V Join https://groups.io/g/Balloons
WA9ONY-14U22312442022-12-06 23:37:2944.8593-122.97182357555Clb=6.7m/s p=375.8hPa t=-37.9C h=15.5% 401.40MHz Type=RS41-SGP Join https://groups.io/g/Balloons
W7BDB-12U22312442022-12-06 23:37:2044.8601-122.97183397506Clb=5.2m/s t=-37.4C h=12.6% p=378.4hPa 401.399 MHz Type=RS41-SGP ser=U2231244 Radiosonde
WA9ONY-10U22312442022-12-06 23:37:1444.8601-122.97184337506Clb=5.2m/s p=378.4hPa t=-37.4C h=14.2% 401.40MHz Type=RS41-SGP Join https://groups.io/g/Balloons
WA9ONY-14U22312442022-12-06 23:37:1244.8602-122.97185337501Clb=5.0m/s p=378.8hPa t=-37.4C h=14.0% 401.40MHz Type=RS41-SGP Join https://groups.io/g/Balloons
KJ7NUX-14U22312442022-12-06 23:37:1044.8604-122.97179337488Clb=6.6m/s p=379.4hPa t=-37.3C h=13.7% 401.40MHz Type=RS41-SGP Details on http://radiosondy.info
W7BDB-13U22312442022-12-06 23:37:0844.8604-122.97179337482Clb=5.2m/s p=379.7hPa t=-37.2C h=13.6% 401.40MHz Type=RS41-SGP Details on http://radiosondy.info
WA9ONY-10U22312442022-12-06 23:36:5944.8609-122.97187357448Clb=8.0m/s p=381.7hPa t=-37.0C h=13.2% 401.40MHz Type=RS41-SGP Join https://groups.io/g/Balloons
WA9ONY-14U22312442022-12-06 23:36:5844.861-122.97184357441Clb=6.2m/s p=382.0hPa t=-36.9C h=13.0% 401.40MHz Type=RS41-SGP batt=2.9V Join https://groups.io/g/Balloons
K6GDP-11U22312442022-12-06 23:36:5244.8614-122.97194337419Clb=6.9m/s t=-36.7C h=11.8% p=383.5hPa 401.400 MHz Type=RS41-SGP ser=U2231244 Radiosonde
KE7WWCU22312442022-12-06 23:36:4944.8615-122.97194287406Clb=5.7m/s t=-36.6C h=12.0% p=384.2hPa 401.375 MHz Type=RS41-SGP ser=U2231244 Radiosonde
KJ7NUX-14U22312442022-12-06 23:36:4744.8617-122.97188357397Clb=4.4m/s p=384.7hPa t=-36.5C h=13.7% 401.40MHz Type=RS41-SGP batt=2.9V Details on http://radiosondy.info
W7BDB-13U22312442022-12-06 23:36:4544.8618-122.97185357392Clb=4.2m/s p=384.9hPa t=-36.5C h=13.7% 401.40MHz Type=RS41-SGP Details on http://radiosondy.info
WA9ONY-10U22312442022-12-06 23:36:4444.8618-122.97185377392Clb=4.2m/s p=384.9hPa t=-36.5C h=13.7% 401.40MHz Type=RS41-SGP batt=2.9V Join https://groups.io/g/Balloons
WA9ONY-14U22312442022-12-06 23:36:4344.8619-122.97186377387Clb=5.6m/s p=385.1hPa t=-36.4C h=13.5% 401.40MHz Type=RS41-SGP Join https://groups.io/g/Balloons
WA9ONY-10U22312442022-12-06 23:36:2944.8627-122.97191337346Clb=5.0m/s p=387.5hPa t=-36.1C h=13.2% 401.40MHz Type=RS41-SGP Join https://groups.io/g/Balloons
WA9ONY-14U22312442022-12-06 23:36:2844.8628-122.97190337342Clb=3.6m/s p=387.8hPa t=-36.0C h=13.2% 401.40MHz Type=RS41-SGP Join https://groups.io/g/Balloons
KJ7NUX-14U22312442022-12-06 23:36:2344.863-122.97190357322Clb=5.0m/s p=388.8hPa t=-35.9C h=12.5% 401.40MHz Type=RS41-SGP Details on http://radiosondy.info
W7BDB-13U22312442022-12-06 23:36:2044.8632-122.97191357314Clb=3.6m/s p=389.3hPa t=-35.8C h=12.1% 401.40MHz Type=RS41-SGP TxPastBurst=8h30m batt=2.9V Details on http://radiosondy.info
WA9ONY-10U22312442022-12-06 23:36:1644.8635-122.969180357301Clb=4.3m/s p=390.0hPa t=-35.7C h=11.3% 401.40MHz Type=RS41-SGP Join https://groups.io/g/Balloons
WA9ONY-14U22312442022-12-06 23:36:1544.8636-122.969177357298Clb=3.5m/s p=390.3hPa t=-35.7C h=11.2% 401.40MHz Type=RS41-SGP TxPastBurst=8h30m batt=2.9V Join https://groups.io/g/Balloons
K6GDP-11U22312442022-12-06 23:36:0944.864-122.969210307273Clb=7.4m/s t=-35.6C h=9.7% p=391.6hPa 401.400 MHz Type=RS41-SGP ser=U2231244 Radiosonde
KE7WWCU22312442022-12-06 23:36:0644.8642-122.969201317258Clb=7.9m/s t=-35.5C h=9.8% p=392.5hPa 401.375 MHz Type=RS41-SGP ser=U2231244 Radiosonde
KG7GDB-12U22312442022-12-06 23:36:0444.8643-122.969193307250Clb=8.3m/s t=-35.4C h=9.7% p=392.9hPa 401.401 MHz Type=RS41-SGP ser=U2231244 Radiosonde
KJ7NUX-14U22312442022-12-06 23:36:0344.8644-122.969182317235Clb=8.3m/s p=393.6hPa t=-35.3C h=11.0% 401.40MHz Type=RS41-SGP Details on http://radiosondy.info
WA9ONY-14U22312442022-12-06 23:36:0244.8644-122.969182357234Clb=8.3m/s p=393.6hPa t=-35.3C h=11.0% 401.40MHz Type=RS41-SGP Join https://groups.io/g/Balloons
W7BDB-13U22312442022-12-06 23:36:0144.8645-122.969175317227Clb=7.0m/s p=394.0hPa t=-35.2C h=10.9% 401.40MHz Type=RS41-SGP Details on http://radiosondy.info
WA9ONY-10U22312442022-12-06 23:35:5344.8652-122.969216317187Clb=3.7m/s p=396.3hPa t=-34.9C h=10.0% 401.40MHz Type=RS41-SGP Join https://groups.io/g/Balloons
WA9ONY-14U22312442022-12-06 23:35:5244.8652-122.969213317182Clb=6.3m/s p=396.6hPa t=-34.9C h=9.7% 401.40MHz Type=RS41-SGP Join https://groups.io/g/Balloons
KJ7NUX-14U22312442022-12-06 23:35:4644.8656-122.969184397141Clb=6.5m/s p=398.7hPa t=-34.6C h=9.3% 401.40MHz Type=RS41-SGP TxPastBurst=8h30m batt=2.9V Details on http://radiosondy.info
W7BDB-13U22312442022-12-06 23:35:4544.8657-122.969190397134Clb=7.8m/s p=399.2hPa t=-34.6C h=9.2% 401.40MHz Type=RS41-SGP Details on http://radiosondy.info
WA9ONY-10U22312442022-12-06 23:35:4444.8659-122.969197397122Clb=6.0m/s p=399.7hPa t=-34.5C h=8.8% 401.40MHz Type=RS41-SGP Join https://groups.io/g/Balloons
WA9ONY-14U22312442022-12-06 23:35:4344.866-122.969200377116Clb=5.1m/s p=400.1hPa t=-34.4C h=8.8% 401.40MHz Type=RS41-SGP batt=2.9V Join https://groups.io/g/Balloons
K6GDP-11U22312442022-12-06 23:35:3644.8666-122.968198267084Clb=6.2m/s t=-34.2C h=7.4% p=401.9hPa 401.400 MHz Type=RS41-SGP ser=U2231244 Radiosonde
KE7WWCU22312442022-12-06 23:35:3444.8667-122.968187307071Clb=6.2m/s t=-34.1C h=7.2% p=402.7hPa 401.375 MHz Type=RS41-SGP ser=U2231244 Radiosonde
KG7GDB-12U22312442022-12-06 23:35:3344.8669-122.968181377060Clb=5.0m/s t=-34.1C h=7.1% p=403.4hPa 401.401 MHz Type=RS41-SGP ser=U2231244 Radiosonde
WA9ONY-14U22312442022-12-06 23:35:3244.8669-122.968182317060Clb=5.0m/s p=403.4hPa t=-34.0C h=8.2% 401.40MHz Type=RS41-SGP Join https://groups.io/g/Balloons
KJ7NUX-14U22312442022-12-06 23:35:3044.8671-122.968178337049Clb=6.0m/s p=404.2hPa t=-33.9C h=8.1% 401.40MHz Type=RS41-SGP Details on http://radiosondy.info
WA9ONY-10U22312442022-12-06 23:35:2344.8675-122.968190377005Clb=4.8m/s p=406.4hPa t=-33.6C h=7.9% 401.40MHz Type=RS41-SGP Join https://groups.io/g/Balloons
WA9ONY-14U22312442022-12-06 23:35:2244.8676-122.968184376999Clb=4.9m/s p=406.8hPa t=-33.6C h=7.8% 401.40MHz Type=RS41-SGP Join https://groups.io/g/Balloons
KJ7NUX-14U22312442022-12-06 23:35:1444.8684-122.968205356960Clb=4.4m/s p=409.1hPa t=-33.3C h=7.4% 401.40MHz Type=RS41-SGP Details on http://radiosondy.info
WA9ONY-10U22312442022-12-06 23:35:1344.8684-122.968209336955Clb=4.8m/s p=409.4hPa t=-33.3C h=7.4% 401.40MHz Type=RS41-SGP Join https://groups.io/g/Balloons
WA9ONY-14U22312442022-12-06 23:35:1244.8685-122.968215336949Clb=6.5m/s p=409.7hPa t=-33.3C h=7.4% 401.40MHz Type=RS41-SGP batt=2.9V Join https://groups.io/g/Balloons
K6GDP-11U22312442022-12-06 23:35:0544.869-122.968201306908Clb=4.7m/s t=-33.0C h=6.7% p=412.3hPa 401.400 MHz Type=RS41-SGP ser=U2231244 Radiosonde
KE7WWCU22312442022-12-06 23:35:0344.8692-122.967198396898Clb=3.8m/s t=-32.9C h=6.6% p=413.0hPa 401.375 MHz Type=RS41-SGP ser=U2231244 Radiosonde
KG7GDB-12U22312442022-12-06 23:35:0244.8693-122.967193436893Clb=6.4m/s t=-32.9C h=6.5% p=413.3hPa 401.401 MHz Type=RS41-SGP ser=U2231244 Radiosonde
KJ7NUX-14U22312442022-12-06 23:34:5844.8697-122.967185376871Clb=6.0m/s p=414.5hPa t=-32.7C h=7.6% 401.40MHz Type=RS41-SGP batt=2.9V Details on http://radiosondy.info
WA9ONY-10U22312442022-12-06 23:34:5344.8701-122.967217376842Clb=6.7m/s p=416.2hPa t=-32.6C h=8.0% 401.40MHz Type=RS41-SGP Join https://groups.io/g/Balloons
WA9ONY-14U22312442022-12-06 23:34:5244.8702-122.967212376835Clb=5.4m/s p=416.7hPa t=-32.5C h=8.1% 401.40MHz Type=RS41-SGP Join https://groups.io/g/Balloons
WA9ONY-10U22312442022-12-06 23:34:4344.8709-122.966216356790Clb=3.6m/s p=419.5hPa t=-32.2C h=8.4% 401.40MHz Type=RS41-SGP Join https://groups.io/g/Balloons
KJ7NUX-14U22312442022-12-06 23:34:4244.871-122.966218336785Clb=5.7m/s p=419.7hPa t=-32.2C h=8.5% 401.40MHz Type=RS41-SGP Details on http://radiosondy.info
K6GDP-11U22312442022-12-06 23:34:3444.8716-122.966184306749Clb=3.7m/s t=-32.0C h=8.5% p=421.9hPa 401.400 MHz Type=RS41-SGP ser=U2231244 Radiosonde
WA9ONY-10U22312442022-12-06 23:34:3344.8717-122.966181336744Clb=5.3m/s p=422.1hPa t=-31.9C h=9.6% 401.40MHz Type=RS41-SGP TxPastBurst=8h30m batt=2.9V Join https://groups.io/g/Balloons
KE7WWCU22312442022-12-06 23:34:3244.8718-122.966184286740Clb=3.5m/s t=-31.9C h=8.7% p=422.5hPa 401.375 MHz Type=RS41-SGP ser=U2231244 Radiosonde
KG7GDB-12U22312442022-12-06 23:34:3144.8719-122.966207226731Clb=6.1m/s t=-31.8C h=8.8% p=423.0hPa 401.401 MHz Type=RS41-SGP ser=U2231244 Radiosonde
KJ7NUX-14U22312442022-12-06 23:34:2644.8722-122.966212356709Clb=5.8m/s p=424.2hPa t=-31.6C h=10.7% 401.40MHz Type=RS41-SGP Details on http://radiosondy.info
WA9ONY-10U22312442022-12-06 23:34:2344.8724-122.965195336689Clb=6.9m/s p=425.4hPa t=-31.6C h=12.8% 401.40MHz Type=RS41-SGP Join https://groups.io/g/Balloons
WA9ONY-14U22312442022-12-06 23:34:2244.8725-122.965195336682Clb=6.2m/s p=425.7hPa t=-31.6C h=13.3% 401.40MHz Type=RS41-SGP Join https://groups.io/g/Balloons
WA9ONY-10U22312442022-12-06 23:34:1344.8732-122.965219266639Clb=3.8m/s p=428.5hPa t=-31.2C h=13.5% 401.40MHz Type=RS41-SGP Join https://groups.io/g/Balloons
WA9ONY-14U22312442022-12-06 23:34:1244.8732-122.965218246635Clb=5.7m/s p=428.7hPa t=-31.2C h=13.4% 401.40MHz Type=RS41-SGP batt=2.9V Join https://groups.io/g/Balloons
KJ7NUX-14U22312442022-12-06 23:34:1144.8733-122.965214246625Clb=4.6m/s p=429.3hPa t=-31.1C h=13.1% 401.40MHz Type=RS41-SGP batt=2.7V Details on http://radiosondy.info
K6GDP-11U22312442022-12-06 23:34:0444.8737-122.964211286594Clb=3.9m/s t=-31.1C h=10.7% p=431.1hPa 401.400 MHz Type=RS41-SGP ser=U2231244 Radiosonde
WA9ONY-14U22312442022-12-06 23:34:0244.8737-122.964219266590Clb=4.1m/s p=431.4hPa t=-31.0C h=11.7% 401.40MHz Type=RS41-SGP Join https://groups.io/g/Balloons
KE7WWCU22312442022-12-06 23:34:0144.8738-122.964219266586Clb=3.2m/s t=-31.0C h=10.6% p=431.6hPa 401.375 MHz Type=RS41-SGP ser=U2231244 Radiosonde
KG7GDB-12U22312442022-12-06 23:34:0044.8739-122.964218246578Clb=3.4m/s t=-31.0C h=10.5% p=432.1hPa 401.401 MHz Type=RS41-SGP ser=U2231244 Radiosonde
W7BDB-13U22312442022-12-06 23:33:5644.874-122.964219206566Clb=4.1m/s p=432.8hPa t=-30.9C h=11.2% 401.40MHz Type=RS41-SGP TxPastBurst=8h30m batt=2.9V Details on http://radiosondy.info
KJ7NUX-14U22312442022-12-06 23:33:5444.8741-122.964209206557Clb=4.4m/s p=433.4hPa t=-30.8C h=11.2% 401.40MHz Type=RS41-SGP Details on http://radiosondy.info
WA9ONY-10U22312442022-12-06 23:33:5344.8742-122.964203196553Clb=4.9m/s p=433.6hPa t=-30.8C h=11.1% 401.40MHz Type=RS41-SGP Join https://groups.io/g/Balloons
WA9ONY-14U22312442022-12-06 23:33:5244.8743-122.964198176549Clb=4.6m/s p=433.9hPa t=-30.7C h=11.1% 401.40MHz Type=RS41-SGP Join https://groups.io/g/Balloons
W7BDB-12U22312442022-12-06 23:33:5044.8745-122.96418596529Clb=4.0m/s t=-30.7C h=9.9% p=435.1hPa 401.399 MHz Type=RS41-SGP ser=U2231244 Radiosonde
W7BDB-13U22312442022-12-06 23:33:4944.8747-122.964216246494Clb=5.9m/s p=437.0hPa t=-30.4C h=10.7% 401.40MHz Type=RS41-SGP Details on http://radiosondy.info
W7BDB-13U22312442022-12-06 23:33:4844.8755-122.963178266409Clb=5.9m/s p=442.6hPa t=-29.7C h=11.0% 401.40MHz Type=RS41-SGP Details on http://radiosondy.info
WA9ONY-10U22312442022-12-06 23:33:4644.8756-122.963186266393Clb=4.3m/s p=443.6hPa t=-29.6C h=11.2% 401.40MHz Type=RS41-SGP Join https://groups.io/g/Balloons
KJ7NUX-14U22312442022-12-06 23:33:4544.8757-122.963186266390Clb=3.0m/s p=443.8hPa t=-29.6C h=11.3% 401.40MHz Type=RS41-SGP TxPastBurst=8h30m batt=2.7V Details on http://radiosondy.info
WA9ONY-10U22312442022-12-06 23:33:3944.8763-122.963186306347Clb=5.0m/s p=446.3hPa t=-29.4C h=12.8% 401.40MHz Type=RS41-SGP Join https://groups.io/g/Balloons
WA9ONY-14U22312442022-12-06 23:33:3844.8763-122.963180306342Clb=4.2m/s p=446.6hPa t=-29.4C h=12.8% 401.40MHz Type=RS41-SGP TxPastBurst=8h30m batt=2.9V Join https://groups.io/g/Balloons
W7BDB-13U22312442022-12-06 23:33:3544.8764-122.963175306333Clb=5.7m/s p=447.3hPa t=-29.4C h=13.0% 401.40MHz Type=RS41-SGP batt=2.9V Details on http://radiosondy.info
KJ7NUX-14U22312442022-12-06 23:33:3044.8767-122.963167306315Clb=4.8m/s p=448.4hPa t=-29.3C h=13.1% 401.40MHz Type=RS41-SGP Details on http://radiosondy.info
WA9ONY-10U22312442022-12-06 23:33:2644.877-122.963177286302Clb=5.3m/s p=449.1hPa t=-29.2C h=13.4% 401.40MHz Type=RS41-SGP TxPastBurst=8h30m batt=2.9V Join https://groups.io/g/Balloons
WA9ONY-14U22312442022-12-06 23:33:2444.8771-122.963177286298Clb=3.5m/s p=449.5hPa t=-29.2C h=13.5% 401.40MHz Type=RS41-SGP Join https://groups.io/g/Balloons
K6GDP-11U22312442022-12-06 23:33:2344.8771-122.963175266294Clb=4.9m/s t=-29.2C h=12.5% p=449.9hPa 401.400 MHz Type=RS41-SGP ser=U2231244 Radiosonde
KE7WWCU22312442022-12-06 23:33:1944.8773-122.963171266283Clb=4.6m/s t=-29.2C h=12.5% p=450.4hPa 401.375 MHz Type=RS41-SGP ser=U2231244 Radiosonde
KG7GDB-12U22312442022-12-06 23:33:1744.8774-122.963177246274Clb=4.4m/s t=-29.1C h=12.4% p=451.1hPa 401.401 MHz Type=RS41-SGP ser=U2231244 Radiosonde
W7BDB-13U22312442022-12-06 23:33:1244.8776-122.963179266262Clb=3.9m/s p=451.8hPa t=-29.0C h=13.4% 401.40MHz Type=RS41-SGP Details on http://radiosondy.info
WA9ONY-10U22312442022-12-06 23:33:1144.8777-122.963183266256Clb=5.7m/s p=452.1hPa t=-29.0C h=13.5% 401.40MHz Type=RS41-SGP Join https://groups.io/g/Balloons
WA9ONY-14U22312442022-12-06 23:33:1044.8777-122.963185266252Clb=3.7m/s p=452.5hPa t=-28.9C h=13.8% 401.40MHz Type=RS41-SGP Join https://groups.io/g/Balloons
KJ7NUX-14U22312442022-12-06 23:33:0844.8779-122.963181246244Clb=3.1m/s p=453.0hPa t=-28.9C h=14.4% 401.40MHz Type=RS41-SGP Details on http://radiosondy.info
W7BDB-12U22312442022-12-06 23:33:0544.8781-122.963179266228Clb=3.9m/s t=-28.9C h=14.8% p=454.1hPa 401.399 MHz Type=RS41-SGP ser=U2231244 Radiosonde
WA9ONY-10U22312442022-12-06 23:32:5844.8783-122.963176246216Clb=4.6m/s p=454.8hPa t=-29.1C h=19.2% 401.40MHz Type=RS41-SGP Join https://groups.io/g/Balloons
WA9ONY-14U22312442022-12-06 23:32:5744.8784-122.963172246212Clb=4.3m/s p=455.0hPa t=-29.1C h=19.9% 401.40MHz Type=RS41-SGP batt=2.9V Join https://groups.io/g/Balloons
W7BDB-13U22312442022-12-06 23:32:5344.8786-122.963159226198Clb=4.6m/s p=455.9hPa t=-29.3C h=20.4% 401.40MHz Type=RS41-SGP Details on http://radiosondy.info
KJ7NUX-14U22312442022-12-06 23:32:4644.8788-122.963202226178Clb=4.4m/s p=457.2hPa t=-29.2C h=19.2% 401.40MHz Type=RS41-SGP batt=2.9V Details on http://radiosondy.info
WA9ONY-10U22312442022-12-06 23:32:4444.8789-122.963206246173Clb=5.1m/s p=457.4hPa t=-29.1C h=19.0% 401.40MHz Type=RS41-SGP batt=2.9V Join https://groups.io/g/Balloons
WA9ONY-14U22312442022-12-06 23:32:4344.879-122.963207206169Clb=3.2m/s p=457.8hPa t=-29.1C h=19.0% 401.40MHz Type=RS41-SGP Join https://groups.io/g/Balloons
K6GDP-11U22312442022-12-06 23:32:4044.8791-122.963187176158Clb=3.9m/s t=-29.1C h=17.1% p=458.6hPa 401.400 MHz Type=RS41-SGP ser=U2231244 Radiosonde
KE7WWCU22312442022-12-06 23:32:3744.8791-122.963164176154Clb=4.3m/s t=-29.0C h=16.6% p=458.7hPa 401.375 MHz Type=RS41-SGP ser=U2231244 Radiosonde
KG7GDB-12U22312442022-12-06 23:32:3544.8792-122.963149286145Clb=5.3m/s t=-29.0C h=15.5% p=459.3hPa 401.401 MHz Type=RS41-SGP ser=U2231244 Radiosonde
W7BDB-13U22312442022-12-06 23:32:3244.8793-122.963148266132Clb=8.3m/s p=460.2hPa t=-28.8C h=15.4% 401.40MHz Type=RS41-SGP batt=2.9V Details on http://radiosondy.info
KJ7NUX-14U22312442022-12-06 23:32:2444.8796-122.963189266091Clb=4.9m/s p=462.7hPa t=-28.4C h=14.8% 401.40MHz Type=RS41-SGP Details on http://radiosondy.info
W7BDB-13U22312442022-12-06 23:32:1244.8803-122.963148246050Clb=4.8m/s p=465.3hPa t=-28.0C h=15.2% 401.40MHz Type=RS41-SGP Details on http://radiosondy.info
KJ7NUX-14U22312442022-12-06 23:32:0344.8806-122.963191226001Clb=9.0m/s p=468.4hPa t=-27.7C h=15.5% 401.40MHz Type=RS41-SGP Details on http://radiosondy.info
K6GDP-11U22312442022-12-06 23:31:5944.8809-122.964175305972Clb=6.5m/s t=-27.5C h=14.7% p=470.6hPa 401.400 MHz Type=RS41-SGP ser=U2231244 Radiosonde
KE7WWCU22312442022-12-06 23:31:5744.8811-122.964184135961Clb=4.0m/s t=-27.3C h=14.6% p=471.3hPa 401.375 MHz Type=RS41-SGP ser=U2231244 Radiosonde
KG7GDB-12U22312442022-12-06 23:31:5544.8811-122.96419395957Clb=4.4m/s t=-27.3C h=14.5% p=471.6hPa 401.401 MHz Type=RS41-SGP ser=U2231244 Radiosonde
W7BDB-13U22312442022-12-06 23:31:5444.8811-122.963204205953Clb=4.7m/s p=471.9hPa t=-27.2C h=15.4% 401.40MHz Type=RS41-SGP Details on http://radiosondy.info
KJ7NUX-14U22312442022-12-06 23:31:4644.8815-122.963171245909Clb=6.7m/s p=474.8hPa t=-26.8C h=15.5% 401.40MHz Type=RS41-SGP batt=2.9V Details on http://radiosondy.info
W7BDB-13U22312442022-12-06 23:31:3944.8819-122.964175225872Clb=4.9m/s p=477.2hPa t=-26.6C h=18.1% 401.40MHz Type=RS41-SGP TxPastBurst=8h30m batt=2.9V Details on http://radiosondy.info
KJ7NUX-14U22312442022-12-06 23:31:3044.8824-122.964160205821Clb=6.1m/s p=480.5hPa t=-26.3C h=18.0% 401.40MHz Type=RS41-SGP Details on http://radiosondy.info
K6GDP-11U22312442022-12-06 23:31:2844.8825-122.964182195808Clb=3.2m/s t=-26.2C h=17.2% p=481.5hPa 401.400 MHz Type=RS41-SGP ser=U2231244 Radiosonde
KE7WWCU22312442022-12-06 23:31:2644.8827-122.964172225799Clb=4.0m/s t=-26.1C h=17.0% p=482.1hPa 401.375 MHz Type=RS41-SGP ser=U2231244 Radiosonde
KG7GDB-12U22312442022-12-06 23:31:2444.8827-122.964167245796Clb=4.6m/s t=-26.1C h=16.8% p=482.2hPa 401.401 MHz Type=RS41-SGP ser=U2231244 Radiosonde
WA9ONY-14U22312442022-12-06 23:31:2244.8828-122.964157195787Clb=3.8m/s p=482.6hPa t=-26.0C h=17.6% 401.40MHz Type=RS41-SGP Join https://groups.io/g/Balloons
KJ7NUX-14U22312442022-12-06 23:31:1444.8831-122.964195195752Clb=5.1m/s p=484.9hPa t=-25.7C h=17.1% 401.40MHz Type=RS41-SGP Details on http://radiosondy.info
WA9ONY-10U22312442022-12-06 23:31:1244.8832-122.964190195740Clb=7.1m/s p=485.9hPa t=-25.6C h=16.7% 401.40MHz Type=RS41-SGP Join https://groups.io/g/Balloons
W7BDB-13U22312442022-12-06 23:31:0944.8833-122.964136205719Clb=4.7m/s p=487.2hPa t=-25.4C h=16.4% 401.40MHz Type=RS41-SGP Details on http://radiosondy.info
WA9ONY-10U22312442022-12-06 23:31:0244.8836-122.964193225685Clb=3.6m/s p=489.3hPa t=-25.1C h=16.3% 401.40MHz Type=RS41-SGP batt=2.9V Join https://groups.io/g/Balloons
KJ7NUX-14U22312442022-12-06 23:30:5844.8839-122.964156205666Clb=5.5m/s p=490.6hPa t=-25.0C h=15.8% 401.40MHz Type=RS41-SGP TxPastBurst=8h30m batt=2.9V Details on http://radiosondy.info
K6GDP-11U22312442022-12-06 23:30:5744.884-122.964150195649Clb=8.4m/s t=-24.9C h=14.7% p=491.5hPa 401.400 MHz Type=RS41-SGP ser=U2231244 Radiosonde
KE7WWCU22312442022-12-06 23:30:5544.884-122.964160175642Clb=6.8m/s t=-24.8C h=14.7% p=492.1hPa 401.375 MHz Type=RS41-SGP ser=U2231244 Radiosonde
W7BDB-13U22312442022-12-06 23:30:5444.884-122.964182225636Clb=5.7m/s p=492.4hPa t=-24.7C h=15.4% 401.40MHz Type=RS41-SGP batt=2.9V Details on http://radiosondy.info
KG7GDB-12U22312442022-12-06 23:30:5344.8841-122.964187205631Clb=4.6m/s t=-24.7C h=14.6% p=493.1hPa 401.401 MHz Type=RS41-SGP ser=U2231244 Radiosonde
WA9ONY-14U22312442022-12-06 23:30:5244.8841-122.964192225626Clb=5.3m/s p=493.4hPa t=-24.6C h=15.5% 401.40MHz Type=RS41-SGP Join https://groups.io/g/Balloons
KJ7NUX-14U22312442022-12-06 23:30:4244.8847-122.964169205582Clb=6.0m/s p=496.4hPa t=-24.3C h=18.1% 401.40MHz Type=RS41-SGP Details on http://radiosondy.info
W7BDB-13U22312442022-12-06 23:30:3944.8849-122.964148225564Clb=5.2m/s p=497.7hPa t=-24.1C h=19.5% 401.40MHz Type=RS41-SGP Details on http://radiosondy.info
WA9ONY-10U22312442022-12-06 23:30:3244.8851-122.964161245531Clb=4.4m/s p=499.9hPa t=-24.0C h=25.8% 401.40MHz Type=RS41-SGP TxPastBurst=8h30m batt=2.9V Join https://groups.io/g/Balloons
KJ7NUX-14U22312442022-12-06 23:30:2644.8854-122.965167225505Clb=4.5m/s p=501.7hPa t=-23.9C h=27.8% 401.40MHz Type=RS41-SGP Details on http://radiosondy.info
KE7WWCU22312442022-12-06 23:30:2444.8857-122.965163265491Clb=7.3m/s t=-24.0C h=27.9% p=502.7hPa 401.375 MHz Type=RS41-SGP ser=U2231244 Radiosonde
KG7GDB-12U22312442022-12-06 23:30:2244.8857-122.965170195485Clb=5.6m/s t=-24.0C h=29.1% p=503.1hPa 401.401 MHz Type=RS41-SGP ser=U2231244 Radiosonde
KJ7NUX-14U22312442022-12-06 23:30:1044.8863-122.965171305424Clb=4.5m/s p=507.2hPa t=-23.5C h=32.7% 401.40MHz Type=RS41-SGP batt=2.9V Details on http://radiosondy.info
W7BDB-13U22312442022-12-06 23:30:0844.8866-122.965161285413Clb=3.2m/s p=508.0hPa t=-23.4C h=32.9% 401.40MHz Type=RS41-SGP batt=2.9V Details on http://radiosondy.info
WA9ONY-10U22312442022-12-06 23:30:0644.8867-122.965159265408Clb=7.6m/s p=508.3hPa t=-23.4C h=32.0% 401.40MHz Type=RS41-SGP Join https://groups.io/g/Balloons
WA9ONY-14U22312442022-12-06 23:30:0344.8869-122.965159245385Clb=6.2m/s p=510.0hPa t=-23.2C h=31.8% 401.40MHz Type=RS41-SGP batt=2.9V Join https://groups.io/g/Balloons
WA9ONY-10U22312442022-12-06 23:29:5544.8874-122.965169285342Clb=5.4m/s p=513.0hPa t=-22.8C h=30.8% 401.40MHz Type=RS41-SGP batt=2.9V Join https://groups.io/g/Balloons
KJ7NUX-14U22312442022-12-06 23:29:5444.8874-122.965170285337Clb=4.1m/s p=513.4hPa t=-22.7C h=30.8% 401.40MHz Type=RS41-SGP Details on http://radiosondy.info
WA9ONY-14U22312442022-12-06 23:29:5344.8875-122.965170285332Clb=5.5m/s p=513.7hPa t=-22.7C h=30.5% 401.40MHz Type=RS41-SGP Join https://groups.io/g/Balloons
KG7GDB-12U22312442022-12-06 23:29:5144.8876-122.965167285322Clb=6.4m/s t=-22.7C h=29.7% p=514.5hPa 401.401 MHz Type=RS41-SGP ser=U2231244 Radiosonde
WA9ONY-10U22312442022-12-06 23:29:4544.888-122.965170285285Clb=4.5m/s p=517.1hPa t=-22.2C h=29.7% 401.40MHz Type=RS41-SGP Join https://groups.io/g/Balloons
WA9ONY-14U22312442022-12-06 23:29:4344.8882-122.966152285276Clb=3.9m/s p=517.7hPa t=-22.2C h=30.1% 401.40MHz Type=RS41-SGP Join https://groups.io/g/Balloons
W7BDB-12U22312442022-12-06 23:29:4244.8883-122.966123225259Clb=3.6m/s t=-22.1C h=28.9% p=519.0hPa 401.399 MHz Type=RS41-SGP ser=U2231244 Radiosonde
KJ7NUX-14U22312442022-12-06 23:29:3844.8884-122.966132265255Clb=4.4m/s p=519.2hPa t=-22.0C h=29.9% 401.40MHz Type=RS41-SGP Details on http://radiosondy.info
W7BDB-13U22312442022-12-06 23:29:3544.8885-122.966154245240Clb=7.0m/s p=520.2hPa t=-21.9C h=30.1% 401.40MHz Type=RS41-SGP Details on http://radiosondy.info
WA9ONY-14U22312442022-12-06 23:29:3344.8887-122.966169245228Clb=6.3m/s p=521.2hPa t=-21.8C h=29.9% 401.40MHz Type=RS41-SGP batt=2.9V Join https://groups.io/g/Balloons
WA9ONY-10U22312442022-12-06 23:29:2544.889-122.967131225188Clb=5.8m/s p=524.1hPa t=-21.5C h=28.9% 401.40MHz Type=RS41-SGP batt=2.9V Join https://groups.io/g/Balloons
K6GDP-11U22312442022-12-06 23:29:2444.8891-122.967136225177Clb=4.4m/s t=-21.5C h=27.7% p=524.9hPa 401.400 MHz Type=RS41-SGP ser=U2231244 Radiosonde
WA9ONY-10U22312442022-12-06 23:29:2344.8894-122.967152205135Clb=6.0m/s p=527.9hPa t=-21.0C h=27.1% 401.40MHz Type=RS41-SGP Join https://groups.io/g/Balloons
WA9ONY-14U22312442022-12-06 23:29:2244.8895-122.967163205124Clb=4.2m/s p=528.6hPa t=-20.9C h=27.3% 401.40MHz Type=RS41-SGP Join https://groups.io/g/Balloons
KJ7NUX-14U22312442022-12-06 23:29:1844.8898-122.967119285090Clb=3.4m/s p=531.0hPa t=-20.6C h=27.2% 401.40MHz Type=RS41-SGP Details on http://radiosondy.info
WA9ONY-10U22312442022-12-06 23:29:1744.8898-122.967124315086Clb=4.7m/s p=531.4hPa t=-20.6C h=27.1% 401.40MHz Type=RS41-SGP Join https://groups.io/g/Balloons
WA9ONY-14U22312442022-12-06 23:29:1644.8899-122.968137305076Clb=6.7m/s p=532.0hPa t=-20.5C h=26.6% 401.40MHz Type=RS41-SGP TxPastBurst=8h30m batt=2.9V Join https://groups.io/g/Balloons
WA9ONY-10U22312442022-12-06 23:29:0544.8904-122.968161265032Clb=5.7m/s p=535.1hPa t=-20.1C h=26.3% 401.40MHz Type=RS41-SGP TxPastBurst=8h30m batt=2.9V Join https://groups.io/g/Balloons
WA9ONY-14U22312442022-12-06 23:29:0344.8905-122.968192225021Clb=6.1m/s p=535.8hPa t=-20.0C h=25.9% 401.40MHz Type=RS41-SGP Join https://groups.io/g/Balloons
K6GDP-11U22312442022-12-06 23:29:0244.8905-122.968185175013Clb=6.4m/s t=-20.0C h=25.1% p=536.4hPa 401.400 MHz Type=RS41-SGP ser=U2231244 Radiosonde
KJ7NUX-14U22312442022-12-06 23:29:0044.8906-122.968167265004Clb=5.4m/s p=537.1hPa t=-19.9C h=25.9% 401.40MHz Type=RS41-SGP Details on http://radiosondy.info
KG7GDB-12U22312442022-12-06 23:28:5844.8907-122.968161304998Clb=5.7m/s t=-19.9C h=24.9% p=537.5hPa 401.401 MHz Type=RS41-SGP ser=U2231244 Radiosonde
W7BDB-13U22312442022-12-06 23:28:5644.8909-122.968164244987Clb=4.8m/s p=538.1hPa t=-19.8C h=25.5% 401.40MHz Type=RS41-SGP Details on http://radiosondy.info
WA9ONY-10U22312442022-12-06 23:28:5344.891-122.968174204978Clb=3.7m/s p=538.8hPa t=-19.7C h=25.4% 401.40MHz Type=RS41-SGP Join https://groups.io/g/Balloons
WA9ONY-14U22312442022-12-06 23:28:4544.8914-122.968166204942Clb=3.6m/s p=541.4hPa t=-19.4C h=25.1% 401.40MHz Type=RS41-SGP Join https://groups.io/g/Balloons
WA9ONY-10U22312442022-12-06 23:28:4244.8916-122.968169224926Clb=6.9m/s p=542.8hPa t=-19.2C h=24.0% 401.40MHz Type=RS41-SGP Join https://groups.io/g/Balloons
KJ7NUX-14U22312442022-12-06 23:28:4144.8916-122.968176224918Clb=6.6m/s p=543.2hPa t=-19.2C h=24.3% 401.40MHz Type=RS41-SGP TxPastBurst=8h30m batt=2.9V Details on http://radiosondy.info
W7BDB-13U22312442022-12-06 23:28:3944.8918-122.968183194908Clb=5.5m/s p=544.1hPa t=-19.1C h=25.1% 401.40MHz Type=RS41-SGP batt=2.9V Details on http://radiosondy.info
WA9ONY-14U22312442022-12-06 23:28:3044.8919-122.969119224874Clb=5.2m/s p=546.4hPa t=-18.9C h=25.2% 401.40MHz Type=RS41-SGP batt=2.9V Join https://groups.io/g/Balloons
WA9ONY-10U22312442022-12-06 23:28:2944.892-122.969121224869Clb=4.0m/s p=546.8hPa t=-18.8C h=25.1% 401.40MHz Type=RS41-SGP batt=2.9V Join https://groups.io/g/Balloons
K6GDP-11U22312442022-12-06 23:28:2544.8921-122.969158174847Clb=6.0m/s t=-18.7C h=24.7% p=548.5hPa 401.400 MHz Type=RS41-SGP ser=U2231244 Radiosonde
KE7WWCU22312442022-12-06 23:28:2244.8923-122.969177194830Clb=4.1m/s t=-273.0C h=-1.0% p=-1.0hPa 401.375 MHz Type=RS41-SGP ser=U2231244 Radiosonde
KJ7NUX-14U22312442022-12-06 23:28:2144.8923-122.969178204830Clb=4.1m/s p=549.8hPa t=-18.6C h=25.3% 401.40MHz Type=RS41-SGP Details on http://radiosondy.info
W7BDB-13U22312442022-12-06 23:28:2044.8923-122.969168224826Clb=5.4m/s p=550.2hPa t=-18.5C h=25.3% 401.40MHz Type=RS41-SGP Details on http://radiosondy.info
WA9ONY-14U22312442022-12-06 23:28:1844.8924-122.969159244821Clb=3.8m/s p=550.5hPa t=-18.5C h=25.2% 401.40MHz Type=RS41-SGP Join https://groups.io/g/Balloons
WA9ONY-10U22312442022-12-06 23:28:1744.8924-122.969150244817Clb=3.8m/s p=550.8hPa t=-18.4C h=25.3% 401.40MHz Type=RS41-SGP Join https://groups.io/g/Balloons
WA9ONY-14U22312442022-12-06 23:28:0644.8929-122.969213194779Clb=5.3m/s p=553.6hPa t=-18.2C h=25.1% 401.40MHz Type=RS41-SGP Join https://groups.io/g/Balloons
WA9ONY-10U22312442022-12-06 23:28:0544.893-122.969196194774Clb=5.7m/s p=553.9hPa t=-18.2C h=25.0% 401.40MHz Type=RS41-SGP Join https://groups.io/g/Balloons
KJ7NUX-14U22312442022-12-06 23:28:0244.8931-122.969174204759Clb=5.4m/s p=555.2hPa t=-18.0C h=24.6% 401.40MHz Type=RS41-SGP Details on http://radiosondy.info
W7BDB-13U22312442022-12-06 23:28:0144.8931-122.969171224753Clb=5.5m/s p=555.6hPa t=-18.0C h=24.7% 401.40MHz Type=RS41-SGP Details on http://radiosondy.info
WA9ONY-14U22312442022-12-06 23:27:5644.8933-122.969112224726Clb=4.0m/s p=557.6hPa t=-17.7C h=24.6% 401.40MHz Type=RS41-SGP batt=2.9V Join https://groups.io/g/Balloons
WA9ONY-10U22312442022-12-06 23:27:5544.8934-122.969117224722Clb=4.5m/s p=557.9hPa t=-17.7C h=24.8% 401.40MHz Type=RS41-SGP batt=2.9V Join https://groups.io/g/Balloons
K6GDP-11U22312442022-12-06 23:27:5044.8936-122.97167224697Clb=5.8m/s t=-17.6C h=24.8% p=559.8hPa 401.400 MHz Type=RS41-SGP ser=U2231244 Radiosonde
KG7GDB-12U22312442022-12-06 23:27:4744.8937-122.97174174675Clb=7.5m/s t=-17.4C h=24.6% p=561.3hPa 401.401 MHz Type=RS41-SGP ser=U2231244 Radiosonde
W7BDB-13U22312442022-12-06 23:27:4644.8938-122.97185174668Clb=5.9m/s p=561.8hPa t=-17.3C h=25.4% 401.40MHz Type=RS41-SGP batt=2.9V Details on http://radiosondy.info
WA9ONY-10U22312442022-12-06 23:27:4544.8938-122.97185204663Clb=4.2m/s p=562.2hPa t=-17.2C h=25.4% 401.40MHz Type=RS41-SGP Join https://groups.io/g/Balloons
KJ7NUX-14U22312442022-12-06 23:27:4244.8939-122.97194174650Clb=4.6m/s p=563.2hPa t=-17.1C h=26.2% 401.40MHz Type=RS41-SGP batt=2.9V Details on http://radiosondy.info
WA9ONY-14U22312442022-12-06 23:27:3644.8942-122.97124134615Clb=8.3m/s p=565.6hPa t=-16.9C h=26.1% 401.40MHz Type=RS41-SGP Join https://groups.io/g/Balloons
WA9ONY-10U22312442022-12-06 23:27:3544.8942-122.97134154609Clb=5.0m/s p=566.1hPa t=-16.8C h=26.2% 401.40MHz Type=RS41-SGP Join https://groups.io/g/Balloons
W7BDB-13U22312442022-12-06 23:27:3044.8943-122.9796194584Clb=7.0m/s p=568.0hPa t=-16.6C h=26.9% 401.40MHz Type=RS41-SGP Details on http://radiosondy.info
KJ7NUX-14U22312442022-12-06 23:27:2744.8944-122.97144224560Clb=4.2m/s p=569.8hPa t=-16.4C h=27.1% 401.40MHz Type=RS41-SGP Details on http://radiosondy.info
WA9ONY-14U22312442022-12-06 23:27:2644.8944-122.97144264560Clb=4.2m/s p=569.8hPa t=-16.4C h=27.1% 401.40MHz Type=RS41-SGP TxPastBurst=8h30m batt=2.9V Join https://groups.io/g/Balloons
WA9ONY-10U22312442022-12-06 23:27:2544.8945-122.97153244556Clb=3.9m/s p=570.2hPa t=-16.4C h=27.1% 401.40MHz Type=RS41-SGP TxPastBurst=8h30m batt=2.9V Join https://groups.io/g/Balloons
K6GDP-11U22312442022-12-06 23:27:1944.8948-122.9718064525Clb=7.3m/s t=-16.2C h=26.8% p=572.4hPa 401.400 MHz Type=RS41-SGP ser=U2231244 Radiosonde
KE7WWCU22312442022-12-06 23:27:1744.8948-122.97113134513Clb=4.6m/s t=-273.0C h=-1.0% p=-1.0hPa 401.375 MHz Type=RS41-SGP ser=U2231244 Radiosonde
KG7GDB-12U22312442022-12-06 23:27:1644.8948-122.971101224501Clb=7.9m/s t=-16.1C h=27.1% p=574.2hPa 401.401 MHz Type=RS41-SGP ser=U2231244 Radiosonde
W7BDB-13U22312442022-12-06 23:27:1444.8948-122.97196264494Clb=7.9m/s p=574.8hPa t=-15.9C h=27.4% 401.40MHz Type=RS41-SGP Details on http://radiosondy.info
KJ7NUX-14U22312442022-12-06 23:27:1144.8949-122.971123224471Clb=4.3m/s p=576.7hPa t=-15.7C h=26.8% 401.40MHz Type=RS41-SGP Details on http://radiosondy.info
W7BDB-13U22312442022-12-06 23:26:5944.8954-122.971129244404Clb=5.9m/s p=581.8hPa t=-15.4C h=42.3% 401.40MHz Type=RS41-SGP TxPastBurst=8h30m batt=2.9V Details on http://radiosondy.info
KJ7NUX-14U22312442022-12-06 23:26:5444.8957-122.972149244380Clb=6.7m/s p=583.8hPa t=-15.3C h=48.1% 401.40MHz Type=RS41-SGP batt=2.7V Details on http://radiosondy.info
WA9ONY-10U22312442022-12-06 23:26:5344.8957-122.972145264374Clb=5.1m/s p=584.3hPa t=-15.3C h=50.4% 401.40MHz Type=RS41-SGP Join https://groups.io/g/Balloons
WA9ONY-14U22312442022-12-06 23:26:5144.8959-122.972151244360Clb=6.9m/s p=585.3hPa t=-15.2C h=46.9% 401.40MHz Type=RS41-SGP Join https://groups.io/g/Balloons
K6GDP-11U22312442022-12-06 23:26:4844.896-122.972132204343Clb=5.0m/s t=-15.0C h=39.4% p=586.7hPa 401.400 MHz Type=RS41-SGP ser=U2231244 Radiosonde
KG7GDB-12U22312442022-12-06 23:26:4544.8961-122.972136204325Clb=7.9m/s t=-14.9C h=38.3% p=588.1hPa 401.401 MHz Type=RS41-SGP ser=U2231244 Radiosonde
W7BDB-13U22312442022-12-06 23:26:4444.8962-122.972155224317Clb=5.9m/s p=588.7hPa t=-14.8C h=39.3% 401.40MHz Type=RS41-SGP Details on http://radiosondy.info
WA9ONY-10U22312442022-12-06 23:26:4344.8962-122.972169204312Clb=5.1m/s p=589.2hPa t=-14.8C h=39.3% 401.40MHz Type=RS41-SGP Join https://groups.io/g/Balloons
WA9ONY-14U22312442022-12-06 23:26:4144.8964-122.972197224300Clb=5.1m/s p=590.1hPa t=-14.7C h=40.4% 401.40MHz Type=RS41-SGP Join https://groups.io/g/Balloons
KJ7NUX-14U22312442022-12-06 23:26:3844.8965-122.972166244289Clb=3.6m/s p=590.9hPa t=-14.7C h=37.2% 401.40MHz Type=RS41-SGP Details on http://radiosondy.info
WA9ONY-10U22312442022-12-06 23:26:3344.8967-122.972139304265Clb=6.1m/s p=592.8hPa t=-14.7C h=41.8% 401.40MHz Type=RS41-SGP batt=2.9V Join https://groups.io/g/Balloons
WA9ONY-14U22312442022-12-06 23:26:3144.8968-122.973162264253Clb=5.2m/s p=593.9hPa t=-14.7C h=42.9% 401.40MHz Type=RS41-SGP batt=2.9V Join https://groups.io/g/Balloons
W7BDB-13U22312442022-12-06 23:26:2944.897-122.973170244237Clb=7.9m/s p=595.1hPa t=-14.7C h=41.7% 401.40MHz Type=RS41-SGP Details on http://radiosondy.info
KJ7NUX-14U22312442022-12-06 23:26:2244.8973-122.973169284201Clb=5.1m/s p=597.9hPa t=-14.4C h=41.4% 401.40MHz Type=RS41-SGP Details on http://radiosondy.info
K6GDP-11U22312442022-12-06 23:26:1744.8975-122.973191264176Clb=5.9m/s t=-14.3C h=40.5% p=599.9hPa 401.400 MHz Type=RS41-SGP ser=U2231244 Radiosonde
KG7GDB-12U22312442022-12-06 23:26:1444.8978-122.973153304155Clb=6.1m/s t=-14.2C h=42.8% p=601.6hPa 401.401 MHz Type=RS41-SGP ser=U2231244 Radiosonde
W7BDB-13U22312442022-12-06 23:26:1244.8979-122.973144314149Clb=6.1m/s p=602.0hPa t=-14.2C h=43.7% 401.40MHz Type=RS41-SGP batt=2.9V Details on http://radiosondy.info
KJ7NUX-14U22312442022-12-06 23:26:0644.8982-122.973129314120Clb=6.5m/s p=604.1hPa t=-14.1C h=45.8% 401.40MHz Type=RS41-SGP TxPastBurst=8h30m batt=2.9V Details on http://radiosondy.info
W7BDB-13U22312442022-12-06 23:25:5644.8989-122.974143334059Clb=8.0m/s p=609.2hPa t=-13.7C h=49.4% 401.40MHz Type=RS41-SGP Details on http://radiosondy.info
WA9ONY-14U22312442022-12-06 23:25:5544.8989-122.974146354052Clb=5.8m/s p=609.6hPa t=-13.6C h=49.5% 401.40MHz Type=RS41-SGP Join https://groups.io/g/Balloons
WA9ONY-10U22312442022-12-06 23:25:5444.899-122.974147374047Clb=5.1m/s p=610.1hPa t=-13.6C h=49.5% 401.40MHz Type=RS41-SGP Join https://groups.io/g/Balloons
KJ7NUX-14U22312442022-12-06 23:25:5044.8992-122.974154314021Clb=6.0m/s p=612.2hPa t=-13.3C h=47.6% 401.40MHz Type=RS41-SGP Details on http://radiosondy.info
K6GDP-11U22312442022-12-06 23:25:4644.8996-122.975154434002Clb=4.5m/s t=-13.2C h=45.8% p=613.6hPa 401.400 MHz Type=RS41-SGP ser=U2231244 Radiosonde
WA9ONY-14U22312442022-12-06 23:25:4544.8997-122.975145243998Clb=4.1m/s p=613.8hPa t=-13.1C h=45.8% 401.40MHz Type=RS41-SGP Join https://groups.io/g/Balloons
WA9ONY-10U22312442022-12-06 23:25:4444.8998-122.975137243994Clb=4.2m/s p=614.2hPa t=-13.1C h=45.6% 401.40MHz Type=RS41-SGP Join https://groups.io/g/Balloons
KG7GDB-12U22312442022-12-06 23:25:4344.8999-122.975128203986Clb=5.7m/s t=-13.0C h=43.6% p=615.0hPa 401.401 MHz Type=RS41-SGP ser=U2231244 Radiosonde
W7BDB-13U22312442022-12-06 23:25:4044.8999-122.975156313975Clb=4.5m/s p=615.8hPa t=-12.9C h=43.6% 401.40MHz Type=RS41-SGP Details on http://radiosondy.info
WA9ONY-14U22312442022-12-06 23:25:3544.9002-122.975155353952Clb=5.1m/s p=617.6hPa t=-12.7C h=40.4% 401.40MHz Type=RS41-SGP batt=2.9V Join https://groups.io/g/Balloons
KJ7NUX-14U22312442022-12-06 23:25:3444.9003-122.975145333946Clb=6.6m/s p=618.1hPa t=-12.7C h=39.5% 401.40MHz Type=RS41-SGP Details on http://radiosondy.info
W7BDB-12U22312442022-12-06 23:25:3344.9005-122.975123373928Clb=5.1m/s t=-12.6C h=36.2% p=619.5hPa 401.399 MHz Type=RS41-SGP ser=U2231244 Radiosonde
W7BDB-13U22312442022-12-06 23:25:2544.9008-122.976126333901Clb=5.2m/s p=621.8hPa t=-12.3C h=27.2% 401.40MHz Type=RS41-SGP batt=2.9V Details on http://radiosondy.info
WA9ONY-10U22312442022-12-06 23:25:2444.9008-122.976120313894Clb=6.7m/s p=622.2hPa t=-12.3C h=26.3% 401.40MHz Type=RS41-SGP Join https://groups.io/g/Balloons
KJ7NUX-14U22312442022-12-06 23:25:1844.901-122.977138333868Clb=4.4m/s p=624.5hPa t=-12.1C h=21.6% 401.40MHz Type=RS41-SGP batt=2.9V Details on http://radiosondy.info
K6GDP-11U22312442022-12-06 23:25:1544.9012-122.977137393849Clb=6.1m/s t=-12.1C h=21.0% p=626.1hPa 401.400 MHz Type=RS41-SGP ser=U2231244 Radiosonde
WA9ONY-10U22312442022-12-06 23:25:1444.9013-122.977132333843Clb=6.2m/s p=626.5hPa t=-12.0C h=20.8% 401.40MHz Type=RS41-SGP Join https://groups.io/g/Balloons
W7BDB-13U22312442022-12-06 23:25:1344.9017-122.977155263816Clb=4.0m/s p=628.7hPa t=-11.9C h=20.0% 401.40MHz Type=RS41-SGP Details on http://radiosondy.info
WA9ONY-14U22312442022-12-06 23:25:1244.9019-122.977116243793Clb=5.4m/s p=630.6hPa t=-11.7C h=19.4% 401.40MHz Type=RS41-SGP TxPastBurst=8h30m batt=2.9V Join https://groups.io/g/Balloons
WA9ONY-10U22312442022-12-06 23:25:1144.9019-122.978105243788Clb=4.4m/s p=631.1hPa t=-11.7C h=19.4% 401.40MHz Type=RS41-SGP TxPastBurst=8h30m batt=2.9V Join https://groups.io/g/Balloons
KJ7NUX-14U22312442022-12-06 23:25:1044.9019-122.978110243780Clb=3.9m/s p=631.6hPa t=-11.7C h=19.5% 401.40MHz Type=RS41-SGP Details on http://radiosondy.info
WA9ONY-14U22312442022-12-06 23:25:0444.9023-122.978152243744Clb=3.3m/s p=634.6hPa t=-11.7C h=22.7% 401.40MHz Type=RS41-SGP Join https://groups.io/g/Balloons
WA9ONY-10U22312442022-12-06 23:25:0344.9023-122.978110263740Clb=4.5m/s p=634.9hPa t=-11.7C h=22.7% 401.40MHz Type=RS41-SGP Join https://groups.io/g/Balloons
KJ7NUX-14U22312442022-12-06 23:24:5444.9025-122.979126243701Clb=4.7m/s p=638.3hPa t=-11.7C h=23.5% 401.40MHz Type=RS41-SGP Details on http://radiosondy.info
WA9ONY-14U22312442022-12-06 23:24:5244.9025-122.979123263698Clb=4.0m/s p=638.6hPa t=-11.6C h=23.4% 401.40MHz Type=RS41-SGP Join https://groups.io/g/Balloons
WA9ONY-10U22312442022-12-06 23:24:5144.9026-122.979120243693Clb=5.0m/s p=638.9hPa t=-11.6C h=23.2% 401.40MHz Type=RS41-SGP Join https://groups.io/g/Balloons
KG7GDB-12U22312442022-12-06 23:24:4744.9027-122.979115203675Clb=4.1m/s t=-11.5C h=23.2% p=640.3hPa 401.401 MHz Type=RS41-SGP ser=U2231244 Radiosonde
W7BDB-13U22312442022-12-06 23:24:4544.9027-122.979132203671Clb=4.9m/s p=640.7hPa t=-11.4C h=23.4% 401.40MHz Type=RS41-SGP TxPastBurst=8h30m batt=2.9V Details on http://radiosondy.info
WA9ONY-14U22312442022-12-06 23:24:4044.9029-122.979168193649Clb=5.9m/s p=642.6hPa t=-11.5C h=27.8% 401.40MHz Type=RS41-SGP batt=2.9V Join https://groups.io/g/Balloons
WA9ONY-10U22312442022-12-06 23:24:3944.9029-122.979177223644Clb=3.0m/s p=642.9hPa t=-11.4C h=27.4% 401.40MHz Type=RS41-SGP batt=2.9V Join https://groups.io/g/Balloons
KJ7NUX-14U22312442022-12-06 23:24:3544.903-122.979162243629Clb=4.6m/s p=644.4hPa t=-11.4C h=26.1% 401.40MHz Type=RS41-SGP batt=2.9V Details on http://radiosondy.info
WA9ONY-14U22312442022-12-06 23:24:2844.9033-122.98122243602Clb=6.3m/s p=646.8hPa t=-11.2C h=24.2% 401.40MHz Type=RS41-SGP Join https://groups.io/g/Balloons
W7BDB-13U22312442022-12-06 23:24:2744.9033-122.98108243597Clb=4.2m/s p=647.1hPa t=-11.2C h=24.0% 401.40MHz Type=RS41-SGP Details on http://radiosondy.info
WA9ONY-14U22312442022-12-06 23:24:1744.9037-122.98150243548Clb=6.1m/s p=651.3hPa t=-10.7C h=22.1% 401.40MHz Type=RS41-SGP Join https://groups.io/g/Balloons
KJ7NUX-14U22312442022-12-06 23:24:1644.9037-122.98149223541Clb=5.9m/s p=651.8hPa t=-10.7C h=21.4% 401.40MHz Type=RS41-SGP Details on http://radiosondy.info
WA9ONY-10U22312442022-12-06 23:24:1544.9037-122.98149263541Clb=5.9m/s p=651.8hPa t=-10.7C h=21.4% 401.40MHz Type=RS41-SGP Join https://groups.io/g/Balloons
K6GDP-11U22312442022-12-06 23:24:1444.9037-122.98140203536Clb=4.6m/s t=-10.7C h=20.2% p=652.3hPa 401.400 MHz Type=RS41-SGP ser=U2231244 Radiosonde
KG7GDB-12U22312442022-12-06 23:24:1144.9039-122.981122263512Clb=5.7m/s t=-10.5C h=22.1% p=654.4hPa 401.401 MHz Type=RS41-SGP ser=U2231244 Radiosonde
W7BDB-13U22312442022-12-06 23:24:0944.904-122.981137203508Clb=4.1m/s p=654.8hPa t=-10.4C h=23.6% 401.40MHz Type=RS41-SGP Details on http://radiosondy.info
WA9ONY-14U22312442022-12-06 23:24:0544.9041-122.981172193493Clb=5.9m/s p=656.0hPa t=-10.4C h=26.3% 401.40MHz Type=RS41-SGP batt=2.9V Join https://groups.io/g/Balloons
WA9ONY-10U22312442022-12-06 23:24:0444.9042-122.981172193488Clb=4.6m/s p=656.3hPa t=-10.4C h=26.4% 401.40MHz Type=RS41-SGP batt=2.9V Join https://groups.io/g/Balloons
KJ7NUX-14U22312442022-12-06 23:23:5844.9045-122.981150223463Clb=3.7m/s p=658.5hPa t=-10.2C h=19.7% 401.40MHz Type=RS41-SGP Details on http://radiosondy.info
WA9ONY-14U22312442022-12-06 23:23:5544.9046-122.981160263450Clb=4.9m/s p=659.7hPa t=-10.1C h=19.8% 401.40MHz Type=RS41-SGP Join https://groups.io/g/Balloons
WA9ONY-10U22312442022-12-06 23:23:5444.9046-122.981157263446Clb=3.8m/s p=659.9hPa t=-10.1C h=21.1% 401.40MHz Type=RS41-SGP Join https://groups.io/g/Balloons
W7BDB-13U22312442022-12-06 23:23:5244.9048-122.981150283436Clb=7.5m/s p=660.9hPa t=-10.2C h=28.1% 401.40MHz Type=RS41-SGP batt=2.9V Details on http://radiosondy.info
WA9ONY-14U22312442022-12-06 23:23:4544.9051-122.982164283400Clb=4.3m/s p=663.8hPa t=-10.3C h=42.0% 401.40MHz Type=RS41-SGP Join https://groups.io/g/Balloons
WA9ONY-10U22312442022-12-06 23:23:4444.9051-122.982161263394Clb=6.0m/s p=664.3hPa t=-10.3C h=42.4% 401.40MHz Type=RS41-SGP Join https://groups.io/g/Balloons
KJ7NUX-14U22312442022-12-06 23:23:4244.9053-122.982143283384Clb=5.3m/s p=665.3hPa t=-10.2C h=40.4% 401.40MHz Type=RS41-SGP TxPastBurst=8h30m batt=2.9V Details on http://radiosondy.info
KG7GDB-12U22312442022-12-06 23:23:3944.9055-122.982154263362Clb=4.4m/s t=-10.1C h=41.8% p=667.2hPa 401.401 MHz Type=RS41-SGP ser=U2231244 Radiosonde
W7BDB-13U22312442022-12-06 23:23:3744.9056-122.982158303358Clb=5.1m/s p=667.5hPa t=-10.0C h=42.5% 401.40MHz Type=RS41-SGP Details on http://radiosondy.info
WA9ONY-14U22312442022-12-06 23:23:3544.9056-122.982137303347Clb=6.3m/s p=668.5hPa t=-9.9C h=42.1% 401.40MHz Type=RS41-SGP TxPastBurst=8h30m batt=2.9V Join https://groups.io/g/Balloons
WA9ONY-10U22312442022-12-06 23:23:3444.9057-122.982122313341Clb=5.8m/s p=669.0hPa t=-9.9C h=42.0% 401.40MHz Type=RS41-SGP TxPastBurst=8h30m batt=2.9V Join https://groups.io/g/Balloons
W7BDB-12U22312442022-12-06 23:23:2944.9062-122.983151393299Clb=3.5m/s t=-9.5C h=41.1% p=672.6hPa 401.399 MHz Type=RS41-SGP ser=U2231244 Radiosonde
KJ7NUX-14U22312442022-12-06 23:23:2644.9062-122.983152333299Clb=3.4m/s p=672.6hPa t=-9.5C h=41.5% 401.40MHz Type=RS41-SGP Details on http://radiosondy.info
WA9ONY-14U22312442022-12-06 23:23:2544.9062-122.983155283295Clb=4.4m/s p=673.1hPa t=-9.5C h=41.4% 401.40MHz Type=RS41-SGP Join https://groups.io/g/Balloons
WA9ONY-10U22312442022-12-06 23:23:2444.9063-122.983157283291Clb=4.1m/s p=673.2hPa t=-9.4C h=41.5% 401.40MHz Type=RS41-SGP Join https://groups.io/g/Balloons
W7BDB-13U22312442022-12-06 23:23:2244.9064-122.983161263282Clb=4.8m/s p=674.0hPa t=-9.4C h=41.5% 401.40MHz Type=RS41-SGP Details on http://radiosondy.info
WA9ONY-14U22312442022-12-06 23:23:1544.9067-122.983141263247Clb=4.9m/s p=677.0hPa t=-9.1C h=40.9% 401.40MHz Type=RS41-SGP Join https://groups.io/g/Balloons
WA9ONY-10U22312442022-12-06 23:23:1444.9068-122.984150263243Clb=4.6m/s p=677.3hPa t=-9.0C h=41.0% 401.40MHz Type=RS41-SGP Join https://groups.io/g/Balloons
K6GDP-11U22312442022-12-06 23:23:1144.9071-122.984165153224Clb=5.3m/s t=-8.9C h=40.4% p=679.0hPa 401.400 MHz Type=RS41-SGP ser=U2231244 Radiosonde
KJ7NUX-14U22312442022-12-06 23:23:1044.9071-122.984166263224Clb=5.3m/s p=678.9hPa t=-8.9C h=40.7% 401.40MHz Type=RS41-SGP Details on http://radiosondy.info
KG7GDB-12U22312442022-12-06 23:23:0844.9071-122.984112203212Clb=3.9m/s t=-8.8C h=40.1% p=680.2hPa 401.401 MHz Type=RS41-SGP ser=U2231244 Radiosonde
W7BDB-13U22312442022-12-06 23:23:0644.9072-122.984116283208Clb=5.0m/s p=680.4hPa t=-8.7C h=40.3% 401.40MHz Type=RS41-SGP batt=2.9V Details on http://radiosondy.info
WA9ONY-14U22312442022-12-06 23:23:0544.9072-122.984126303203Clb=5.3m/s p=681.0hPa t=-8.7C h=40.2% 401.40MHz Type=RS41-SGP batt=2.9V Join https://groups.io/g/Balloons
WA9ONY-10U22312442022-12-06 23:23:0444.9072-122.984131263197Clb=5.5m/s p=681.4hPa t=-8.6C h=40.0% 401.40MHz Type=RS41-SGP batt=2.9V Join https://groups.io/g/Balloons
WA9ONY-14U22312442022-12-06 23:22:5544.9078-122.985121203155Clb=4.4m/s p=685.3hPa t=-8.3C h=40.7% 401.40MHz Type=RS41-SGP Join https://groups.io/g/Balloons
KJ7NUX-14U22312442022-12-06 23:22:5444.9078-122.985126263150Clb=5.2m/s p=685.6hPa t=-8.3C h=40.8% 401.40MHz Type=RS41-SGP batt=2.9V Details on http://radiosondy.info
W7BDB-13U22312442022-12-06 23:22:5044.908-122.985170263130Clb=3.8m/s p=687.4hPa t=-8.2C h=40.7% 401.40MHz Type=RS41-SGP Details on http://radiosondy.info
WA9ONY-14U22312442022-12-06 23:22:4544.9081-122.985109303109Clb=5.5m/s p=689.5hPa t=-8.1C h=41.7% 401.40MHz Type=RS41-SGP Join https://groups.io/g/Balloons
WA9ONY-10U22312442022-12-06 23:22:4444.9082-122.985112303103Clb=5.0m/s p=689.9hPa t=-8.1C h=41.7% 401.40MHz Type=RS41-SGP Join https://groups.io/g/Balloons
K6GDP-11U22312442022-12-06 23:22:4044.9084-122.986140303081Clb=4.5m/s t=-8.0C h=41.8% p=691.9hPa 401.400 MHz Type=RS41-SGP ser=U2231244 Radiosonde
KJ7NUX-14U22312442022-12-06 23:22:3844.9085-122.986146263076Clb=4.8m/s p=692.3hPa t=-7.9C h=42.1% 401.40MHz Type=RS41-SGP Details on http://radiosondy.info
KG7GDB-12U22312442022-12-06 23:22:3744.9086-122.986154173066Clb=7.1m/s t=-7.9C h=41.3% p=693.2hPa 401.401 MHz Type=RS41-SGP ser=U2231244 Radiosonde
W7BDB-13U22312442022-12-06 23:22:3544.9086-122.986158263061Clb=4.8m/s p=693.6hPa t=-7.8C h=41.6% 401.40MHz Type=RS41-SGP Details on http://radiosondy.info
WA9ONY-10U22312442022-12-06 23:22:3444.9087-122.986157303055Clb=5.5m/s p=694.1hPa t=-7.7C h=41.5% 401.40MHz Type=RS41-SGP batt=2.9V Join https://groups.io/g/Balloons
WA9ONY-14U22312442022-12-06 23:22:2544.9092-122.986152263011Clb=6.0m/s p=698.0hPa t=-7.4C h=41.7% 401.40MHz Type=RS41-SGP Join https://groups.io/g/Balloons
WA9ONY-10U22312442022-12-06 23:22:2444.9092-122.987131263004Clb=7.2m/s p=698.6hPa t=-7.4C h=41.6% 401.40MHz Type=RS41-SGP Join https://groups.io/g/Balloons
KJ7NUX-14U22312442022-12-06 23:22:2244.9092-122.98791262994Clb=4.9m/s p=699.6hPa t=-7.3C h=42.0% 401.40MHz Type=RS41-SGP Details on http://radiosondy.info
W7BDB-13U22312442022-12-06 23:22:2044.9092-122.987101262982Clb=4.8m/s p=700.5hPa t=-7.2C h=42.2% 401.40MHz Type=RS41-SGP TxPastBurst=8h30m batt=2.9V Details on http://radiosondy.info
WA9ONY-14U22312442022-12-06 23:22:1544.9094-122.987149242959Clb=4.9m/s p=702.6hPa t=-7.0C h=42.6% 401.40MHz Type=RS41-SGP Join https://groups.io/g/Balloons
WA9ONY-10U22312442022-12-06 23:22:1444.9095-122.987142262954Clb=4.9m/s p=703.0hPa t=-7.0C h=42.6% 401.40MHz Type=RS41-SGP Join https://groups.io/g/Balloons
K6GDP-11U22312442022-12-06 23:22:0944.9096-122.988127282920Clb=7.9m/s t=-6.9C h=41.3% p=706.3hPa 401.400 MHz Type=RS41-SGP ser=U2231244 Radiosonde
KJ7NUX-14U22312442022-12-06 23:22:0644.9097-122.988136282907Clb=4.4m/s p=707.5hPa t=-6.7C h=42.9% 401.40MHz Type=RS41-SGP batt=2.9V Details on http://radiosondy.info
KG7GDB-12U22312442022-12-06 23:22:0544.9097-122.988134352902Clb=4.3m/s t=-6.8C h=43.1% p=707.9hPa 401.401 MHz Type=RS41-SGP ser=U2231244 Radiosonde
WA9ONY-10U22312442022-12-06 23:22:0444.9098-122.988128262899Clb=3.0m/s p=708.1hPa t=-6.7C h=43.7% 401.40MHz Type=RS41-SGP TxPastBurst=8h30m batt=2.9V Join https://groups.io/g/Balloons
WA9ONY-14U22312442022-12-06 23:21:5544.9101-122.989164282851Clb=4.0m/s p=712.4hPa t=-6.4C h=46.5% 401.40MHz Type=RS41-SGP Join https://groups.io/g/Balloons
WA9ONY-10U22312442022-12-06 23:21:5444.9102-122.989156282847Clb=5.5m/s p=712.8hPa t=-6.4C h=46.8% 401.40MHz Type=RS41-SGP Join https://groups.io/g/Balloons
KJ7NUX-14U22312442022-12-06 23:21:5044.9104-122.989115262827Clb=6.3m/s p=714.8hPa t=-6.3C h=46.7% 401.40MHz Type=RS41-SGP Details on http://radiosondy.info
W7BDB-13U22312442022-12-06 23:21:4944.9104-122.989110242822Clb=5.1m/s p=715.3hPa t=-6.2C h=46.7% 401.40MHz Type=RS41-SGP Details on http://radiosondy.info
WA9ONY-14U22312442022-12-06 23:21:4544.9105-122.989146262802Clb=6.1m/s p=717.0hPa t=-6.1C h=46.9% 401.40MHz Type=RS41-SGP Join https://groups.io/g/Balloons
WA9ONY-10U22312442022-12-06 23:21:4444.9106-122.989158262795Clb=8.1m/s p=717.5hPa t=-6.1C h=46.3% 401.40MHz Type=RS41-SGP Join https://groups.io/g/Balloons
K6GDP-11U22312442022-12-06 23:21:3844.9108-122.9993302752Clb=5.4m/s t=-273.0C h=-1.0% p=721.5hPa 401.400 MHz Type=RS41-SGP ser=U2231244 Radiosonde
WA9ONY-14U22312442022-12-06 23:21:3544.9108-122.99110242741Clb=4.4m/s p=722.5hPa t=-5.8C h=45.2% 401.40MHz Type=RS41-SGP batt=2.9V Join https://groups.io/g/Balloons
KG7GDB-12U22312442022-12-06 23:21:3444.9108-122.99123202736Clb=5.5m/s t=-5.8C h=44.5% p=722.9hPa 401.401 MHz Type=RS41-SGP ser=U2231244 Radiosonde
KJ7NUX-14U22312442022-12-06 23:21:3244.9109-122.99127242725Clb=6.3m/s p=724.0hPa t=-5.7C h=43.8% 401.40MHz Type=RS41-SGP Details on http://radiosondy.info
WA9ONY-14U22312442022-12-06 23:21:2544.911-122.991119202690Clb=4.3m/s p=727.4hPa t=-5.4C h=43.5% 401.40MHz Type=RS41-SGP Join https://groups.io/g/Balloons
WA9ONY-10U22312442022-12-06 23:21:2444.911-122.991126202685Clb=5.2m/s p=727.7hPa t=-5.4C h=43.4% 401.40MHz Type=RS41-SGP Join https://groups.io/g/Balloons
W7BDB-13U22312442022-12-06 23:21:1944.9111-122.99176202661Clb=5.5m/s p=729.9hPa t=-5.2C h=42.9% 401.40MHz Type=RS41-SGP Details on http://radiosondy.info
KJ7NUX-14U22312442022-12-06 23:21:1644.9111-122.992102152646Clb=5.4m/s p=731.4hPa t=-5.1C h=43.4% 401.40MHz Type=RS41-SGP TxPastBurst=8h30m batt=2.9V Details on http://radiosondy.info
WA9ONY-14U22312442022-12-06 23:21:1544.9111-122.992137222641Clb=5.7m/s p=731.6hPa t=-5.1C h=43.4% 401.40MHz Type=RS41-SGP Join https://groups.io/g/Balloons
WA9ONY-10U22312442022-12-06 23:21:1444.9111-122.992150222635Clb=4.5m/s p=732.3hPa t=-5.0C h=43.4% 401.40MHz Type=RS41-SGP Join https://groups.io/g/Balloons
K6GDP-11U22312442022-12-06 23:21:0744.9113-122.99262202598Clb=6.8m/s t=-273.0C h=-1.0% p=-1.0hPa 401.400 MHz Type=RS41 ser=U2231244 Radiosonde
WA9ONY-14U22312442022-12-06 23:21:0544.9112-122.99270192592Clb=4.2m/s p=736.3hPa t=-4.8C h=43.4% 401.40MHz Type=RS41-SGP batt=2.9V Join https://groups.io/g/Balloons
W7BDB-13U22312442022-12-06 23:21:0444.9112-122.99268192588Clb=4.1m/s p=736.7hPa t=-4.7C h=43.5% 401.40MHz Type=RS41-SGP Details on http://radiosondy.info
KG7GDB-12U22312442022-12-06 23:21:0344.9112-122.9929472584Clb=4.6m/s t=-4.8C h=43.6% p=737.1hPa 401.401 MHz Type=RS41-SGP ser=U2231244 Radiosonde
KJ7NUX-14U22312442022-12-06 23:21:0044.9112-122.992104242563Clb=8.3m/s p=739.0hPa t=-4.6C h=43.5% 401.40MHz Type=RS41-SGP Details on http://radiosondy.info
WA9ONY-14U22312442022-12-06 23:20:5644.9114-122.993123242528Clb=4.8m/s p=742.2hPa t=-4.3C h=43.3% 401.40MHz Type=RS41-SGP Join https://groups.io/g/Balloons
WA9ONY-10U22312442022-12-06 23:20:5544.9114-122.993127242524Clb=3.7m/s p=742.6hPa t=-4.3C h=43.2% 401.40MHz Type=RS41-SGP Join https://groups.io/g/Balloons
W7BDB-13U22312442022-12-06 23:20:5044.9115-122.99393262497Clb=4.6m/s p=745.1hPa t=-4.1C h=42.8% 401.40MHz Type=RS41-SGP batt=2.9V Details on http://radiosondy.info
WA9ONY-14U22312442022-12-06 23:20:4744.9115-122.99494242480Clb=4.5m/s p=746.7hPa t=-4.0C h=42.6% 401.40MHz Type=RS41-SGP Join https://groups.io/g/Balloons
KJ7NUX-14U22312442022-12-06 23:20:4644.9115-122.99485222475Clb=5.1m/s p=747.1hPa t=-4.0C h=42.4% 401.40MHz Type=RS41-SGP Details on http://radiosondy.info
WA9ONY-14U22312442022-12-06 23:20:3644.9115-122.994122202432Clb=4.3m/s p=751.3hPa t=-3.7C h=42.8% 401.40MHz Type=RS41-SGP TxPastBurst=8h30m batt=2.9V Join https://groups.io/g/Balloons
KG7GDB-12U22312442022-12-06 23:20:3444.9116-122.995145222413Clb=6.2m/s t=-3.6C h=42.8% p=753.1hPa 401.401 MHz Type=RS41-SGP ser=U2231244 Radiosonde
KJ7NUX-14U22312442022-12-06 23:20:3044.9117-122.99573192395Clb=4.8m/s p=754.7hPa t=-3.5C h=43.3% 401.40MHz Type=RS41-SGP batt=2.9V Details on http://radiosondy.info
WA9ONY-14U22312442022-12-06 23:20:2644.9117-122.99598202381Clb=5.1m/s p=756.1hPa t=-3.3C h=43.1% 401.40MHz Type=RS41-SGP Join https://groups.io/g/Balloons
WA9ONY-10U22312442022-12-06 23:20:2544.9117-122.995107192375Clb=5.8m/s p=756.6hPa t=-3.3C h=43.0% 401.40MHz Type=RS41-SGP Join https://groups.io/g/Balloons
W7BDB-12U22312442022-12-06 23:20:2344.9119-122.995134202354Clb=4.3m/s t=-3.2C h=44.0% p=758.9hPa 401.399 MHz Type=RS41-SGP ser=U2231244 Radiosonde
W7BDB-13U22312442022-12-06 23:20:1644.9119-122.995104202337Clb=4.0m/s p=760.5hPa t=-3.1C h=43.4% 401.40MHz Type=RS41-SGP Details on http://radiosondy.info
WA9ONY-14U22312442022-12-06 23:20:1544.9119-122.996119172333Clb=3.6m/s p=760.8hPa t=-3.0C h=43.4% 401.40MHz Type=RS41-SGP Join https://groups.io/g/Balloons
WA9ONY-10U22312442022-12-06 23:20:1444.9119-122.996136192330Clb=3.5m/s p=761.3hPa t=-3.0C h=43.3% 401.40MHz Type=RS41-SGP Join https://groups.io/g/Balloons
KJ7NUX-14U22312442022-12-06 23:20:1344.912-122.996148202320Clb=6.7m/s p=762.2hPa t=-3.0C h=42.8% 401.40MHz Type=RS41-SGP Details on http://radiosondy.info
WA9ONY-14U22312442022-12-06 23:20:0544.9122-122.99682202289Clb=4.9m/s p=765.2hPa t=-2.8C h=46.3% 401.40MHz Type=RS41-SGP batt=2.9V Join https://groups.io/g/Balloons
WA9ONY-10U22312442022-12-06 23:20:0444.9122-122.99686202284Clb=4.8m/s p=765.7hPa t=-2.8C h=47.1% 401.40MHz Type=RS41-SGP batt=2.9V Join https://groups.io/g/Balloons
KG7GDB-12U22312442022-12-06 23:20:0144.9122-122.996108282271Clb=5.4m/s t=-2.8C h=44.1% p=766.9hPa 401.401 MHz Type=RS41-SGP ser=U2231244 Radiosonde
W7BDB-13U22312442022-12-06 23:20:0044.9123-122.996116202267Clb=4.2m/s p=767.2hPa t=-2.8C h=44.5% 401.40MHz Type=RS41-SGP TxPastBurst=8h30m batt=2.9V Details on http://radiosondy.info
KJ7NUX-14U22312442022-12-06 23:19:5644.9123-122.99773192246Clb=6.6m/s p=769.2hPa t=-2.7C h=43.8% 401.40MHz Type=RS41-SGP Details on http://radiosondy.info
WA9ONY-14U22312442022-12-06 23:19:5544.9123-122.99775222240Clb=5.3m/s p=770.0hPa t=-2.6C h=44.0% 401.40MHz Type=RS41-SGP Join https://groups.io/g/Balloons
WA9ONY-10U22312442022-12-06 23:19:5444.9123-122.99788222236Clb=3.5m/s p=770.4hPa t=-2.6C h=44.3% 401.40MHz Type=RS41-SGP Join https://groups.io/g/Balloons
W7BDB-13U22312442022-12-06 23:19:4544.9124-122.99775172195Clb=4.5m/s p=774.4hPa t=-2.3C h=44.1% 401.40MHz Type=RS41-SGP Details on http://radiosondy.info
WA9ONY-10U22312442022-12-06 23:19:4444.9124-122.99781152190Clb=4.6m/s p=774.9hPa t=-2.3C h=44.1% 401.40MHz Type=RS41-SGP Join https://groups.io/g/Balloons
KJ7NUX-14U22312442022-12-06 23:19:4044.9124-122.998114172170Clb=4.6m/s p=776.7hPa t=-2.2C h=44.6% 401.40MHz Type=RS41-SGP batt=2.9V Details on http://radiosondy.info
WA9ONY-14U22312442022-12-06 23:19:3544.9126-122.998139192139Clb=5.4m/s p=779.9hPa t=-2.1C h=43.8% 401.40MHz Type=RS41-SGP batt=2.9V Join https://groups.io/g/Balloons
WA9ONY-10U22312442022-12-06 23:19:3444.9126-122.998136172134Clb=4.9m/s p=780.2hPa t=-2.1C h=45.1% 401.40MHz Type=RS41-SGP batt=2.9V Join https://groups.io/g/Balloons
KG7GDB-12U22312442022-12-06 23:19:3044.9128-122.998136202114Clb=4.8m/s t=-2.1C h=46.0% p=782.4hPa 401.401 MHz Type=RS41-SGP ser=U2231244 Radiosonde
WA9ONY-14U22312442022-12-06 23:19:2544.9129-122.99859192085Clb=4.9m/s p=784.9hPa t=-2.2C h=47.9% 401.40MHz Type=RS41-SGP Join https://groups.io/g/Balloons
KJ7NUX-14U22312442022-12-06 23:19:2444.9128-122.99870172081Clb=4.3m/s p=785.6hPa t=-2.2C h=48.8% 401.40MHz Type=RS41-SGP Details on http://radiosondy.info
W7BDB-12U22312442022-12-06 23:19:2144.9129-122.999135152049Clb=5.1m/s t=-2.4C h=54.2% p=788.5hPa 401.399 MHz Type=RS41-SGP ser=U2231244 Radiosonde
W7BDB-13U22312442022-12-06 23:19:1544.9129-122.99985172031Clb=7.7m/s p=790.4hPa t=-2.2C h=53.9% 401.40MHz Type=RS41-SGP batt=2.9V Details on http://radiosondy.info
WA9ONY-10U22312442022-12-06 23:19:1444.9129-122.99968152025Clb=6.4m/s p=791.1hPa t=-2.2C h=53.5% 401.40MHz Type=RS41-SGP Join https://groups.io/g/Balloons
KJ7NUX-14U22312442022-12-06 23:19:0844.9128-122.99979171992Clb=5.8m/s p=794.2hPa t=-1.9C h=50.8% 401.40MHz Type=RS41-SGP Details on http://radiosondy.info
WA9ONY-14U22312442022-12-06 23:19:0544.9128-122.99991171977Clb=5.9m/s p=795.8hPa t=-1.8C h=49.5% 401.40MHz Type=RS41-SGP TxPastBurst=8h30m batt=2.9V Join https://groups.io/g/Balloons
WA9ONY-10U22312442022-12-06 23:19:0444.9128-122.99977171972Clb=4.3m/s p=796.3hPa t=-1.8C h=49.1% 401.40MHz Type=RS41-SGP TxPastBurst=8h30m batt=2.9V Join https://groups.io/g/Balloons
W7BDB-13U22312442022-12-06 23:19:0044.9127-122.99940151953Clb=5.6m/s p=798.1hPa t=-1.6C h=46.8% 401.40MHz Type=RS41-SGP Details on http://radiosondy.info
KG7GDB-12U22312442022-12-06 23:18:5944.9127-122.9998771947Clb=4.7m/s t=-1.7C h=46.5% p=798.7hPa 401.401 MHz Type=RS41-SGP ser=U2231244 Radiosonde
WA9ONY-14U22312442022-12-06 23:18:5544.9128-123125171926Clb=4.3m/s p=800.7hPa t=-1.5C h=47.0% 401.40MHz Type=RS41-SGP Join https://groups.io/g/Balloons
WA9ONY-10U22312442022-12-06 23:18:5444.9128-123121171921Clb=5.3m/s p=801.3hPa t=-1.5C h=47.1% 401.40MHz Type=RS41-SGP Join https://groups.io/g/Balloons
KJ7NUX-14U22312442022-12-06 23:18:5244.9128-12378191910Clb=5.5m/s p=802.4hPa t=-1.5C h=47.0% 401.40MHz Type=RS41-SGP TxPastBurst=8h30m batt=2.9V Details on http://radiosondy.info
W7BDB-13U22312442022-12-06 23:18:4544.9126-12353191875Clb=3.1m/s p=806.0hPa t=-1.3C h=46.5% 401.40MHz Type=RS41-SGP Details on http://radiosondy.info
WA9ONY-10U22312442022-12-06 23:18:4444.9126-12370201872Clb=4.3m/s p=806.3hPa t=-1.3C h=46.3% 401.40MHz Type=RS41-SGP Join https://groups.io/g/Balloons
KJ7NUX-14U22312442022-12-06 23:18:3644.9127-123.00170261834Clb=4.3m/s p=810.1hPa t=-1.2C h=46.4% 401.40MHz Type=RS41-SGP Details on http://radiosondy.info
WA9ONY-14U22312442022-12-06 23:18:3544.9126-123.00173241829Clb=5.0m/s p=810.6hPa t=-1.2C h=46.4% 401.40MHz Type=RS41-SGP batt=2.9V Join https://groups.io/g/Balloons
WA9ONY-10U22312442022-12-06 23:18:3444.9126-123.00194261824Clb=5.0m/s p=811.0hPa t=-1.2C h=46.6% 401.40MHz Type=RS41-SGP batt=2.9V Join https://groups.io/g/Balloons
K6GDP-11U22312442022-12-06 23:18:3344.9127-123.001123191815Clb=4.1m/s t=-1.4C h=48.0% p=812.1hPa 401.400 MHz Type=RS41-SGP ser=U2231244 Radiosonde
W7BDB-13U22312442022-12-06 23:18:2944.9128-123.001121301802Clb=5.6m/s p=813.4hPa t=-1.5C h=48.9% 401.40MHz Type=RS41-SGP batt=2.9V Details on http://radiosondy.info
KG7GDB-12U22312442022-12-06 23:18:2844.9128-123.001109301797Clb=5.3m/s t=-1.9C h=53.6% p=814.0hPa 401.401 MHz Type=RS41-SGP ser=U2231244 Radiosonde
WA9ONY-14U22312442022-12-06 23:18:2544.9128-123.00278311784Clb=5.5m/s p=815.4hPa t=-2.2C h=58.6% 401.40MHz Type=RS41-SGP Join https://groups.io/g/Balloons
WA9ONY-10U22312442022-12-06 23:18:2444.9128-123.00270241778Clb=5.9m/s p=816.1hPa t=-2.3C h=58.3% 401.40MHz Type=RS41-SGP Join https://groups.io/g/Balloons
KJ7NUX-14U22312442022-12-06 23:18:2044.9126-123.00255201758Clb=3.7m/s p=818.2hPa t=-3.0C h=69.6% 401.40MHz Type=RS41-SGP Details on http://radiosondy.info
W7BDB-12U22312442022-12-06 23:18:1944.9124-123.00234201741Clb=4.4m/s t=-3.1C h=71.4% p=819.8hPa 401.399 MHz Type=RS41-SGP ser=U2231244 Radiosonde
W7BDB-13U22312442022-12-06 23:18:1444.9124-123.00237131733Clb=3.9m/s p=820.8hPa t=-3.1C h=73.9% 401.40MHz Type=RS41-SGP Details on http://radiosondy.info
KJ7NUX-14U22312442022-12-06 23:18:0444.9122-123.00313991684Clb=6.6m/s p=825.8hPa t=-3.7C h=83.6% 401.40MHz Type=RS41-SGP batt=2.9V Details on http://radiosondy.info
K6GDP-11U22312442022-12-06 23:18:0244.9122-123.00341111668Clb=4.8m/s t=-3.8C h=84.9% p=827.5hPa 401.400 MHz Type=RS41-SGP ser=U2231244 Radiosonde
W7BDB-13U22312442022-12-06 23:17:5944.9121-123.00347111660Clb=5.7m/s p=828.1hPa t=-3.9C h=88.1% 401.40MHz Type=RS41-SGP Details on http://radiosondy.info
KG7GDB-12U22312442022-12-06 23:17:5744.9121-123.00310861647Clb=4.7m/s t=-4.2C h=91.7% p=829.6hPa 401.401 MHz Type=RS41-SGP ser=U2231244 Radiosonde
KJ7NUX-14U22312442022-12-06 23:17:4844.9121-123.00395151592Clb=7.1m/s p=835.2hPa t=-4.1C h=95.4% 401.40MHz Type=RS41-SGP Details on http://radiosondy.info
W7BDB-13U22312442022-12-06 23:17:4444.9122-123.004152151569Clb=6.6m/s p=837.8hPa t=-4.0C h=95.6% calibration 98% 401.40MHz Type=RS41-SGP TxPastBurst=8h30m batt=2.9V Details on http://radiosondy.info
KJ7NUX-14U22312442022-12-06 23:17:3244.9124-123.004113151502Clb=6.5m/s p=845.0hPa t=-3.7C h=96.1% 401.40MHz Type=RS41-SGP Details on http://radiosondy.info
WA9ONY-14U22312442022-12-06 23:17:3144.9124-123.004106151497Clb=5.2m/s p=845.5hPa t=-3.7C h=96.9% 401.40MHz Type=RS41-SGP Join https://groups.io/g/Balloons
WA9ONY-10U22312442022-12-06 23:17:2944.9124-123.00467171485Clb=6.4m/s p=846.9hPa t=-3.6C h=97.2% 401.40MHz Type=RS41-SGP Join https://groups.io/g/Balloons
W7BDB-13U22312442022-12-06 23:17:2844.9124-123.00476191478Clb=6.8m/s p=847.4hPa t=-3.6C h=97.6% calibration 92% 401.40MHz Type=RS41-SGP Details on http://radiosondy.info
KG7GDB-12U22312442022-12-06 23:17:2644.9123-123.004102151458Clb=6.7m/s t=-3.4C h=96.0% p=849.8hPa 401.401 MHz Type=RS41-SGP ser=U2231244 Radiosonde
WA9ONY-10U22312442022-12-06 23:17:1944.9124-123.00597241415Clb=6.6m/s p=854.3hPa t=-3.0C h=95.6% 401.40MHz Type=RS41-SGP batt=2.9V Join https://groups.io/g/Balloons
KJ7NUX-14U22312442022-12-06 23:17:1644.9123-123.00586201391Clb=8.7m/s p=856.6hPa t=-2.8C h=93.5% 401.40MHz Type=RS41-SGP batt=2.9V Details on http://radiosondy.info
W7BDB-13U22312442022-12-06 23:17:1344.9124-123.005111201373Clb=6.2m/s p=858.9hPa t=-2.5C h=91.8% calibration 92% 401.40MHz Type=RS41-SGP Details on http://radiosondy.info
WA9ONY-10U22312442022-12-06 23:17:0944.9124-123.00571151345Clb=5.9m/s p=861.9hPa t=-2.4C h=91.5% 401.40MHz Type=RS41-SGP Join https://groups.io/g/Balloons
KJ7NUX-14U22312442022-12-06 23:17:0044.9122-123.00693131295Clb=5.4m/s p=867.0hPa t=-2.0C h=89.9% 401.40MHz Type=RS41-SGP Details on http://radiosondy.info
WA9ONY-10U22312442022-12-06 23:16:5944.9122-123.006102131289Clb=5.6m/s p=867.5hPa t=-1.9C h=89.4% 401.40MHz Type=RS41-SGP Join https://groups.io/g/Balloons
W7BDB-13U22312442022-12-06 23:16:5744.9123-123.00684131278Clb=5.7m/s p=868.7hPa t=-1.8C h=89.3% calibration 90% 401.40MHz Type=RS41-SGP batt=2.9V Details on http://radiosondy.info
KG7GDB-12U22312442022-12-06 23:16:5544.9122-123.00616111259Clb=7.0m/s t=-1.7C h=87.7% p=870.8hPa 401.401 MHz Type=RS41-SGP ser=U2231244 Radiosonde
WA9ONY-10U22312442022-12-06 23:16:5044.9122-123.006110151230Clb=4.3m/s p=874.1hPa t=-1.3C h=86.7% 401.40MHz Type=RS41-SGP TxPastBurst=8h30m batt=2.9V Join https://groups.io/g/Balloons
WA9ONY-14U22312442022-12-06 23:16:4944.9122-123.006110151230Clb=4.3m/s p=874.1hPa t=-1.3C h=86.7% 401.40MHz Type=RS41-SGP TxPastBurst=8h30m batt=2.9V Join https://groups.io/g/Balloons
KJ7NUX-14U22312442022-12-06 23:16:4444.9121-123.00776171199Clb=6.3m/s p=877.4hPa t=-1.1C h=85.7% 401.40MHz Type=RS41-SGP Details on http://radiosondy.info
W7BDB-13U22312442022-12-06 23:16:4344.9121-123.00799171187Clb=5.1m/s p=878.7hPa t=-0.9C calibration 80% 401.40MHz Type=RS41-SGP Details on http://radiosondy.info
WA9ONY-14U22312442022-12-06 23:16:3944.9122-123.00774151168Clb=4.7m/s p=880.9hPa t=-0.8C h=84.7% 401.40MHz Type=RS41-SGP Join https://groups.io/g/Balloons
WA9ONY-14U22312442022-12-06 23:16:2944.912-123.00753171098Clb=5.3m/s p=888.5hPa t=-0.1C h=81.2% 401.40MHz Type=RS41-SGP Join https://groups.io/g/Balloons
KJ7NUX-14U22312442022-12-06 23:16:2844.9119-123.00758191091Clb=6.8m/s p=889.2hPa t=-0.0C h=80.9% 401.40MHz Type=RS41-SGP TxPastBurst=8h30m batt=2.9V Details on http://radiosondy.info
W7BDB-13U22312442022-12-06 23:16:2744.9119-123.00771191085Clb=6.5m/s p=889.9hPa t=-0.0C calibration 70% 401.40MHz Type=RS41-SGP Details on http://radiosondy.info
KG7GDB-12U22312442022-12-06 23:16:2444.9118-123.0084111058Clb=6.7m/s t=0.2C h=79.2% p=892.6hPa 401.401 MHz Type=RS41-SGP ser=U2231244 Radiosonde
WA9ONY-10U22312442022-12-06 23:16:1944.9117-123.00839241032Clb=6.4m/s p=895.8hPa t=0.5C h=78.2% 401.40MHz Type=RS41-SGP batt=2.9V Join https://groups.io/g/Balloons
W7BDB-12U22312442022-12-06 23:16:1544.9114-123.0083928985Clb=8.6m/s t=-273.0C h=-1.0% p=-1.0hPa 401.399 MHz Type=RS41-SGP ser=U2231244 Radiosonde
KJ7NUX-14U22312442022-12-06 23:16:1344.9114-123.0084024985Clb=8.6m/s p=901.0hPa t=0.8C h=77.2% 401.40MHz Type=RS41-SGP Details on http://radiosondy.info
W7BDB-13U22312442022-12-06 23:16:1144.9114-123.0084724977Clb=8.3m/s t=0.9C calibration 54% Type=RS41-SGP batt=2.9V Details on http://radiosondy.info
WA9ONY-14U22312442022-12-06 23:16:0944.9113-123.0086422961Clb=7.4m/s p=903.9hPa t=0.9C h=76.7% 401.40MHz Type=RS41-SGP Join https://groups.io/g/Balloons
WA9ONY-10U22312442022-12-06 23:15:5944.9109-123.009315887Clb=9.2m/s p=912.3hPa t=1.6C h=73.8% calibration 82% 401.40MHz Type=RS41-SGP Join https://groups.io/g/Balloons
K6GDP-11U22312442022-12-06 23:15:5744.9107-123.0092526864Clb=6.2m/s t=1.9C h=-1.0% p=-1.0hPa 401.400 MHz Type=RS41 ser=U2231244 Radiosonde
KJ7NUX-14U22312442022-12-06 23:15:5644.9107-123.0092613864Clb=6.1m/s p=914.7hPa t=1.8C h=72.6% 401.40MHz Type=RS41-SGP Details on http://radiosondy.info
W7BDB-13U22312442022-12-06 23:15:5544.9106-123.0092211858Clb=6.6m/s t=1.9C calibration 41% Type=RS41 Details on http://radiosondy.info
WA9ONY-10U22312442022-12-06 23:15:4944.9106-123.0097513817Clb=6.1m/s p=920.0hPa t=2.3C calibration 68% 401.40MHz Type=RS41-SGP batt=2.9V Join https://groups.io/g/Balloons
KJ7NUX-14U22312442022-12-06 23:15:0844.9105-123.00918915574Clb=6.1m/s t=3.7C calibration 70% Type=RS41 Details on http://radiosondy.info
KJ7NUX-14U22312442022-12-06 23:14:0444.9101-123.013419241Clb=6.5m/s calibration 13% Type=RS41 batt=2.9V Details on http://radiosondy.info